[[{"header":{"parameterUnit":"m.s-1","parameterCategory":1,"la1":31.0,"la2":29.5877,"lo1":-88.7671,"lo2":-86.6584,"dy":0.0162,"dx":0.0185,"nx":115,"ny":88,"refTime":"2023-03-28T18:00:00:Z","depth":0,"parameterNumber":2,"parameterNumberName":"U-component_of_WINDS"},"data":[0.0,0.0,0.0,0.0,0.0,0.0,0.0,0.0,0.0,0.0,0.0,0.0,0.0,0.0,0.0,0.0,0.0,0.0,0.0,0.0,0.0,0.0,0.0,0.0,0.0,0.0,0.0,0.0,0.0,0.0,0.0,0.0,0.0,0.0,0.0,0.0,0.0,0.0,0.0,0.0,0.0,0.0,0.0,0.0,0.0,0.0,0.0,0.0,0.0,0.0,0.0,0.0,0.0,0.0,0.0,0.0,0.0,0.0,0.0,0.0,0.0,0.0,0.0,0.0,0.0,0.0,0.0,0.0,0.0,0.0,0.0,0.0,0.0,0.0,0.0,0.0,0.0,0.0,0.0,0.0,0.0,0.0,0.0,0.0,0.0,0.0,0.0,0.0,0.0,0.0,0.0,0.0,0.0,0.0,0.0,0.0,0.0,0.0,0.0,0.0,0.0,0.0,0.0,0.0,0.0,0.0,0.0,0.0,0.0,0.0,0.0,0.0,0.0,0.0,0.0,0.0,0.0,0.0,0.0,0.0,0.0,0.0,0.0,0.0,0.0,0.0,0.0,0.0,0.0,0.0,0.0,0.0,0.0,0.0,0.0,0.0,0.0,0.0,0.0,0.0,0.0,0.0,0.0,0.0,0.0,0.0,0.0,0.0,0.0,0.0,0.0,0.0,0.0,0.0,0.0,0.0,0.0,0.0,0.0,0.0,0.0,0.0,0.0,0.0,0.0,0.0,0.0,0.0,0.0,0.0,0.0,0.0,0.0,0.0,0.0,0.0,0.0,0.0,0.0,0.0,0.0,0.0,0.0,0.0,0.0,0.0,0.0,0.0,0.0,0.0,0.0,0.0,0.0,0.0,0.0,0.0,0.0,0.0,0.0,0.0,0.0,0.0,0.0,0.0,0.0,0.0,0.0,0.0,0.0,0.0,0.0,0.0,0.0,0.0,0.0,0.0,0.0,0.0,0.0,0.0,0.0,0.0,0.0,0.0,0.0,0.0,0.0,0.0,0.0,0.0,0.0,0.0,0.0,0.0,0.0,0.0,0.0,0.0,0.0,0.0,0.0,0.0,0.0,0.0,0.0,0.0,0.0,0.0,0.0,0.0,0.0,0.0,0.0,0.0,0.0,0.0,0.0,0.0,0.0,0.0,0.0,0.0,0.0,0.0,0.0,0.0,0.0,0.0,0.0,0.0,0.0,0.0,0.0,0.0,0.0,0.0,0.0,0.0,0.0,0.0,0.0,0.0,0.0,0.0,0.0,0.0,0.0,0.0,0.0,0.0,0.0,0.0,0.0,0.0,0.0,0.0,0.0,0.0,0.0,0.0,0.0,0.0,0.0,0.0,0.0,0.0,0.0,0.0,0.0,0.0,0.0,0.0,0.0,0.0,0.0,0.0,0.0,0.0,0.0,0.0,0.0,0.0,0.0,0.0,0.0,0.0,0.0,0.0,0.0,0.0,0.0,0.0,0.0,0.0,0.0,0.0,0.0,0.0,0.0,0.0,0.0,0.0,0.0,0.0,0.0,0.0,0.0,0.0,0.0,0.0,0.0,0.0,0.0,0.0,0.0,0.0,0.0,0.0,0.0,0.0,0.0,0.0,0.0,0.0,0.0,0.0,0.0,0.0,0.0,0.0,0.0,0.0,0.0,0.0,0.0,0.0,0.0,0.0,0.0,0.0,0.0,0.0,0.0,0.0,0.0,0.0,0.0,0.0,0.0,0.0,0.0,0.0,0.0,0.0,0.0,0.0,0.0,0.0,0.0,0.0,0.0,0.0,0.0,0.0,0.0,0.0,0.0,0.0,0.0,0.0,0.0,0.0,0.0,0.0,0.0,0.0,0.0,0.0,0.0,0.0,0.0,0.0,0.0,0.0,0.0,0.0,0.0,0.0,0.0,0.0,0.0,0.0,0.0,0.0,0.0,0.0,0.0,0.0,0.0,0.0,0.0,0.0,0.0,0.0,0.0,0.0,0.0,0.0,0.0,0.0,0.0,0.0,0.0,0.0,0.0,0.0,0.0,0.0,0.0,0.0,0.0,0.0,0.0,0.0,0.0,0.0,0.0,0.0,0.0,0.0,0.0,0.0,0.0,0.0,0.0,0.0,0.0,0.0,0.0,0.0,0.0,0.0,0.0,0.0,0.0,0.0,0.0,0.0,0.0,0.0,0.0,0.0,0.0,0.0,0.0,0.0,0.0,0.0,0.0,0.0,0.0,0.0,0.0,0.0,0.0,0.0,0.0,0.0,0.0,0.0,0.0,0.0,0.0,0.0,0.0,0.0,0.0,0.0,0.0,0.0,0.0,0.0,0.0,0.0,0.0,0.0,0.0,0.0,0.0,0.0,0.0,0.0,0.0,0.0,0.0,0.0,0.0,0.0,0.0,0.0,0.0,0.0,0.0,0.0,0.0,0.0,0.0,0.0,0.0,0.0,0.0,0.0,0.0,0.0,0.0,0.0,0.0,0.0,0.0,0.0,0.0,0.0,0.0,0.0,0.0,0.0,0.0,0.0,0.0,0.0,0.0,0.0,0.0,0.0,0.0,0.0,0.0,0.0,0.0,0.0,0.0,0.0,0.0,0.0,0.0,0.0,0.0,0.0,0.0,0.0,0.0,0.0,0.0,0.0,0.0,0.0,0.0,0.0,0.0,0.0,0.0,0.0,0.0,0.0,0.0,0.0,0.0,0.0,0.0,0.0,0.0,0.0,0.0,0.0,0.0,0.0,0.0,0.0,0.0,0.0,0.0,0.0,0.0,0.0,0.0,0.0,0.0,0.0,0.0,0.0,0.0,0.0,0.0,0.0,0.0,0.0,0.0,0.0,0.0,0.0,0.0,0.0,0.0,0.0,0.0,0.0,0.0,0.0,0.0,0.0,0.0,0.0,0.0,0.0,0.0,0.0,0.0,0.0,0.0,0.0,0.0,0.0,0.0,0.0,0.0,0.0,0.0,0.0,0.0,0.0,0.0,0.0,0.0,0.0,0.0,0.0,0.0,0.0,0.0,0.0,0.0,0.0,0.0,0.0,0.0,0.0,0.0,0.0,0.0,0.0,0.0,0.0,0.0,0.0,0.0,0.0,0.0,0.0,0.0,0.0,0.0,0.0,0.0,0.0,0.0,0.0,0.0,0.0,0.0,0.0,0.0,0.0,0.0,0.0,0.0,0.0,0.0,0.0,0.0,0.0,0.0,0.0,0.0,0.0,0.0,0.0,0.0,0.0,0.0,0.0,0.0,0.0,0.0,0.0,0.0,0.0,0.0,0.0,0.0,0.0,0.0,0.0,0.0,0.0,0.0,0.0,0.0,0.0,0.0,0.0,0.0,0.0,0.0,0.0,0.0,0.0,0.0,0.0,0.0,0.0,0.0,0.0,0.0,0.0,0.0,0.0,0.0,0.0,0.0,0.0,0.0,0.0,0.0,0.0,0.0,0.0,0.0,0.0,0.0,0.0,0.0,0.0,0.0,0.0,0.0,0.0,0.0,0.0,0.0,0.0,0.0,0.0,0.0,0.0,0.0,0.0,0.0,0.0,0.0,0.0,0.0,0.0,0.0,0.0,0.0,0.0,0.0,0.0,0.0,0.0,0.0,0.0,0.0,0.0,0.0,0.0,0.0,0.0,0.0,0.0,0.0,0.0,0.0,0.0,0.0,0.0,0.0,0.0,0.0,0.0,0.0,0.0,0.0,0.0,0.0,0.0,0.0,0.0,0.0,0.0,0.0,0.0,0.0,0.0,0.0,0.0,0.0,0.0,0.0,0.0,0.0,0.0,0.0,0.0,0.0,0.0,0.0,0.0,0.0,0.0,0.0,0.0,0.0,0.0,0.0,0.0,0.0,0.0,0.0,0.0,0.0,0.0,0.0,0.0,0.0,0.0,0.0,0.0,0.0,0.0,0.0,0.0,0.0,0.0,0.0,0.0,0.0,0.0,0.0,0.0,0.0,0.0,0.0,0.0,0.0,0.0,0.0,0.0,0.0,0.0,0.0,0.0,0.0,0.0,0.0,0.0,0.0,0.0,0.0,0.0,0.0,0.0,0.0,0.0,0.0,0.0,0.0,0.0,0.0,0.0,0.0,0.0,0.0,0.0,0.0,0.0,0.0,0.0,0.0,0.0,0.0,0.0,0.0,0.0,0.0,0.0,0.0,0.0,0.0,0.0,0.0,0.0,0.0,0.0,0.0,0.0,0.0,0.0,0.0,0.0,0.0,0.0,0.0,0.0,0.0,0.0,0.0,0.0,0.0,0.0,0.0,0.0,0.0,0.0,0.0,0.0,3.5315,0.0,0.0,0.0,0.0,0.0,0.0,0.0,0.0,0.0,0.0,0.0,0.0,0.0,0.0,0.0,0.0,0.0,0.0,0.0,0.0,0.0,0.0,0.0,0.0,0.0,0.0,0.0,0.0,0.0,0.0,0.0,0.0,0.0,0.0,0.0,0.0,0.0,0.0,0.0,0.0,0.0,0.0,0.0,0.0,0.0,0.0,0.0,0.0,0.0,0.0,0.0,0.0,0.0,0.0,0.0,0.0,0.0,0.0,0.0,0.0,0.0,0.0,0.0,0.0,0.0,0.0,0.0,0.0,0.0,0.0,0.0,0.0,0.0,0.0,0.0,0.0,0.0,0.0,0.0,0.0,0.0,0.0,0.0,0.0,0.0,0.0,0.0,0.0,0.0,0.0,0.0,0.0,0.0,0.0,0.0,0.0,0.0,0.0,0.0,0.0,0.0,0.0,0.0,0.0,0.0,0.0,0.0,0.0,0.0,0.0,3.5324,3.5388,3.536,3.5315,3.5239,0.0,0.0,0.0,0.0,0.0,0.0,0.0,0.0,0.0,0.0,0.0,0.0,0.0,0.0,0.0,0.0,0.0,0.0,0.0,0.0,0.0,0.0,0.0,0.0,0.0,0.0,0.0,0.0,0.0,0.0,0.0,0.0,0.0,0.0,0.0,0.0,0.0,0.0,0.0,0.0,0.0,0.0,0.0,0.0,0.0,0.0,0.0,0.0,0.0,0.0,0.0,0.0,0.0,0.0,0.0,0.0,0.0,0.0,0.0,0.0,0.0,0.0,0.0,0.0,0.0,0.0,0.0,0.0,0.0,0.0,0.0,0.0,0.0,0.0,0.0,0.0,0.0,0.0,0.0,0.0,0.0,0.0,0.0,0.0,0.0,0.0,0.0,0.0,0.0,0.0,0.0,0.0,0.0,0.0,0.0,0.0,0.0,0.0,0.0,0.0,0.0,0.0,0.0,0.0,0.0,0.0,0.0,0.0,0.0,0.0,0.0,0.0,3.5618,3.5379,3.5143,0.0,0.0,0.0,0.0,0.0,0.0,0.0,0.0,0.0,0.0,0.0,0.0,0.0,0.0,0.0,0.0,0.0,0.0,0.0,0.0,0.0,0.0,0.0,0.0,0.0,0.0,0.0,0.0,0.0,0.0,0.0,0.0,0.0,0.0,0.0,0.0,0.0,0.0,0.0,0.0,0.0,0.0,0.0,0.0,0.0,0.0,0.0,0.0,0.0,0.0,0.0,0.0,0.0,0.0,0.0,0.0,0.0,0.0,0.0,0.0,0.0,0.0,0.0,0.0,0.0,0.0,0.0,0.0,0.0,0.0,0.0,0.0,0.0,0.0,0.0,0.0,0.0,0.0,0.0,0.0,0.0,0.0,0.0,0.0,0.0,0.0,0.0,0.0,0.0,0.0,0.0,0.0,0.0,0.0,0.0,0.0,0.0,0.0,0.0,0.0,0.0,0.0,0.0,0.0,0.0,0.0,0.0,0.0,0.0,0.0,3.7394,3.7374,3.6594,0.0,3.5002,0.0,0.0,0.0,0.0,0.0,0.0,0.0,0.0,0.0,0.0,0.0,0.0,0.0,0.0,0.0,0.0,0.0,0.0,0.0,0.0,0.0,0.0,0.0,0.0,0.0,0.0,0.0,0.0,0.0,0.0,0.0,0.0,0.0,0.0,0.0,0.0,0.0,0.0,0.0,0.0,0.0,0.0,0.0,0.0,0.0,0.0,0.0,0.0,0.0,0.0,0.0,0.0,0.0,0.0,0.0,0.0,0.0,0.0,0.0,0.0,0.0,0.0,0.0,0.0,0.0,0.0,0.0,0.0,0.0,0.0,0.0,0.0,0.0,0.0,0.0,0.0,0.0,0.0,0.0,0.0,0.0,0.0,0.0,0.0,0.0,0.0,0.0,0.0,0.0,0.0,0.0,0.0,0.0,0.0,0.0,0.0,0.0,0.0,0.0,0.0,0.0,0.0,0.0,0.0,0.0,0.0,0.0,0.0,0.0,0.0,3.7564,3.7604,3.6711,3.5799,0.0,0.0,0.0,0.0,0.0,0.0,0.0,0.0,0.0,0.0,0.0,0.0,0.0,0.0,0.0,0.0,0.0,0.0,0.0,0.0,0.0,0.0,0.0,0.0,0.0,0.0,0.0,0.0,0.0,0.0,0.0,0.0,0.0,0.0,0.0,0.0,0.0,0.0,0.0,0.0,0.0,0.0,0.0,0.0,0.0,0.0,0.0,0.0,0.0,0.0,0.0,0.0,0.0,0.0,0.0,0.0,0.0,0.0,0.0,0.0,0.0,0.0,0.0,0.0,0.0,0.0,0.0,0.0,0.0,0.0,0.0,0.0,0.0,0.0,0.0,0.0,0.0,0.0,0.0,0.0,0.0,0.0,0.0,0.0,0.0,0.0,0.0,0.0,0.0,0.0,0.0,0.0,0.0,0.0,0.0,0.0,0.0,0.0,0.0,0.0,0.0,0.0,0.0,0.0,0.0,0.0,0.0,0.0,0.0,0.0,3.8029,3.8088,3.785,3.6994,3.6079,3.5105,0.0,0.0,0.0,0.0,0.0,0.0,0.0,0.0,0.0,0.0,0.0,0.0,0.0,0.0,0.0,0.0,0.0,0.0,0.0,0.0,0.0,0.0,0.0,0.0,0.0,0.0,0.0,0.0,0.0,0.0,0.0,0.0,0.0,0.0,0.0,0.0,0.0,0.0,0.0,0.0,0.0,0.0,0.0,0.0,0.0,0.0,0.0,0.0,0.0,0.0,0.0,0.0,0.0,0.0,0.0,0.0,0.0,0.0,0.0,0.0,0.0,0.0,0.0,0.0,0.0,0.0,0.0,0.0,0.0,0.0,0.0,0.0,0.0,0.0,0.0,0.0,0.0,0.0,0.0,0.0,0.0,0.0,0.0,0.0,0.0,0.0,0.0,0.0,0.0,0.0,0.0,0.0,0.0,0.0,0.0,0.0,0.0,0.0,0.0,0.0,0.0,0.0,0.0,0.0,0.0,0.0,0.0,0.0,3.87,3.9399,3.9375,3.8577,3.7783,3.6847,0.0,0.0,0.0,0.0,0.0,0.0,0.0,0.0,0.0,0.0,0.0,0.0,0.0,0.0,0.0,0.0,0.0,0.0,0.0,0.0,0.0,0.0,0.0,0.0,0.0,0.0,0.0,0.0,0.0,0.0,0.0,0.0,0.0,0.0,0.0,0.0,0.0,0.0,0.0,0.0,0.0,0.0,0.0,0.0,0.0,0.0,0.0,0.0,0.0,0.0,0.0,0.0,0.0,0.0,0.0,0.0,0.0,0.0,0.0,0.0,0.0,0.0,0.0,0.0,0.0,0.0,0.0,0.0,0.0,0.0,0.0,0.0,0.0,0.0,0.0,0.0,0.0,0.0,0.0,0.0,0.0,0.0,0.0,0.0,0.0,0.0,0.0,0.0,0.0,0.0,0.0,0.0,0.0,0.0,0.0,0.0,0.0,0.0,0.0,0.0,0.0,0.0,0.0,0.0,0.0,0.0,0.0,0.0,0.0,3.9456,3.9716,3.9429,3.8612,3.769,3.6731,0.0,0.0,0.0,0.0,0.0,0.0,0.0,0.0,0.0,0.0,0.0,0.0,0.0,0.0,0.0,0.0,0.0,0.0,0.0,0.0,0.0,0.0,0.0,0.0,0.0,0.0,0.0,0.0,0.0,0.0,0.0,0.0,0.0,0.0,0.0,0.0,0.0,0.0,0.0,0.0,0.0,0.0,0.0,0.0,0.0,0.0,0.0,0.0,0.0,0.0,0.0,0.0,0.0,0.0,0.0,0.0,0.0,0.0,0.0,0.0,0.0,0.0,0.0,0.0,0.0,0.0,0.0,0.0,0.0,0.0,0.0,0.0,0.0,0.0,0.0,0.0,0.0,0.0,0.0,0.0,0.0,0.0,0.0,0.0,0.0,0.0,0.0,0.0,0.0,0.0,0.0,0.0,0.0,0.0,0.0,0.0,0.0,0.0,0.0,0.0,0.0,0.0,0.0,0.0,0.0,0.0,0.0,0.0,0.0,3.9832,0.0,3.9517,3.8965,3.8018,3.7009,0.0,0.0,0.0,0.0,0.0,0.0,0.0,0.0,0.0,0.0,0.0,0.0,0.0,0.0,0.0,0.0,0.0,0.0,0.0,0.0,0.0,0.0,0.0,0.0,0.0,0.0,0.0,0.0,0.0,0.0,0.0,0.0,0.0,0.0,0.0,0.0,0.0,0.0,0.0,0.0,0.0,0.0,0.0,0.0,0.0,0.0,0.0,0.0,0.0,0.0,0.0,0.0,0.0,0.0,0.0,0.0,0.0,0.0,0.0,0.0,0.0,0.0,0.0,0.0,0.0,0.0,0.0,0.0,0.0,0.0,0.0,0.0,0.0,0.0,0.0,0.0,0.0,0.0,0.0,0.0,0.0,0.0,0.0,0.0,0.0,0.0,0.0,0.0,0.0,0.0,0.0,0.0,0.0,0.0,0.0,0.0,0.0,0.0,0.0,0.0,0.0,0.0,0.0,0.0,0.0,0.0,0.0,0.0,3.8814,3.9832,3.9826,3.9739,3.967,3.8742,3.7791,0.0,0.0,0.0,0.0,0.0,0.0,0.0,0.0,0.0,0.0,0.0,0.0,0.0,0.0,0.0,0.0,0.0,0.0,0.0,0.0,0.0,0.0,0.0,0.0,0.0,0.0,0.0,0.0,0.0,0.0,0.0,0.0,0.0,0.0,0.0,0.0,0.0,0.0,0.0,0.0,0.0,0.0,0.0,0.0,0.0,0.0,0.0,0.0,0.0,0.0,0.0,0.0,0.0,0.0,0.0,0.0,0.0,0.0,0.0,0.0,0.0,0.0,0.0,0.0,0.0,0.0,0.0,0.0,0.0,0.0,0.0,0.0,0.0,0.0,0.0,0.0,0.0,0.0,0.0,0.0,0.0,0.0,0.0,0.0,0.0,0.0,0.0,0.0,0.0,0.0,0.0,0.0,0.0,0.0,0.0,0.0,0.0,0.0,0.0,0.0,0.0,0.0,0.0,0.0,0.0,0.0,0.0,0.0,0.0,3.9851,3.9781,3.9712,3.9604,3.8664,3.7685,0.0,0.0,0.0,0.0,0.0,0.0,0.0,0.0,0.0,0.0,0.0,0.0,0.0,0.0,0.0,0.0,0.0,0.0,0.0,0.0,0.0,0.0,0.0,0.0,0.0,0.0,0.0,0.0,0.0,0.0,0.0,0.0,0.0,0.0,0.0,0.0,0.0,0.0,0.0,0.0,0.0,0.0,0.0,0.0,0.0,0.0,0.0,0.0,0.0,0.0,0.0,0.0,0.0,0.0,0.0,0.0,0.0,0.0,0.0,0.0,0.0,0.0,0.0,0.0,0.0,0.0,0.0,0.0,0.0,0.0,0.0,0.0,0.0,0.0,0.0,0.0,0.0,0.0,0.0,0.0,0.0,0.0,0.0,0.0,0.0,0.0,0.0,0.0,0.0,0.0,0.0,0.0,0.0,0.0,0.0,0.0,0.0,0.0,0.0,0.0,0.0,0.0,0.0,0.0,0.0,0.0,0.0,0.0,0.0,4.0691,4.064,4.0565,4.0491,3.9526,3.8513,3.7479,0.0,0.0,0.0,0.0,0.0,0.0,0.0,0.0,0.0,0.0,0.0,0.0,0.0,0.0,0.0,0.0,0.0,0.0,0.0,0.0,0.0,0.0,0.0,0.0,0.0,0.0,0.0,0.0,0.0,0.0,0.0,0.0,0.0,0.0,0.0,0.0,0.0,0.0,0.0,0.0,0.0,0.0,0.0,0.0,0.0,0.0,0.0,0.0,0.0,0.0,0.0,0.0,0.0,0.0,0.0,0.0,0.0,0.0,0.0,0.0,0.0,0.0,0.0,0.0,0.0,0.0,0.0,0.0,0.0,0.0,0.0,0.0,0.0,0.0,0.0,0.0,0.0,0.0,0.0,0.0,0.0,0.0,0.0,0.0,0.0,0.0,0.0,0.0,0.0,0.0,0.0,0.0,0.0,0.0,0.0,0.0,0.0,0.0,0.0,0.0,0.0,0.0,0.0,0.0,0.0,0.0,0.0,0.0,4.2329,4.2377,4.2277,4.2047,4.111,4.0077,0.0,0.0,0.0,0.0,0.0,0.0,0.0,0.0,0.0,0.0,0.0,0.0,0.0,0.0,0.0,0.0,0.0,0.0,0.0,0.0,0.0,0.0,0.0,0.0,0.0,0.0,0.0,0.0,0.0,0.0,0.0,0.0,0.0,0.0,0.0,0.0,0.0,0.0,0.0,0.0,0.0,0.0,0.0,0.0,0.0,0.0,0.0,0.0,0.0,0.0,0.0,0.0,0.0,0.0,0.0,0.0,0.0,0.0,0.0,0.0,0.0,0.0,0.0,0.0,0.0,0.0,0.0,0.0,0.0,0.0,0.0,0.0,0.0,0.0,0.0,0.0,0.0,0.0,0.0,0.0,0.0,0.0,0.0,0.0,0.0,0.0,0.0,0.0,0.0,0.0,0.0,0.0,0.0,0.0,0.0,0.0,0.0,0.0,0.0,0.0,0.0,0.0,0.0,0.0,0.0,0.0,0.0,0.0,0.0,4.3855,4.5067,4.4796,4.2912,4.2464,4.1181,0.0,0.0,0.0,0.0,0.0,0.0,0.0,0.0,0.0,0.0,0.0,0.0,0.0,0.0,0.0,0.0,0.0,0.0,0.0,0.0,0.0,0.0,0.0,0.0,0.0,0.0,0.0,0.0,0.0,0.0,0.0,0.0,0.0,0.0,0.0,0.0,0.0,0.0,0.0,0.0,0.0,0.0,0.0,0.0,0.0,0.0,0.0,0.0,0.0,0.0,0.0,0.0,0.0,0.0,0.0,0.0,0.0,0.0,0.0,0.0,0.0,0.0,0.0,0.0,0.0,0.0,0.0,0.0,0.0,0.0,0.0,0.0,0.0,0.0,0.0,0.0,0.0,0.0,0.0,0.0,0.0,0.0,0.0,0.0,0.0,0.0,0.0,0.0,0.0,0.0,0.0,0.0,0.0,0.0,0.0,0.0,0.0,0.0,0.0,0.0,0.0,0.0,0.0,0.0,0.0,0.0,0.0,0.0,4.338,4.545,4.7093,4.718,4.5679,4.4158,4.2402,0.0,0.0,0.0,0.0,0.0,0.0,0.0,0.0,0.0,0.0,0.0,0.0,0.0,0.0,0.0,0.0,0.0,0.0,0.0,0.0,0.0,0.0,0.0,0.0,0.0,0.0,0.0,0.0,0.0,0.0,0.0,0.0,0.0,0.0,0.0,0.0,0.0,0.0,0.0,0.0,0.0,0.0,0.0,0.0,0.0,0.0,0.0,0.0,0.0,0.0,0.0,0.0,0.0,0.0,0.0,0.0,0.0,0.0,0.0,0.0,0.0,0.0,0.0,0.0,0.0,0.0,0.0,0.0,0.0,0.0,0.0,0.0,0.0,0.0,0.0,0.0,0.0,0.0,0.0,0.0,0.0,0.0,0.0,0.0,0.0,0.0,0.0,0.0,0.0,0.0,0.0,0.0,0.0,0.0,0.0,0.0,0.0,0.0,0.0,0.0,0.0,0.0,0.0,0.0,0.0,0.0,0.0,0.0,4.4356,4.6941,4.8516,4.9262,4.912,4.6057,4.3698,0.0,0.0,0.0,0.0,0.0,0.0,0.0,0.0,0.0,0.0,0.0,0.0,0.0,0.0,0.0,0.0,0.0,0.0,0.0,0.0,0.0,0.0,0.0,0.0,0.0,0.0,0.0,0.0,0.0,0.0,0.0,0.0,0.0,0.0,0.0,0.0,0.0,0.0,0.0,0.0,0.0,0.0,0.0,0.0,0.0,0.0,0.0,0.0,0.0,0.0,0.0,0.0,0.0,0.0,0.0,0.0,0.0,0.0,0.0,0.0,0.0,0.0,0.0,0.0,0.0,0.0,0.0,0.0,0.0,0.0,0.0,0.0,0.0,0.0,0.0,0.0,0.0,0.0,0.0,0.0,0.0,0.0,0.0,0.0,0.0,0.0,0.0,0.0,0.0,0.0,0.0,0.0,0.0,0.0,0.0,0.0,0.0,0.0,0.0,0.0,0.0,0.0,0.0,0.0,0.0,0.0,0.0,0.0,4.5021,4.7537,4.9216,4.9998,4.9873,4.7803,4.5231,0.0,0.0,0.0,0.0,0.0,0.0,0.0,0.0,0.0,0.0,0.0,0.0,0.0,0.0,0.0,0.0,0.0,0.0,0.0,0.0,0.0,0.0,0.0,0.0,0.0,0.0,0.0,0.0,0.0,0.0,0.0,0.0,0.0,0.0,0.0,0.0,0.0,0.0,0.0,0.0,0.0,0.0,0.0,0.0,0.0,0.0,0.0,0.0,2.4393,0.0,0.0,0.0,0.0,0.0,0.0,0.0,0.0,0.0,0.0,0.0,0.0,0.0,0.0,0.0,0.0,0.0,0.0,0.0,0.0,0.0,0.0,0.0,0.0,0.0,0.0,0.0,0.0,0.0,0.0,0.0,0.0,0.0,0.0,0.0,0.0,0.0,0.0,0.0,0.0,0.0,0.0,0.0,0.0,0.0,0.0,0.0,0.0,0.0,0.0,0.0,0.0,0.0,0.0,0.0,0.0,0.0,0.0,0.0,4.5074,4.7617,4.9284,4.9896,4.9325,4.7905,4.5663,0.0,0.0,0.0,0.0,0.0,0.0,0.0,0.0,0.0,0.0,0.0,0.0,0.0,0.0,0.0,0.0,0.0,0.0,0.0,0.0,0.0,0.0,0.0,0.0,0.0,0.0,0.0,0.0,0.0,0.0,0.0,0.0,0.0,0.0,0.0,0.0,0.0,0.0,0.0,0.0,0.0,0.0,0.0,0.0,0.0,0.0,0.0,0.0,0.0,0.0,0.0,0.0,0.0,0.0,0.0,0.0,0.0,0.0,0.0,0.0,0.0,0.0,0.0,0.0,0.0,0.0,0.0,0.0,0.0,0.0,0.0,0.0,0.0,0.0,0.0,0.0,0.0,0.0,0.0,0.0,0.0,0.0,0.0,0.0,0.0,0.0,0.0,0.0,0.0,0.0,0.0,0.0,0.0,0.0,0.0,0.0,0.0,0.0,0.0,0.0,0.0,0.0,0.0,0.0,0.0,0.0,0.0,4.1907,4.4864,4.7437,4.9011,4.9381,4.8495,4.7384,4.5528,4.2831,0.0,0.0,0.0,0.0,0.0,0.0,0.0,0.0,0.0,0.0,0.0,0.0,0.0,0.0,0.0,0.0,0.0,0.0,0.0,0.0,0.0,0.0,0.0,0.0,0.0,0.0,0.0,0.0,0.0,0.0,0.0,0.0,0.0,0.0,0.0,0.0,0.0,0.0,2.6109,2.6209,0.0,0.0,0.0,0.0,0.0,0.0,0.0,0.0,2.2333,0.0,0.0,0.0,0.0,0.0,0.0,0.0,0.0,0.0,0.0,0.0,0.0,0.0,0.0,0.0,0.0,0.0,0.0,0.0,0.0,0.0,0.0,0.0,0.0,0.0,0.0,0.0,0.0,0.0,0.0,0.0,0.0,0.0,0.0,0.0,0.0,0.0,0.0,0.0,0.0,0.0,0.0,0.0,0.0,0.0,0.0,0.0,0.0,0.0,0.0,0.0,0.0,0.0,0.0,0.0,0.0,3.8368,4.1654,4.457,4.7151,4.8697,4.9119,4.8399,4.7226,4.4921,4.1579,0.0,0.0,0.0,0.0,0.0,0.0,0.0,0.0,0.0,0.0,0.0,0.0,0.0,0.0,0.0,0.0,0.0,0.0,0.0,0.0,0.0,0.0,0.0,0.0,0.0,0.0,0.0,0.0,0.0,0.0,0.0,0.0,0.0,0.0,0.0,0.0,0.0,0.0,0.0,2.5221,2.509,0.0,0.0,0.0,0.0,0.0,0.0,0.0,0.0,2.1485,0.0,0.0,0.0,0.0,0.0,0.0,0.0,0.0,0.0,0.0,0.0,0.0,0.0,0.0,0.0,0.0,0.0,0.0,0.0,0.0,0.0,0.0,0.0,0.0,0.0,0.0,0.0,0.0,0.0,0.0,0.0,0.0,0.0,0.0,0.0,0.0,0.0,0.0,0.0,0.0,0.0,0.0,0.0,0.0,0.0,0.0,0.0,0.0,0.0,0.0,0.0,0.0,0.0,0.0,0.0,3.8189,4.1332,4.4016,4.6095,4.7703,4.7919,4.671,4.5612,4.3558,0.0,0.0,0.0,0.0,0.0,0.0,0.0,0.0,0.0,0.0,0.0,0.0,0.0,0.0,0.0,0.0,0.0,0.0,0.0,0.0,0.0,0.0,0.0,0.0,0.0,0.0,0.0,0.0,0.0,0.0,0.0,0.0,0.0,0.0,0.0,0.0,0.0,0.0,0.0,0.0,2.4941,2.4951,2.453,0.0,0.0,0.0,0.0,0.0,0.0,2.109,2.0532,0.0,0.0,0.0,0.0,0.0,0.0,0.0,0.0,0.0,0.0,0.0,0.0,0.0,0.0,0.0,0.0,0.0,0.0,0.0,0.0,0.0,0.0,0.0,0.0,0.0,0.0,0.0,0.0,0.0,0.0,0.0,0.0,0.0,0.0,0.0,0.0,0.0,0.0,0.0,0.0,0.0,0.0,0.0,0.0,0.0,0.0,0.0,0.0,0.0,0.0,0.0,0.0,0.0,0.0,0.0,3.7967,4.1305,4.376,4.5233,4.6597,4.6609,4.5047,4.3948,4.2121,0.0,0.0,0.0,0.0,0.0,0.0,0.0,0.0,0.0,0.0,0.0,0.0,0.0,0.0,0.0,0.0,0.0,0.0,0.0,0.0,0.0,0.0,0.0,0.0,0.0,0.0,0.0,0.0,0.0,0.0,0.0,0.0,0.0,0.0,0.0,0.0,0.0,0.0,0.0,0.0,0.0,2.4731,2.407,2.324,0.0,0.0,0.0,0.0,2.1077,2.0497,0.0,0.0,0.0,0.0,0.0,0.0,0.0,0.0,0.0,0.0,0.0,0.0,0.0,0.0,0.0,0.0,0.0,0.0,0.0,0.0,0.0,0.0,0.0,0.0,0.0,0.0,0.0,0.0,0.0,0.0,0.0,0.0,0.0,0.0,0.0,0.0,0.0,0.0,0.0,0.0,0.0,0.0,0.0,0.0,0.0,0.0,0.0,0.0,0.0,0.0,0.0,0.0,0.0,0.0,0.0,0.0,3.7952,4.2014,4.4429,4.5006,4.5684,4.5658,4.4839,4.3119,4.1237,0.0,0.0,0.0,0.0,0.0,0.0,0.0,0.0,0.0,0.0,0.0,0.0,0.0,0.0,0.0,0.0,0.0,0.0,0.0,0.0,0.0,0.0,0.0,0.0,0.0,0.0,0.0,0.0,0.0,0.0,0.0,0.0,0.0,0.0,0.0,0.0,0.0,0.0,0.0,0.0,0.0,2.3632,2.3213,2.2777,2.2403,0.0,0.0,2.1362,2.1233,2.0673,0.0,0.0,0.0,0.0,0.0,0.0,0.0,0.0,0.0,0.0,0.0,0.0,0.0,0.0,0.0,0.0,0.0,0.0,0.0,0.0,0.0,0.0,0.0,0.0,0.0,0.0,0.0,0.0,0.0,0.0,0.0,0.0,0.0,0.0,0.0,0.0,0.0,0.0,0.0,0.0,0.0,0.0,0.0,0.0,0.0,0.0,0.0,0.0,0.0,0.0,0.0,0.0,0.0,0.0,0.0,3.4518,3.7593,4.1991,4.4371,4.4511,4.5156,4.5128,4.4298,4.2194,4.035,0.0,0.0,0.0,0.0,0.0,0.0,0.0,0.0,0.0,0.0,0.0,0.0,0.0,0.0,0.0,0.0,0.0,0.0,0.0,0.0,0.0,0.0,0.0,0.0,0.0,0.0,0.0,0.0,0.0,0.0,0.0,0.0,0.0,0.0,0.0,0.0,0.0,0.0,0.0,0.0,0.0,0.0,2.2128,2.1777,0.0,0.0,0.0,2.0784,2.0351,0.0,0.0,0.0,0.0,0.0,0.0,0.0,0.0,0.0,0.0,0.0,0.0,0.0,0.0,0.0,0.0,0.0,0.0,0.0,0.0,0.0,0.0,0.0,0.0,0.0,0.0,0.0,0.0,0.0,0.0,0.0,0.0,0.0,0.0,0.0,0.0,0.0,0.0,0.0,0.0,0.0,0.0,0.0,0.0,0.0,0.0,0.0,0.0,0.0,0.0,0.0,0.0,0.0,0.0,0.0,0.0,0.0,3.722,4.1761,4.4068,4.4014,4.4546,4.4515,4.3728,4.1241,0.0,0.0,0.0,0.0,0.0,0.0,0.0,0.0,0.0,0.0,0.0,0.0,0.0,0.0,0.0,0.0,0.0,0.0,0.0,0.0,0.0,0.0,0.0,0.0,0.0,0.0,0.0,2.4125,0.0,0.0,0.0,0.0,0.0,0.0,0.0,0.0,0.0,0.0,0.0,0.0,0.0,0.0,2.1568,2.1133,2.0795,2.0522,0.0,0.0,1.9978,1.9445,1.9126,1.8505,0.0,0.0,0.0,0.0,0.0,0.0,0.0,0.0,0.0,0.0,0.0,0.0,0.0,0.0,0.0,0.0,0.0,0.0,0.0,0.0,0.0,0.0,0.0,0.0,0.0,0.0,0.0,0.0,0.0,0.0,0.0,0.0,0.0,0.0,0.0,0.0,0.0,0.0,0.0,0.0,0.0,0.0,0.0,0.0,0.0,0.0,0.0,0.0,0.0,0.0,0.0,0.0,0.0,0.0,3.4042,3.7027,4.1328,4.3618,4.371,4.3652,4.3554,4.3308,4.0354,3.8556,0.0,0.0,0.0,0.0,0.0,0.0,0.0,0.0,0.0,0.0,0.0,0.0,0.0,0.0,0.0,0.0,0.0,0.0,0.0,0.0,0.0,0.0,0.0,0.0,0.0,0.0,0.0,0.0,0.0,0.0,0.0,0.0,0.0,0.0,0.0,0.0,0.0,0.0,0.0,0.0,0.0,2.0556,2.0239,1.9987,1.9951,0.0,1.9698,1.9259,1.8921,1.8372,1.7851,1.7471,0.0,0.0,0.0,0.0,0.0,0.0,0.0,0.0,0.0,0.0,0.0,0.0,0.0,0.0,0.0,0.0,0.0,0.0,0.0,0.0,0.0,0.0,0.0,0.0,0.0,0.0,0.0,0.0,0.0,0.0,0.0,0.0,0.0,0.0,0.0,0.0,0.0,0.0,0.0,0.0,0.0,0.0,0.0,0.0,0.0,0.0,0.0,0.0,0.0,0.0,0.0,0.0,0.0,3.3709,3.6568,4.0814,4.3074,4.3195,4.3632,4.3546,4.2962,4.0854,3.9234,0.0,0.0,0.0,0.0,0.0,0.0,0.0,0.0,0.0,0.0,0.0,0.0,0.0,0.0,0.0,0.0,0.0,0.0,0.0,0.0,0.0,0.0,0.0,0.0,0.0,0.0,0.0,0.0,2.4067,2.3995,2.3806,0.0,0.0,0.0,0.0,0.0,0.0,0.0,0.0,0.0,0.0,1.9678,1.9261,1.9074,0.0,0.0,1.8474,1.8287,1.7548,1.7159,1.6743,1.6129,1.552,0.0,0.0,0.0,0.0,0.0,0.0,0.0,0.0,0.0,0.0,0.0,0.0,0.0,0.0,0.0,0.0,0.0,0.0,0.0,0.0,0.0,0.0,0.0,0.0,0.0,0.0,0.0,0.0,0.0,0.0,0.0,0.0,0.0,0.0,0.0,0.0,0.0,0.0,0.0,0.0,0.0,0.0,0.0,0.0,0.0,0.0,0.0,0.0,0.0,0.0,0.0,0.0,3.3635,3.6199,4.0014,4.2265,4.2843,4.3373,4.3355,4.2654,4.1171,3.971,0.0,0.0,0.0,0.0,0.0,0.0,0.0,0.0,0.0,0.0,0.0,0.0,0.0,0.0,0.0,0.0,0.0,0.0,0.0,0.0,0.0,0.0,0.0,0.0,0.0,0.0,0.0,0.0,2.3878,2.3747,2.345,0.0,0.0,0.0,0.0,0.0,0.0,0.0,0.0,0.0,0.0,1.8646,1.8279,1.7965,1.773,1.7231,1.7234,1.7041,1.6316,1.5978,1.5551,1.4945,0.0,0.0,0.0,0.0,0.0,0.0,0.0,0.0,0.0,0.0,0.0,0.0,0.0,0.0,0.0,0.0,0.0,0.0,0.0,0.0,0.0,0.0,0.0,0.0,0.0,0.0,0.0,0.0,0.0,0.0,3.6517,0.0,0.0,0.0,0.0,0.0,0.0,0.0,0.0,0.0,0.0,0.0,0.0,0.0,0.0,0.0,0.0,0.0,0.0,0.0,0.0,0.0,0.0,3.3904,3.6002,3.8951,4.1197,4.2655,4.274,4.2706,4.2447,4.0951,3.9699,3.8756,0.0,0.0,0.0,0.0,0.0,0.0,0.0,0.0,0.0,0.0,0.0,0.0,0.0,0.0,0.0,0.0,0.0,0.0,0.0,0.0,0.0,0.0,0.0,0.0,0.0,0.0,2.3891,2.3582,2.3271,0.0,0.0,0.0,0.0,0.0,0.0,0.0,0.0,0.0,1.7814,1.7692,1.7581,1.7243,1.69,1.6612,1.6492,1.6053,1.5639,1.5397,1.4829,1.448,0.0,0.0,0.0,0.0,0.0,0.0,0.0,0.0,0.0,0.0,0.0,0.0,0.0,0.0,0.0,0.0,0.0,0.0,0.0,0.0,0.0,0.0,0.0,0.0,0.0,0.0,0.0,3.7111,3.6977,0.0,0.0,0.0,0.0,0.0,0.0,0.0,0.0,0.0,0.0,0.0,3.7651,3.7051,0.0,0.0,0.0,0.0,0.0,0.0,0.0,0.0,0.0,0.0,0.0,0.0,3.3537,3.5583,3.841,4.0697,4.2252,4.2706,4.2686,4.2267,4.1634,3.9982,3.7151,0.0,0.0,0.0,0.0,0.0,0.0,0.0,0.0,0.0,0.0,0.0,0.0,0.0,0.0,0.0,0.0,0.0,0.0,0.0,0.0,0.0,0.0,0.0,0.0,0.0,2.4051,0.0,0.0,0.0,0.0,0.0,0.0,0.0,0.0,0.0,0.0,0.0,1.7907,1.6729,1.6756,1.6593,1.6001,1.5782,1.5505,0.0,0.0,0.0,0.0,0.0,0.0,0.0,0.0,0.0,0.0,0.0,0.0,0.0,0.0,1.3866,1.4355,1.4569,1.4644,1.4439,0.0,0.0,0.0,0.0,0.0,0.0,0.0,0.0,0.0,0.0,0.0,0.0,0.0,0.0,3.8072,0.0,3.727,0.0,0.0,0.0,0.0,0.0,0.0,0.0,0.0,3.8353,3.832,3.8456,3.7935,3.7225,0.0,3.5598,3.4465,0.0,0.0,0.0,0.0,0.0,0.0,0.0,0.0,3.3478,3.5485,3.7701,3.9831,4.1841,4.2411,4.2562,4.2438,4.1804,4.0104,3.7353,3.6109,3.4676,0.0,0.0,0.0,0.0,0.0,0.0,0.0,0.0,0.0,0.0,0.0,0.0,0.0,0.0,0.0,0.0,0.0,0.0,0.0,0.0,0.0,0.0,0.0,2.354,0.0,0.0,0.0,0.0,0.0,0.0,0.0,0.0,0.0,1.7531,1.7297,1.6813,1.579,1.573,1.5569,1.5034,0.0,0.0,0.0,0.0,0.0,0.0,0.0,1.2514,1.2579,1.2448,1.2484,1.2916,1.3033,1.3197,1.3379,0.0,0.0,1.4059,1.434,1.4436,1.4353,1.4167,1.3856,1.3322,1.2904,1.2466,0.0,0.0,0.0,0.0,0.0,0.0,0.0,0.0,4.0012,4.0085,0.0,3.82,0.0,0.0,0.0,0.0,0.0,3.8358,0.0,0.0,3.9083,3.9245,3.8921,3.8877,3.8614,3.8069,3.6434,3.5496,3.5078,3.2293,0.0,0.0,0.0,0.0,0.0,0.0,3.371,3.5811,3.6804,3.8702,4.1549,4.181,4.22,4.2908,4.1438,4.0213,3.9309,3.776,3.6205,3.4628,3.3502,0.0,0.0,0.0,0.0,0.0,0.0,0.0,0.0,0.0,0.0,0.0,0.0,0.0,0.0,0.0,0.0,0.0,0.0,0.0,0.0,2.2756,0.0,0.0,0.0,0.0,0.0,0.0,0.0,0.0,0.0,0.0,1.6535,1.6138,1.5639,1.5072,0.0,0.0,0.0,0.0,1.3652,1.3398,1.2966,1.2711,1.2723,1.2307,1.2048,1.2386,0.0,0.0,1.2672,1.2728,1.2915,1.3375,1.3465,1.3584,1.372,1.3872,1.3938,1.407,1.3927,1.3761,1.3438,1.3263,1.2991,4.1935,0.0,0.0,0.0,0.0,3.9502,3.9949,4.0846,4.1014,4.0929,4.0579,4.0099,0.0,0.0,0.0,0.0,0.0,0.0,3.9317,3.9495,3.9215,3.9076,3.9152,3.8619,3.8146,3.7597,3.6919,3.645,3.6107,3.3958,3.2036,3.0392,0.0,0.0,0.0,0.0,3.3225,3.5245,3.6231,3.8192,4.1165,4.1214,4.1675,4.246,4.1607,4.0586,3.9322,3.8858,3.7807,3.6118,3.4725,0.0,0.0,0.0,0.0,0.0,0.0,0.0,0.0,0.0,0.0,0.0,0.0,0.0,0.0,0.0,0.0,0.0,0.0,0.0,2.4256,2.3508,2.2799,0.0,0.0,0.0,0.0,0.0,0.0,0.0,0.0,0.0,1.529,1.5249,1.5035,0.0,0.0,1.3911,1.3622,1.3439,1.3228,1.3222,1.2631,0.0,1.2447,1.2124,1.186,1.218,1.251,1.2669,1.2734,1.3035,1.3308,1.3456,1.3472,1.3601,1.3796,1.397,1.4084,1.4142,1.4096,1.4056,1.3751,1.3565,1.3288,4.4667,4.239,4.0671,4.0318,4.0878,4.0624,4.09,4.1501,4.1567,4.1317,4.0891,4.0653,4.0126,3.9406,3.9643,0.0,0.0,0.0,3.9782,4.0176,4.0038,4.0083,4.0239,3.9817,3.936,3.8775,3.7894,3.74,3.7064,3.4872,3.2898,3.1277,0.0,0.0,3.035,3.1166,3.2624,3.4707,3.5856,3.7767,4.0534,4.1069,4.1622,4.2167,4.1313,4.0414,3.9572,3.9259,3.8311,3.6689,3.5703,3.426,0.0,0.0,0.0,0.0,0.0,0.0,0.0,0.0,0.0,0.0,0.0,2.3863,2.3828,0.0,0.0,0.0,2.3712,2.38,2.3946,2.3107,0.0,0.0,0.0,0.0,0.0,0.0,0.0,1.7131,1.6228,1.5401,1.4656,1.4559,1.4279,1.3627,1.352,1.3464,1.3406,0.0,1.3176,1.328,1.2768,1.2568,1.2713,1.2282,1.2037,1.2373,1.2641,1.2937,1.3044,1.3297,1.3502,1.3588,1.3615,1.369,1.3922,1.4157,1.4261,1.4261,1.4079,1.4018,1.3817,1.3631,1.3456,4.7171,4.5492,4.3499,4.2216,4.153,4.2184,4.1937,4.1214,4.1809,4.1506,4.0637,4.0474,4.0306,3.9987,3.9518,0.0,3.9224,3.9801,4.0229,4.054,4.1273,4.1627,4.171,4.171,4.1409,4.0818,3.9194,3.8261,3.7786,3.5367,3.3699,3.2928,3.1162,3.0588,3.1171,3.0979,3.2002,3.4281,3.5537,3.7399,3.9838,4.1051,4.1743,4.1907,4.0623,3.987,3.9788,3.9044,3.803,3.6564,3.6312,3.4812,3.195,0.0,0.0,0.0,0.0,0.0,0.0,0.0,0.0,0.0,0.0,0.0,0.0,0.0,0.0,0.0,2.3292,0.0,2.2697,2.2032,0.0,0.0,0.0,1.935,1.8684,1.7716,1.6877,1.6363,0.0,0.0,1.4725,1.4123,1.3665,1.345,1.3199,1.3188,1.3454,1.3316,1.3242,1.3447,1.3308,1.3235,1.3173,1.2865,1.2681,1.2893,1.3095,1.335,1.355,1.3643,1.3735,1.3919,1.3852,1.4022,1.4261,1.4476,1.4606,1.4379,1.4109,1.3957,1.3941,1.3794,1.3659,4.7603,4.6078,4.54,4.4533,4.3524,4.3069,4.2687,4.245,4.2463,4.2537,4.2673,4.2501,4.2484,4.2549,4.1526,4.1346,4.1799,4.1716,4.1559,4.148,4.1393,4.1282,4.1124,4.1009,4.0733,4.018,3.9662,3.8912,3.7963,3.6537,3.5459,3.4586,3.2578,3.1467,3.1356,3.1211,3.2253,3.4368,3.5174,3.6717,3.8938,4.0007,4.0575,4.0756,4.0014,3.9341,3.8804,3.8105,3.7254,3.6249,3.563,3.4574,3.2964,3.1451,0.0,0.0,0.0,0.0,0.0,0.0,0.0,0.0,0.0,2.4389,2.4645,0.0,2.4035,0.0,2.3933,2.3508,2.3195,2.2107,0.0,0.0,1.9683,1.8928,1.8536,1.7863,1.7338,1.7169,1.635,1.5665,1.5164,1.4688,1.4287,1.4115,1.3548,1.3209,1.3458,1.3423,1.3441,1.3501,1.3351,1.3272,1.3408,1.3492,1.3579,1.3605,1.3988,1.4303,1.437,1.4534,1.4669,1.4725,1.4731,1.4759,1.4815,1.4821,1.4928,1.4826,1.4776,1.4736,1.4736,1.4467,1.4322,4.8243,4.6758,4.6498,4.5807,4.4718,4.362,4.3292,4.3458,4.303,4.3081,4.3544,4.3214,4.3155,4.3168,4.2416,4.2227,4.2462,4.2179,4.2004,4.1986,4.1717,4.153,4.1419,4.1375,4.1066,4.0563,3.9991,3.9233,3.8213,3.6812,3.5734,3.4926,3.3441,3.2428,3.1875,3.1247,3.1759,3.3358,3.5029,3.6689,3.8351,3.8962,3.9352,3.9562,3.8659,3.8067,3.7738,3.6973,3.6345,3.5744,3.4984,3.4149,3.3219,3.1638,3.0237,0.0,0.0,0.0,0.0,0.0,0.0,0.0,0.0,0.0,0.0,0.0,2.4256,2.4234,2.3722,2.3123,2.2724,2.1907,2.1181,2.0401,1.975,1.9118,1.8659,1.8029,1.7543,1.727,1.6645,1.6,1.567,1.5201,1.4997,1.4936,1.4469,1.4069,1.4012,1.4049,1.4093,1.4211,1.4081,1.4062,1.416,1.4427,1.4625,1.4648,1.4791,1.4914,1.5024,1.5045,1.5041,1.5041,1.5041,1.5035,1.5137,1.5351,1.5464,1.5571,1.5672,1.5565,1.5143,1.5035,1.4922,4.8802,4.7276,4.707,4.6404,4.5439,4.4139,4.3811,4.411,4.3429,4.3388,4.3711,4.3439,4.3271,4.3107,4.2799,4.2661,4.2446,4.2122,4.2062,4.2265,4.2059,4.2035,4.2029,4.198,4.1654,4.1158,4.0246,3.9411,3.8488,3.6884,3.5688,3.4901,3.4115,3.3425,3.2736,3.1489,3.1468,3.2598,3.5061,3.6858,3.7717,3.7919,3.815,3.8391,3.7091,3.6476,3.6605,3.5729,3.5172,3.4978,3.4336,3.359,3.2918,3.1643,3.0438,0.0,2.8624,0.0,0.0,0.0,0.0,0.0,0.0,0.0,0.0,2.4792,2.4309,2.3857,2.3145,2.2513,2.1834,2.1599,2.1128,2.0326,1.9901,1.9521,1.8894,1.8278,1.7771,1.7313,1.6862,1.6523,1.6299,1.5888,1.5708,1.6005,1.5882,1.5631,1.5278,1.5078,1.5049,1.5204,1.5281,1.5312,1.5351,1.5557,1.5738,1.564,1.5523,1.541,1.5612,1.5452,1.525,1.525,1.5357,1.5357,1.5565,1.5885,1.6105,1.6324,1.663,1.6418,1.5565,1.5458,1.5339,4.8209,4.7258,4.687,4.6501,4.6129,4.5058,4.4313,4.3763,4.3545,4.3631,4.3939,4.4333,4.4494,4.4402,4.3979,4.3719,4.3473,4.3046,4.2708,4.2486,4.2141,4.1804,4.1654,4.1256,4.0935,4.0646,4.0301,3.9612,3.8644,3.8333,3.7459,3.6184,3.5444,3.4786,3.4098,0.0,0.0,0.0,3.5501,3.594,3.6551,3.6739,3.6909,3.7047,3.5857,0.0,3.5222,3.4077,3.3396,3.3396,3.3061,0.0,0.0,0.0,0.0,0.0,0.0,0.0,0.0,0.0,0.0,0.0,2.7326,2.6763,2.5673,2.4719,2.3936,2.3251,2.304,2.2633,2.1868,2.1465,2.0884,2.0252,1.9809,1.9445,1.9309,1.883,1.8401,1.8506,1.7896,1.7457,1.7331,1.7094,1.708,1.745,1.7449,1.7469,1.7685,1.6711,1.6029,1.6102,1.6281,1.6506,1.6517,1.6504,1.6581,1.6562,1.6422,1.6449,1.6505,1.6411,1.6411,1.6305,1.6418,1.6411,1.6518,1.6736,1.6961,1.6961,1.7272,1.7265,1.6518,1.6099,1.5612,4.8083,0.0,4.6916,4.6655,0.0,4.5702,4.512,4.4588,4.4091,4.4096,4.4401,4.4664,4.4776,4.4665,4.427,4.3981,4.3772,4.3279,4.2867,4.2508,4.2125,4.1736,4.1339,4.1086,4.0746,4.0401,4.0191,3.9631,3.8732,3.8617,3.7967,3.6941,3.6611,3.6133,3.5459,3.4164,3.4025,3.5138,3.5389,3.5657,3.5921,3.6131,3.6289,3.6415,3.5197,0.0,0.0,0.0,0.0,0.0,0.0,0.0,0.0,3.1121,0.0,3.0197,2.9586,2.9119,2.8955,2.861,2.8296,2.8015,2.7471,2.6724,2.5851,2.4885,2.4079,2.3567,2.3189,2.2584,2.1897,2.1582,2.124,2.0576,2.0218,2.0069,1.9877,1.938,1.9109,1.8996,1.8658,1.8434,1.8288,1.8201,1.8195,1.8376,1.8453,1.8619,1.8754,1.8069,1.7387,1.7337,1.7455,1.7544,1.7563,1.7624,1.7576,1.7603,1.7495,1.7364,1.7378,1.7265,1.7153,1.7153,1.716,1.7153,1.7265,1.7378,1.749,1.7595,1.7589,1.7483,1.706,1.6636,1.6019,4.8019,4.7276,4.707,4.6795,4.6381,4.6137,4.5786,4.5424,0.0,0.0,0.0,4.4776,4.4665,4.4547,4.4229,4.3964,4.3713,4.3279,4.2867,4.2445,4.2174,4.1736,4.1169,4.1049,4.0761,4.0347,4.0066,3.9627,3.9048,3.8702,3.8287,3.7808,3.7644,3.727,3.6559,3.5081,3.4508,3.5015,3.5544,3.5829,3.5844,3.6042,3.6143,3.6133,3.4942,3.4361,3.445,3.32,3.2387,3.2158,3.2028,3.1569,3.0902,3.1215,3.1238,3.0787,3.0605,3.0435,3.0207,2.9476,2.8882,2.8558,2.7466,2.6538,2.6056,2.509,2.4352,2.4132,2.3473,2.2754,2.2148,2.2024,2.1671,2.1062,2.0909,2.0736,2.0464,2.0036,1.9762,1.9528,1.9396,1.9312,1.91,1.9153,1.9312,1.9351,1.9505,1.9618,1.974,1.9231,1.8743,1.8784,1.876,1.873,1.8704,1.8686,1.8624,1.8513,1.8318,1.8122,1.8016,1.7905,1.7793,1.7687,1.7793,1.7799,1.7905,1.7905,1.7799,1.7911,1.7799,1.7483,1.7173,1.6743,1.6113,4.7551,4.7258,4.7088,4.6778,4.6381,4.6137,4.5632,4.5069,4.4827,4.4698,4.4626,4.4643,4.4508,4.4347,4.4188,4.3923,4.3611,4.3251,4.2929,4.2571,4.2141,4.1817,4.1538,4.0867,4.0539,4.0455,3.9965,4.0009,4.0299,3.9616,3.923,3.908,3.8556,3.7943,3.733,3.7413,3.7323,3.7,3.706,3.6895,3.6386,3.6552,3.6356,3.5752,3.523,3.482,3.4666,3.391,3.314,3.2397,3.2591,3.2418,3.1826,3.1679,3.1381,3.0922,3.056,3.0434,3.0597,3.0053,2.9451,2.9003,2.8518,2.762,2.6132,2.5492,2.4904,2.4185,2.4013,2.3618,2.2829,2.262,2.2328,2.164,2.1436,2.1203,2.0907,2.0744,2.049,2.0451,2.0044,1.9962,2.0182,2.0104,2.0181,2.0655,2.0736,2.0998,2.1086,2.0704,2.0186,2.0233,2.0223,2.0151,1.9849,1.9657,1.9361,1.9168,1.8945,1.8624,1.8429,1.8318,1.8325,1.8318,1.8318,1.822,1.8122,1.822,1.801,1.7799,1.7582,1.7378,1.6842,1.6092,1.5476,4.7908,4.7425,4.7249,4.7007,4.6684,4.6235,4.5684,4.5123,4.4981,4.4797,4.4626,4.457,4.453,4.4468,4.4172,4.3981,4.373,4.3432,4.3068,4.2775,4.2461,4.2125,4.1851,4.1323,4.0919,4.0677,4.0699,4.0679,4.0734,4.0648,4.0634,4.0472,4.0172,3.9694,3.9065,3.8859,3.8695,3.8497,3.7997,3.7509,3.6995,3.7075,3.6955,3.6625,3.6024,3.5614,3.5519,3.4649,3.3877,3.3318,3.331,3.3079,3.2522,3.2484,3.2358,3.2035,3.1893,3.179,3.1965,3.0968,3.015,2.9628,2.8906,2.8116,2.7102,2.6371,2.5705,2.5124,2.4672,2.4074,2.3634,2.3191,2.2794,2.2362,2.2008,2.1741,2.1553,2.1374,2.1203,2.1068,2.0861,2.0741,2.0844,2.0841,2.0878,2.1337,2.1528,2.1745,2.1895,2.1593,2.1216,2.0963,2.0712,2.0506,2.0277,2.0071,1.9776,1.9583,1.9361,1.9153,1.8952,1.8855,1.8855,1.8848,1.8757,1.8646,1.845,1.822,1.7793,1.7483,1.706,1.6636,1.5885,1.503,1.4347,4.8464,4.7782,4.7435,4.7143,4.6824,4.6235,4.5684,4.5177,4.5032,4.4831,4.457,4.4514,4.4514,4.4474,4.4172,4.3923,4.3713,4.3492,4.3267,4.3023,4.2759,4.2508,4.219,4.1851,4.1456,4.1081,4.1411,4.1388,4.1167,4.1489,4.1596,4.146,4.1384,4.113,4.0621,4.01,3.9832,3.9856,3.9204,3.8426,3.7665,3.7619,3.7569,3.7306,3.6737,3.6333,3.6168,3.5371,3.4698,3.4268,3.4058,3.3676,3.3149,3.3275,3.3294,3.3063,3.3028,3.2949,3.2817,3.1667,3.0729,3.0196,2.9212,2.8498,2.803,2.7279,2.6603,2.5946,2.5285,2.47,2.4241,2.382,2.3319,2.2979,2.2627,2.2362,2.2274,2.2097,2.183,2.167,2.1482,2.1399,2.1406,2.1497,2.1539,2.181,2.2063,2.2215,2.2232,2.2131,2.181,2.1497,2.0995,2.0704,2.0577,2.038,2.0086,1.9783,1.968,1.9576,1.939,1.9323,1.9389,1.9313,1.9175,1.9021,1.8773,1.8167,1.7503,1.6977,1.6392,1.5678,1.4713,1.3851,1.3202,4.879,4.8486,4.7687,4.6989,4.6429,4.6137,4.5701,4.523,4.5086,4.4703,4.4344,4.431,4.4229,4.4106,4.3973,4.3822,4.3628,4.3449,4.3388,4.3328,4.3023,4.2775,4.2571,4.2254,4.1835,4.1566,4.1735,4.194,4.201,4.1835,4.1626,4.146,4.1384,4.1384,4.128,4.125,4.1205,4.1204,4.1114,4.0172,3.8426,3.8326,3.7963,3.7159,3.7045,3.6792,3.6399,3.6028,3.5626,3.5043,3.4836,3.4416,3.3865,3.3834,3.3688,3.3357,3.3105,3.2821,3.2445,3.1679,3.1004,3.0532,2.9754,2.904,2.8522,2.7891,2.7139,2.6351,2.5968,2.5391,2.4625,2.4358,2.4024,2.3503,2.3329,2.3251,2.2794,2.2715,2.252,2.212,2.1802,2.178,2.194,2.1864,2.1996,2.2389,2.2484,2.2443,2.2443,2.203,2.1733,2.164,2.1334,2.1121,2.0917,2.0617,2.03,2.0078,1.9879,1.9576,1.9413,1.9484,1.9696,1.9233,1.9406,1.9189,1.8537,1.7978,1.7213,1.6229,1.5479,1.4713,1.3527,1.2767,1.255,4.972,4.8808,4.8253,4.7418,4.6578,4.6235,4.5854,4.5283,4.4978,4.4665,4.4327,4.4155,4.4089,4.4081,4.3973,4.3839,4.3763,4.3568,4.3509,4.3509,4.3328,4.3129,4.3039,4.3087,4.2848,4.255,4.3035,4.3242,4.3024,4.2879,4.2769,4.2536,4.2536,4.2342,4.1998,4.1863,4.1622,4.1383,4.1611,4.122,4.0278,3.9738,3.9376,3.8867,3.8352,3.7856,3.7418,3.6989,3.6524,3.6081,3.5604,3.5189,3.4821,3.4606,3.4366,3.4199,3.3988,3.3604,3.3225,3.259,3.1958,3.1397,3.0245,2.9432,2.9024,2.8298,2.7602,2.6869,2.6218,2.5633,2.502,2.469,2.4368,2.3937,2.3764,2.358,2.3406,2.3232,2.3038,2.2551,2.2325,2.2133,2.2164,2.2195,2.2386,2.2619,2.2653,2.2653,2.2544,2.2131,2.1733,2.1648,2.1334,2.1019,2.0925,2.0719,2.0403,2.0086,1.9879,1.9576,1.9398,1.9352,1.9364,1.9077,1.9135,1.8884,1.7996,1.7386,1.6696,1.5596,1.4402,1.3527,1.2772,1.2223,1.1896,5.0633,4.9521,4.8812,4.7768,4.659,4.6332,4.5887,4.5389,4.4995,4.4609,4.4253,4.3981,4.3914,4.3914,4.3839,4.3822,4.3822,4.3687,4.3645,4.3568,4.3492,4.3548,4.3718,4.3823,4.38,4.373,4.431,4.4366,4.3864,4.3714,4.3596,4.3329,4.3344,4.3105,4.2671,4.2428,4.2201,4.1993,4.2196,4.2196,4.1829,4.131,4.0741,4.0307,3.9653,3.9029,3.8326,3.7776,3.7225,3.6615,3.5951,3.5575,3.5344,3.5006,3.4772,3.4669,3.4463,3.4147,3.3797,3.32,3.2631,3.2056,3.0922,3.0052,2.9715,2.9068,2.8435,2.7743,2.6911,2.6223,2.5369,2.4946,2.4625,2.4292,2.411,2.3927,2.3841,2.3747,2.3535,2.294,2.2725,2.2535,2.2309,2.2382,2.2636,2.2644,2.2653,2.2653,2.2544,2.2139,2.1733,2.164,2.1232,2.0925,2.0917,2.0609,2.03,2.0086,1.9887,1.9472,1.9405,1.933,1.9313,1.9063,1.8759,1.839,1.7813,1.7117,1.6102,1.4808,1.3748,1.2881,1.2441,1.2001,1.1564,5.123,5.0896,4.9226,4.7768,4.659,4.6332,4.5887,4.5389,4.4995,4.4553,4.4097,4.3939,4.3839,4.3628,4.3645,4.3645,4.3628,4.3628,4.3645,4.3645,4.3585,4.3889,4.441,4.4476,4.454,4.4689,4.5042,4.4937,4.4251,4.3879,4.3596,4.3344,4.3329,4.3314,4.324,4.321,4.3175,4.3056,4.312,4.3195,4.3086,4.2585,4.1789,4.0938,4.0746,4.0008,3.8753,3.8088,3.7452,3.6512,3.5831,3.5318,3.5154,3.491,3.465,3.4397,3.4243,3.4076,3.3927,3.3155,3.2612,3.2427,3.1795,3.1116,3.0692,3.0319,2.9739,2.9048,2.8057,2.6965,2.5817,2.5275,2.4977,2.4592,2.4485,2.4227,2.3891,2.4205,2.3978,2.3301,2.3053,2.2797,2.2335,2.2492,2.2535,2.2544,2.2552,2.2552,2.2443,2.2038,2.1725,2.1623,2.1224,2.0925,2.0822,2.0506,2.0189,1.9983,1.9783,1.9376,1.9389,1.9491,1.9283,1.9192,1.9027,1.8577,1.7754,1.6673,1.5545,1.4391,1.3661,1.2886,1.2441,1.211,1.1782,5.1827,5.019,4.9019,4.7768,4.6607,4.6284,4.5905,4.5389,4.4852,4.4423,4.4097,4.3805,4.3687,4.3645,4.3645,4.3645,4.3645,4.3645,4.3645,4.3678,4.4092,4.444,4.4693,4.5428,4.5749,4.57,4.5805,4.5419,4.4541,4.405,4.3754,4.3581,4.3344,4.3344,4.3344,4.3344,4.3344,4.3344,4.3344,4.3344,4.3329,4.3051,4.2718,4.2204,4.1263,4.0266,3.9233,3.8357,3.7648,3.6971,3.5873,3.5154,3.5072,3.4716,3.4481,3.4237,3.4115,3.3992,3.3628,3.3293,3.3022,3.2899,3.2323,3.176,3.1267,3.0774,3.0086,2.938,2.866,2.7767,2.6965,2.5958,2.5168,2.501,2.481,2.4727,2.4814,2.4646,2.4144,2.3444,2.285,2.2235,2.2121,2.2038,2.203,2.2038,2.203,2.2021,2.203,2.1827,2.1599,2.1514,2.1326,2.1121,2.0925,2.0506,2.0086,1.9983,1.968,1.948,1.9345,1.936,1.923,1.9048,1.9028,1.8628,1.7652,1.6646,1.536,1.4593,1.3749,1.3315,1.2659,1.255,1.2219,5.2098,5.0199,4.9225,4.8207,4.7009,4.6438,4.5887,4.5336,4.478,4.4367,4.4039,4.3747,4.3645,4.3678,4.386,4.3959,4.3959,4.3992,4.4092,4.4357,4.4821,4.5168,4.5533,4.6284,4.6618,4.655,4.6287,4.5728,4.4874,4.4343,4.4065,4.369,4.3503,4.3409,4.3344,4.3344,4.3344,4.3344,4.3344,4.3344,4.3344,4.3344,4.325,4.2877,4.1991,4.0944,3.9972,3.906,3.8154,3.7537,3.6169,3.5272,3.4865,3.4494,3.4212,3.4108,3.3972,3.3738,3.3484,3.3326,3.324,3.3154,3.2742,3.2334,3.1896,3.1369,3.0749,3.0016,2.9226,2.8561,2.7774,2.6583,2.5633,2.5565,2.5262,2.5106,2.531,2.4921,2.433,2.3493,2.2698,2.2114,2.1868,2.1733,2.1725,2.1725,2.1634,2.1552,2.1552,2.1451,2.135,2.1156,2.1159,2.1003,2.0909,2.0593,2.0181,2.0078,1.9776,1.9583,1.9383,1.9376,1.9272,1.8966,1.8653,1.8227,1.7483,1.6524,1.566,1.4937,1.4424,1.3959,1.3527,1.2985,1.2767,5.1981,5.0958,5.0081,4.9023,4.7826,4.6786,4.5939,4.5389,4.478,4.4406,4.4097,4.3747,4.3678,4.381,4.4324,4.4655,4.4804,4.4821,4.5069,4.5566,4.5748,4.6146,4.6709,4.6908,4.7144,4.7272,4.6545,4.5832,4.5173,4.4799,4.4281,4.3847,4.369,4.3518,4.3344,4.3344,4.3344,4.3344,4.3344,4.3344,4.3344,4.3344,4.325,4.2996,4.2731,4.2034,4.0862,4.012,3.9215,3.82,3.6777,3.5504,3.4695,3.4308,3.4082,3.4036,3.3717,3.3411,3.3398,3.324,3.3167,3.3068,3.3043,3.2809,3.2352,3.224,3.1782,3.0849,3.0021,2.9223,2.8381,2.7377,2.6525,2.6267,2.5815,2.5391,2.5339,2.5115,2.4535,2.3476,2.2713,2.2232,2.1885,2.164,2.1522,2.1574,2.1361,2.1155,2.1172,2.1072,2.0915,2.0872,2.1107,2.1224,2.1011,2.0688,2.0483,2.0181,1.9983,1.968,1.9583,1.948,1.948,1.9272,1.9175,1.875,1.7905,1.6948,1.6311,1.5648,1.5143,1.4815,1.4277,1.3846,1.3527,5.1963,5.1084,5.0674,4.9607,4.8117,4.7413,4.663,4.5649,4.5052,4.4631,4.4253,4.3939,4.4012,4.4307,4.4605,4.5235,4.6162,4.6195,4.6079,4.5947,4.6328,4.6676,4.6957,4.7421,4.7507,4.7218,4.6738,4.6191,4.563,4.5024,4.4587,4.4127,4.3832,4.3596,4.3344,4.3344,4.3344,4.3344,4.3344,4.3344,4.3344,4.3344,4.325,4.317,4.285,4.2312,4.1633,4.0501,3.9536,3.8808,3.7371,3.6106,3.5205,3.4782,3.4347,3.3871,3.3573,3.3313,3.324,3.3154,3.3081,3.3081,3.3081,3.2909,3.2487,3.24,3.1952,3.1104,3.0385,2.9723,2.9079,2.8179,2.7321,2.6873,2.6177,2.5845,2.5764,2.5035,2.4021,2.3138,2.2443,2.1849,2.1493,2.135,2.1224,2.1191,2.0909,2.0692,2.0684,2.0883,2.0982,2.0816,2.1208,2.153,2.142,2.1302,2.1191,2.079,2.049,2.0086,1.9887,1.9783,1.9783,1.968,1.9583,1.9168,1.8318,1.7687,1.7153,1.6624,1.6199,1.5773,1.5137,1.4708,1.4493,5.2426,5.161,5.1164,5.0114,4.8633,4.7984,4.6973,4.5855,4.523,4.4742,4.4344,4.4282,4.4378,4.4738,4.5251,4.6013,4.6891,4.7173,4.7057,4.6709,4.704,4.7305,4.7355,4.7671,4.7721,4.7319,4.6892,4.6404,4.5936,4.5395,4.4858,4.4435,4.3988,4.366,4.3423,4.3344,4.3344,4.3344,4.3344,4.3344,4.3344,4.3344,4.3344,4.3265,4.293,4.2496,4.1961,4.08,3.9942,3.9274,3.8,3.6624,3.5594,3.507,3.4536,3.3973,3.3538,3.324,3.3068,3.3081,3.3081,3.3081,3.3081,3.2909,3.2475,3.24,3.1952,3.1128,3.0522,2.9986,2.942,2.8542,2.7859,2.7429,2.6546,2.6109,2.5858,2.4827,2.3737,2.2946,2.213,2.1628,2.1178,2.1043,2.0925,2.0869,2.0615,2.0392,2.0492,2.0783,2.0883,2.1064,2.1535,2.1676,2.1818,2.1912,2.1895,2.1497,2.1105,2.0704,2.0403,2.0403,2.0395,2.0292,2.0197,1.9879,1.9138,1.8945,1.852,1.7996,1.7252,1.6723,1.6193,1.5879,1.5559,5.3207,5.2426,5.1527,5.0584,4.9525,4.8484,4.7371,4.6064,4.5507,4.5086,4.4737,4.4942,4.5003,4.5213,4.6179,4.6808,4.709,4.7603,4.7868,4.7819,4.7901,4.7885,4.7901,4.782,4.7654,4.747,4.7098,4.6684,4.6191,4.576,4.5247,4.4648,4.4281,4.391,4.3675,4.3423,4.3314,4.3329,4.3344,4.3344,4.3344,4.3344,4.3265,4.325,4.293,4.243,4.1908,4.0944,4.0287,3.9766,3.8408,3.7138,3.6035,3.5081,3.4667,3.4216,3.3528,3.3242,3.3106,3.3081,3.3081,3.3081,3.3081,3.2909,3.2487,3.2276,3.1916,3.1056,3.042,2.9986,2.9409,2.8553,2.7987,2.7799,2.6979,2.6071,2.5099,2.4426,2.3628,2.2719,2.2003,2.1534,2.1043,2.0925,2.0925,2.0861,2.0623,2.0532,2.0492,2.0783,2.0883,2.1229,2.1837,2.2274,2.2535,2.2584,2.2676,2.2619,2.2224,2.1717,2.1216,2.1113,2.1113,2.1011,2.0909,2.0593,2.0174,1.9975,1.9465,1.8833,1.8304,1.7786,1.7364,1.6942,1.6524,5.3222,5.248,5.2123,5.1423,5.0515,4.9893,4.8915,4.7787,4.719,4.6532,4.6227,4.5982,4.6029,4.6328,4.6692,4.7189,4.7636,4.7901,4.8001,4.8001,4.8001,4.8001,4.8001,4.7935,4.7803,4.7604,4.7403,4.7115,4.6684,4.6191,4.5614,4.5024,4.4587,4.422,4.3754,4.3412,4.3334,4.3329,4.3344,4.3374,4.3389,4.3389,4.325,4.3076,4.2864,4.2377,4.1757,4.056,3.9618,3.9038,3.8442,3.7546,3.6522,3.5965,3.534,3.441,3.3908,3.347,3.3181,3.3081,3.3081,3.3081,3.2909,3.2723,3.2388,3.2091,3.152,3.0844,3.026,2.9676,2.9036,2.8365,2.7831,2.7262,2.6784,2.611,2.5304,2.4534,2.3709,2.2719,2.2113,2.1509,2.1154,2.0925,2.0917,2.0861,2.0865,2.0732,2.0856,2.1147,2.1379,2.181,2.2361,2.2833,2.3229,2.3276,2.3466,2.3719,2.3429,2.3029,2.2526,2.2123,2.2123,2.2021,2.1827,2.1514,2.1208,2.0901,2.0285,1.9768,1.9257,1.884,1.8318,1.7799,1.7378,5.3512,5.2498,5.2358,5.1748,5.0904,5.0513,4.9584,4.8574,4.7922,4.7347,4.6895,4.678,4.6808,4.6891,4.7222,4.757,4.7968,4.8001,4.8001,4.8001,4.8001,4.8001,4.8001,4.8001,4.7869,4.7737,4.762,4.7319,4.6892,4.6404,4.5905,4.541,4.4889,4.4358,4.3972,4.3554,4.3438,4.3688,4.3823,4.3928,4.4137,4.4152,4.4005,4.3768,4.3278,4.2519,4.1227,3.9954,3.91,3.8666,3.8302,3.7781,3.6921,3.6451,3.578,3.4663,3.4058,3.3558,3.3196,3.2972,3.2822,3.2822,3.2649,3.2463,3.2264,3.1879,3.1384,3.0714,3.0114,2.9431,2.886,2.8188,2.7641,2.7177,2.6699,2.6207,2.5518,2.4749,2.3845,2.3029,2.2401,2.1832,2.1342,2.1224,2.1216,2.1191,2.129,2.1176,2.1244,2.1712,2.2102,2.2451,2.2982,2.3448,2.3926,2.4079,2.4168,2.4421,2.4332,2.4026,2.3529,2.3029,2.2937,2.2837,2.2736,2.2535,2.2224,2.1818,2.1412,2.0901,2.03,1.9791,1.916,1.8639,1.822,5.3987,5.2498,5.2358,5.1802,5.1048,5.062,4.9884,4.8837,4.8303,4.7706,4.7319,4.7385,4.7358,4.7057,4.7653,4.7984,4.8001,4.8001,4.8117,4.8166,4.8233,4.8282,4.8481,4.8315,4.8266,4.8199,4.7968,4.7746,4.7464,4.7001,4.6462,4.6129,4.5472,4.4849,4.4601,4.3998,4.3893,4.4317,4.4668,4.4847,4.5005,4.505,4.487,4.4576,4.3749,4.2537,4.1036,3.9803,3.9087,3.8709,3.8368,3.7769,3.7129,3.6595,3.5936,3.5248,3.4341,3.369,3.3227,3.2832,3.2462,3.2512,3.2388,3.2213,3.2001,3.1692,3.1245,3.047,2.9894,2.9239,2.8567,2.7988,2.7557,2.7272,2.6784,2.6294,2.5781,2.5051,2.4159,2.3429,2.2924,2.2317,2.1962,2.1827,2.1818,2.1818,2.1845,2.1921,2.1988,2.2381,2.2698,2.3041,2.3574,2.4196,2.451,2.4796,2.4903,2.502,2.502,2.4726,2.4233,2.3836,2.3646,2.3546,2.3538,2.3329,2.3029,2.2719,2.2325,2.1717,2.1113,2.0506,1.999,1.9368,1.8952,5.3947,5.2498,5.2358,5.2108,5.1802,5.139,5.0857,5.0223,4.9617,4.8956,4.8589,4.8291,4.8042,4.7736,4.7918,4.8001,4.8017,4.8067,4.8299,4.8862,4.8879,4.9243,4.9458,4.9193,4.9144,4.9409,4.9436,4.9276,4.892,4.8479,4.8184,4.7548,4.6881,4.6532,4.5813,4.5031,4.4794,4.5147,4.5485,4.5545,4.5379,4.5409,4.5242,4.4678,4.3834,4.2834,4.1923,4.1041,4.0183,3.9295,3.832,3.7559,3.7114,3.6777,3.6168,3.5445,3.4965,3.4346,3.3486,3.3125,3.283,3.2411,3.2198,3.2025,3.1737,3.1428,3.0879,3.0111,2.9483,2.9012,2.8221,2.7694,2.7494,2.7324,2.7006,2.6699,2.6177,2.5286,2.4417,2.3719,2.3191,2.2705,2.2434,2.2325,2.2325,2.2325,2.2426,2.2627,2.2828,2.302,2.3429,2.3737,2.4134,2.4627,2.5109,2.5392,2.5401,2.5509,2.5411,2.5323,2.4833,2.4538,2.4341,2.4341,2.4332,2.4125,2.3728,2.332,2.292,2.2325,2.1725,2.1121,2.0506,1.999,1.9472,5.3573,5.2423,5.2264,5.212,5.1858,5.1505,5.107,5.0657,5.004,4.953,4.8984,4.8673,4.8308,4.8001,4.8001,4.8001,4.81,4.8398,4.8928,4.9491,4.9657,5.0021,5.0551,5.0336,5.022,5.0253,5.0083,4.9953,4.9703,4.9408,4.8877,4.8445,4.7861,4.7123,4.6588,4.5875,4.5716,4.5845,4.607,4.6122,4.6202,4.6232,4.5654,4.4776,4.3844,4.297,4.2001,4.1148,4.0267,3.9362,3.8356,3.7552,3.715,3.6841,3.6218,3.5581,3.5067,3.4637,3.3771,3.3326,3.2998,3.2475,3.2236,3.1877,3.1579,3.1258,3.0932,3.0385,2.99,2.9417,2.8593,2.804,2.7892,2.7712,2.729,2.6815,2.64,2.5635,2.4818,2.4223,2.3755,2.3356,2.3038,2.302,2.2929,2.2937,2.2937,2.3138,2.3329,2.3628,2.4035,2.4341,2.4637,2.5128,2.5606,2.5897,2.5897,2.581,2.5713,2.5625,2.5333,2.5137,2.5039,2.4941,2.4735,2.4538,2.4233,2.3827,2.3429,2.2937,2.2342,2.1632,2.0917,2.0292,1.9887,5.3128,5.2329,5.215,5.1956,5.164,5.1264,5.1015,5.0701,5.0097,4.9829,4.9306,4.8862,4.8575,4.8314,4.805,4.805,4.8382,4.8978,4.9674,5.0286,5.0369,5.08,5.1264,5.1347,5.1164,5.0578,5.0677,5.057,5.0326,4.9883,4.9758,4.9126,4.8346,4.7981,4.7307,4.6701,4.6516,4.6719,4.6556,4.6681,4.7055,4.713,4.6429,4.5229,4.431,4.3322,4.2357,4.1382,4.0414,3.9374,3.8623,3.7856,3.7232,3.6798,3.6433,3.5679,3.5297,3.4719,3.4144,3.3666,3.3176,3.258,3.2416,3.1857,3.1435,3.1293,3.1,3.0617,3.0236,3.0013,2.9533,2.8964,2.8655,2.8452,2.7741,2.7119,2.6693,2.618,2.5509,2.4786,2.4384,2.398,2.38,2.371,2.3628,2.3646,2.3646,2.3637,2.3836,2.4134,2.4538,2.4833,2.5039,2.5323,2.58,2.6091,2.61,2.5907,2.581,2.5625,2.5538,2.5333,2.5039,2.5039,2.4833,2.4735,2.4529,2.4134,2.3737,2.3447,2.2745,2.1827,2.1216,2.0601,2.0189,5.3128,5.2311,5.215,5.1956,5.164,5.1264,5.1187,5.1285,5.0779,5.0707,5.0676,4.9802,4.9339,4.906,4.8315,4.8365,4.9077,4.974,5.0419,5.1015,5.1181,5.1578,5.2075,5.2307,5.2175,5.2092,5.1971,5.1916,5.1586,5.1507,5.0847,5.0655,4.9968,4.9332,4.868,4.8266,4.7578,4.7362,4.7096,4.716,4.7249,4.7207,4.6799,4.5665,4.4852,4.4059,4.3283,4.2493,4.163,4.0549,3.9291,3.8376,3.7505,3.6848,3.6395,3.5974,3.5651,3.5157,3.4447,3.4088,3.3563,3.3017,3.2768,3.2124,3.1517,3.1419,3.1204,3.0566,3.0177,2.9976,2.9586,2.9479,2.9338,2.9112,2.8589,2.7983,2.7534,2.6825,2.6024,2.5285,2.4954,2.472,2.4454,2.4285,2.4304,2.4223,2.4242,2.4341,2.4538,2.4735,2.5039,2.5245,2.544,2.5723,2.6004,2.6197,2.6294,2.5907,2.5713,2.5411,2.5323,2.5128,2.4932,2.4735,2.4735,2.4726,2.4529,2.4233,2.3836,2.3247,2.2636,2.192,2.131,2.0601,2.0189,5.2748,5.2216,5.2054,5.179,5.1525,5.1475,5.1424,5.139,5.1296,5.1242,5.1014,5.0553,5.0206,4.9876,4.951,4.9592,5.0171,5.0535,5.1181,5.1744,5.2208,5.2523,5.2986,5.3251,5.345,5.3483,5.3483,5.293,5.2313,5.1891,5.1647,5.1242,5.0602,4.9963,4.9421,4.8641,4.8218,4.781,4.7467,4.7309,4.7309,4.7207,4.6653,4.6031,4.5307,4.4569,4.3818,4.297,4.1897,4.0696,3.977,3.8666,3.7661,3.7007,3.6563,3.6131,3.5833,3.5522,3.4978,3.4618,3.421,3.3399,3.3209,3.2558,3.1809,3.16,3.1612,3.1364,3.1175,3.1157,3.1096,3.0535,3.0316,3.0065,2.9179,2.8408,2.7841,2.7105,2.6363,2.5703,2.5373,2.5042,2.4818,2.4749,2.4875,2.4903,2.4932,2.5039,2.5137,2.5235,2.5342,2.543,2.5625,2.5616,2.58,2.5897,2.6004,2.5713,2.5411,2.5118,2.4824,2.4529,2.443,2.4233,2.4332,2.4322,2.4322,2.4026,2.3529,2.3138,2.2426,2.1818,2.1216,2.0601,2.0094,5.234,5.2102,5.2005,5.169,5.1405,5.1681,5.1708,5.1561,5.1809,5.1894,5.164,5.1324,5.0994,5.0744,5.0624,5.0822,5.1313,5.1462,5.2092,5.2589,5.3251,5.3616,5.3814,5.4129,5.4378,5.4245,5.4311,5.3848,5.2831,5.2326,5.1884,5.1441,5.0679,5.0058,4.9597,4.8929,4.8416,4.788,4.7553,4.7309,4.7207,4.7019,4.6653,4.621,4.5489,4.4862,4.4129,4.3067,4.2128,4.1044,3.9938,3.8907,3.7691,3.7186,3.6776,3.6181,3.6036,3.5679,3.5391,3.5187,3.4691,3.3874,3.3634,3.2847,3.1961,3.1792,3.1991,3.2273,3.2364,3.2364,3.2141,3.1784,3.1317,3.0887,2.9773,2.8536,2.814,2.7493,2.6547,2.5994,2.5684,2.5373,2.5149,2.5158,2.5206,2.5216,2.5245,2.5235,2.5333,2.5333,2.5528,2.5518,2.5606,2.5596,2.5499,2.5304,2.5314,2.5128,2.4824,2.4421,2.4125,2.3926,2.3827,2.3628,2.3529,2.352,2.3628,2.3628,2.3129,2.2636,2.2131,2.1623,2.1019,2.0506,1.999,5.234,5.2084,5.2084,5.179,5.144,5.1825,5.2039,5.2166,5.2501,5.2915,5.301,5.2353,5.185,5.1596,5.1339,5.1284,5.1661,5.244,5.3053,5.3384,5.403,5.4394,5.4411,5.4444,5.4759,5.4825,5.4725,5.408,5.3443,5.3,5.2384,5.1752,5.1005,5.0324,4.9773,4.914,4.8637,4.7995,4.7553,4.7309,4.7309,4.7019,4.6653,4.621,4.5671,4.5032,4.4317,4.3355,4.2431,4.1855,3.9959,3.8853,3.8228,3.7165,3.6646,3.6345,3.6093,3.5879,3.5596,3.532,3.492,3.429,3.4009,3.3175,3.2218,3.1653,3.1709,3.2061,3.2297,3.2521,3.2622,3.2376,3.214,3.1494,3.0404,2.9588,2.908,2.7355,2.6526,2.6304,2.5907,2.5713,2.5509,2.5616,2.5635,2.5635,2.5635,2.5635,2.5528,2.5528,2.5411,2.5489,2.5304,2.5206,2.5001,2.4913,2.4716,2.4538,2.4242,2.3836,2.3628,2.3429,2.3129,2.3029,2.2828,2.2719,2.2719,2.2627,2.2434,2.2131,2.1623,2.1326,2.1019,2.0403,1.9783,5.234,5.2102,5.2023,5.1958,5.1953,5.2386,5.2625,5.2891,5.3271,5.3477,5.3483,5.3112,5.2741,5.2382,5.2067,5.2142,5.2539,5.3185,5.3682,5.4146,5.4742,5.514,5.5256,5.5537,5.5736,5.5636,5.567,5.5454,5.4543,5.3461,5.2662,5.2359,5.1242,5.0324,4.9899,4.9206,4.8629,4.8095,4.7669,4.7309,4.7294,4.7121,4.6931,4.6403,4.5941,4.5216,4.4397,4.3465,4.2552,4.1822,4.0218,3.8901,3.8104,3.7281,3.6768,3.637,3.632,3.6143,3.5812,3.562,3.5126,3.4555,3.4162,3.3441,3.2451,3.1873,3.1884,3.2218,3.2542,3.2744,3.2835,3.2757,3.2555,3.1973,3.0833,3.0012,2.9102,2.762,2.6476,2.6304,2.612,2.583,2.5732,2.5635,2.5635,2.5635,2.5635,2.5635,2.5538,2.544,2.5401,2.5363,2.4992,2.4726,2.452,2.4223,2.4026,2.3945,2.3646,2.3338,2.3138,2.2929,2.2728,2.2426,2.2224,2.2123,2.192,2.1818,2.1725,2.142,2.1019,2.0712,2.0403,2.0197,1.968,5.234,5.2168,5.222,5.2332,5.2466,5.2997,5.3269,5.3311,5.3751,5.3783,5.3551,5.3332,5.3144,5.2914,5.2715,5.287,5.3384,5.3781,5.4262,5.4891,5.5454,5.5852,5.6001,5.6398,5.6597,5.6697,5.6481,5.6233,5.5468,5.4415,5.3465,5.3121,5.1617,5.0769,5.0073,4.9221,4.8401,4.787,4.7497,4.7309,4.7309,4.7309,4.7033,4.658,4.6121,4.5566,4.4569,4.3737,4.2914,4.2007,4.0369,3.8761,3.7506,3.6947,3.6821,3.6689,3.6618,3.6655,3.6388,3.6084,3.5465,3.4835,3.4064,3.3247,3.2633,3.2205,3.2013,3.232,3.2698,3.2989,3.3158,3.298,3.2655,3.1917,3.0888,3.0067,2.9168,2.7589,2.6486,2.6304,2.612,2.583,2.5732,2.5732,2.5732,2.5732,2.5732,2.5732,2.5635,2.544,2.5314,2.5187,2.4698,2.4359,2.4108,2.38,2.3582,2.3347,2.3147,2.2946,2.2946,2.2636,2.2325,2.2021,2.1827,2.1623,2.1623,2.1318,2.1113,2.0806,2.0498,2.0094,1.9791,1.9576,1.9368,5.2405,5.2318,5.2978,5.2952,5.2519,5.3708,5.3798,5.3494,5.3802,5.38,5.3501,5.3177,5.309,5.2998,5.3302,5.3434,5.3566,5.4875,5.5322,5.5703,5.6216,5.6448,5.6547,5.6597,5.6697,5.6697,5.6697,5.6647,5.6354,5.5353,5.4492,5.3749,5.231,5.1487,5.0529,4.9337,4.8179,4.7684,4.7309,4.7309,4.7309,4.7222,4.7048,4.6683,4.6491,4.6031,4.511,4.4181,4.3369,4.2592,4.0657,3.883,3.7505,3.6989,3.6935,3.713,3.7158,3.7306,3.7317,3.6637,3.5647,3.4762,3.3744,3.2958,3.2555,3.2217,3.2024,3.2082,3.2533,3.2801,3.2958,3.3047,3.2598,3.175,3.068,2.9742,2.875,2.7472,2.6526,2.641,2.612,2.583,2.5732,2.5732,2.5732,2.5732,2.5732,2.5732,2.5538,2.544,2.5137,2.4922,2.443,2.4089,2.3817,2.3489,2.3182,2.3147,2.2946,2.2846,2.2745,2.2434,2.2224,2.2021,2.1928,2.1522,2.1224,2.1121,2.0814,2.0292,1.9983,1.9783,1.948,1.9168,1.8952,5.3128,5.3141,5.4237,5.4166,5.3299,5.4028,5.4266,5.4154,5.4055,5.38,5.3551,5.3528,5.359,5.3649,5.3911,5.4378,5.4792,5.5256,5.5835,5.6233,5.6564,5.668,5.6697,5.6697,5.6697,5.6697,5.6697,5.6697,5.6614,5.5928,5.569,5.4737,5.3213,5.222,5.1174,4.9511,4.8107,4.7482,4.7309,4.7309,4.7309,4.7309,4.7048,4.6683,4.6403,4.5866,4.4954,4.4181,4.3396,4.235,4.0696,3.9197,3.8038,3.7597,3.743,3.7667,3.7717,3.7803,3.7879,3.7319,3.6481,3.5083,3.3865,3.2857,3.2566,3.207,3.1911,3.2013,3.2205,3.2465,3.2645,3.2633,3.2375,3.1362,3.0482,2.9515,2.8431,2.7191,2.6506,2.6274,2.6004,2.5732,2.5732,2.5732,2.5732,2.5732,2.5732,2.5664,2.5654,2.5546,2.528,2.4994,2.4498,2.4053,2.3877,2.334,2.2872,2.2872,2.2981,2.2946,2.2854,2.2644,2.2325,2.2131,2.1928,2.1623,2.1326,2.1027,2.0712,2.0292,1.9879,1.9576,1.9168,1.8855,1.8534,5.3695,5.3873,5.4999,5.499,5.4259,5.4504,5.4633,5.4579,5.4158,5.3954,5.3703,5.3948,5.4104,5.4261,5.4675,5.504,5.5487,5.5868,5.6233,5.6514,5.6663,5.6697,5.6697,5.6697,5.6697,5.6697,5.6697,5.6697,5.6697,5.6307,5.605,5.5406,5.4358,5.3209,5.1769,4.9527,4.7839,4.7456,4.7309,4.7309,4.7309,4.7222,4.7048,4.6594,4.6314,4.5685,4.4862,4.4101,4.3383,4.2377,4.111,3.9818,3.9086,3.8519,3.8218,3.8191,3.8326,3.8336,3.8278,3.7705,3.6897,3.5406,3.4221,3.3275,3.251,3.1924,3.1618,3.1797,3.1911,3.1991,3.2331,3.242,3.1951,3.1031,3.0461,2.9515,2.8143,2.6992,2.6496,2.6127,2.5887,2.5762,2.5859,2.5908,2.6074,2.6143,2.6299,2.6328,2.6248,2.599,2.5637,2.5239,2.4729,2.4298,2.3954,2.3653,2.3463,2.3375,2.334,2.3282,2.3147,2.2846,2.2644,2.2535,2.2232,2.1725,2.1522,2.1428,2.0909,2.0189,1.9887,1.948,1.8848,1.8534,1.8325,5.3896,5.4424,5.5008,5.5133,5.4967,5.5296,5.5199,5.4804,5.4364,5.4194,5.4342,5.4246,5.44,5.4855,5.5331,5.567,5.5852,5.6316,5.663,5.6663,5.6697,5.6697,5.6697,5.6697,5.6697,5.6697,5.6697,5.6697,5.6697,5.6307,5.6165,5.5846,5.489,5.3792,5.2802,4.9726,4.7869,4.7441,4.7354,4.7309,4.7222,4.7063,4.6815,4.6506,4.615,4.5609,4.4769,4.3993,4.3287,4.2595,4.1104,4.0037,3.9373,3.8654,3.8492,3.8851,3.8773,3.9,3.9331,3.8039,3.6758,3.5561,3.4396,3.331,3.2566,3.1812,3.1359,3.156,3.156,3.164,3.1924,3.2072,3.1384,3.0701,3.0143,2.9338,2.7997,2.7181,2.6848,2.6503,2.6005,2.5801,2.5957,2.6123,2.6377,2.6582,2.6816,2.6885,2.6725,2.6396,2.5992,2.568,2.5182,2.4899,2.4548,2.4195,2.4052,2.3852,2.383,2.3788,2.3536,2.3191,2.3081,2.2963,2.2535,2.203,2.1928,2.1827,2.1216,2.0498,1.9887,1.9376,1.8743,1.8325,1.822,5.4496,5.5129,5.5723,5.5771,5.5468,5.5332,5.534,5.5427,5.5377,5.5246,5.5114,5.5286,5.5419,5.5738,5.5978,5.6282,5.6365,5.6432,5.6697,5.6697,5.6697,5.6697,5.6697,5.6697,5.6697,5.6697,5.6697,5.6697,5.6697,5.6307,5.6165,5.5846,5.4966,5.3676,5.2199,5.0079,4.8989,4.8049,4.7575,4.7309,4.7237,4.702,4.6756,4.6314,4.606,4.5427,4.4597,4.3899,4.3273,4.2565,4.1169,4.0411,3.9944,3.9335,3.9207,3.9256,3.9182,3.8642,3.8278,3.7204,3.6488,3.5485,3.433,3.3175,3.242,3.1677,3.137,3.1219,3.1137,3.124,3.123,3.123,3.0794,3.0226,2.9547,2.9026,2.8164,2.7722,2.7292,2.6943,2.6576,2.6516,2.6592,2.6719,2.6924,2.7031,2.7246,2.7148,2.707,2.6788,2.6337,2.6161,2.5825,2.5496,2.5164,2.4981,2.4792,2.4711,2.4588,2.4445,2.4097,2.3696,2.3406,2.3221,2.2831,2.2342,2.23,2.202,2.1444,2.0806,2.03,1.9687,1.9063,1.8639,1.822,5.5008,5.5543,5.5948,5.6056,5.59,5.5739,5.5792,5.593,5.5979,5.5835,5.5782,5.6,5.6204,5.6279,5.6508,5.6697,5.6697,5.6697,5.6697,5.6697,5.6697,5.6697,5.6697,5.6697,5.6697,5.6697,5.6697,5.6697,5.668,5.6307,5.6006,5.5507,5.4899,5.3749,5.2352,5.1287,4.9904,4.8762,4.7767,4.7309,4.7237,4.7005,4.6565,4.6239,4.5776,4.5138,4.4411,4.3642,4.3053,4.2289,4.1498,4.0707,4.0415,4.0006,3.9699,3.9322,3.8718,3.8017,3.728,3.6372,3.567,3.5192,3.3809,3.2881,3.2217,3.1429,3.1154,3.1002,3.0734,3.0745,3.0734,3.0724,3.043,2.9958,2.9544,2.9021,2.8279,2.7814,2.7562,2.7212,2.7122,2.7117,2.7207,2.7393,2.7539,2.7607,2.7676,2.751,2.7383,2.7146,2.692,2.6731,2.6589,2.6324,2.605,2.583,2.5674,2.5477,2.5298,2.4986,2.4624,2.4244,2.3861,2.3533,2.322,2.2911,2.2613,2.2239,2.1788,2.1399,2.0909,2.0197,1.948,1.8848,1.8422,5.5378,5.5671,5.5566,5.5809,5.63,5.6334,5.6344,5.6269,5.6166,5.617,5.6251,5.6285,5.6413,5.6624,5.6697,5.6697,5.6697,5.6697,5.6697,5.6697,5.6697,5.6697,5.6697,5.6697,5.6697,5.6697,5.6697,5.6697,5.6603,5.6307,5.583,5.5262,5.4832,5.4046,5.3168,5.2286,5.0839,4.9309,4.8185,4.786,4.7657,4.7229,4.6828,4.6424,4.5777,4.5075,4.4283,4.3437,4.279,4.198,4.1097,4.0631,4.0338,3.9928,3.9499,3.873,3.7954,3.7169,3.6199,3.5224,3.4614,3.4072,3.3606,3.2721,3.1954,3.1214,3.0927,3.0692,3.0548,3.0652,3.0641,3.0557,3.0358,3.0024,2.9733,2.9075,2.831,2.7903,2.7709,2.7508,2.7307,2.7383,2.7623,2.7868,2.79,2.7969,2.7998,2.7998,2.791,2.7853,2.7612,2.7603,2.7477,2.7289,2.6999,2.657,2.6194,2.587,2.555,2.5267,2.5032,2.4542,2.393,2.3566,2.3642,2.3355,2.2669,2.2501,2.2364,2.1845,2.1035,2.0498,1.9687,1.8945,1.8415,5.4966,5.5301,5.5174,5.5427,5.5911,5.6572,5.685,5.6881,5.7145,5.728,5.6988,5.6971,5.6846,5.668,5.6697,5.6697,5.6697,5.6697,5.6697,5.6697,5.6697,5.6697,5.6697,5.6697,5.6697,5.6697,5.6697,5.6697,5.6619,5.6307,5.583,5.5328,5.4998,5.4497,5.3868,5.3268,5.1782,5.0306,4.9146,4.867,4.8312,4.795,4.7526,4.692,4.6139,4.5369,4.4373,4.3395,4.2676,4.1796,4.0997,4.0415,4.0173,3.9662,3.8953,3.7493,3.6653,3.5813,3.4857,3.417,3.3511,3.2802,3.2383,3.2112,3.1516,3.1041,3.0607,3.0484,3.0329,3.0329,3.0318,3.0255,3.0214,3.0109,2.987,2.9446,2.8715,2.8405,2.8207,2.7865,2.7663,2.7702,2.8025,2.8104,2.8135,2.8242,2.8301,2.8301,2.8291,2.8184,2.8174,2.8038,2.7931,2.7638,2.7431,2.7046,2.6624,2.6344,2.5907,2.5457,2.4881,2.4358,2.3759,2.3547,2.3352,2.2978,2.2545,2.2358,2.2262,2.152,2.0712,2.0403,1.9887,1.9049,1.8415,5.478,5.4896,5.479,5.5081,5.5907,5.7019,5.7454,5.7395,5.7712,5.7662,5.7364,5.7273,5.7046,5.6757,5.6697,5.6697,5.6697,5.6697,5.6697,5.6697,5.6697,5.6697,5.6697,5.6697,5.6697,5.6697,5.6697,5.6697,5.6619,5.6385,5.5974,5.5604,5.5344,5.4832,5.4242,5.3758,5.2905,5.1606,5.0532,4.9809,4.9233,4.8752,4.8116,4.7499,4.6718,4.5743,4.4664,4.3641,4.2668,4.1749,4.0896,4.0287,3.9803,3.9016,3.7925,3.6444,3.5475,3.4726,3.3907,3.3227,3.2555,3.1936,3.1435,3.1219,3.1002,3.0639,3.0453,3.0287,3.0088,2.9994,2.9994,2.9994,2.9994,2.9984,2.9869,2.9754,2.9418,2.9092,2.8774,2.8349,2.8223,2.8203,2.8271,2.8301,2.8301,2.8301,2.8301,2.8301,2.8301,2.8291,2.8184,2.8174,2.8057,2.7745,2.7647,2.7333,2.6853,2.6372,2.5937,2.5424,2.472,2.4124,2.3704,2.3335,2.2889,2.2557,2.2184,2.2193,2.2014,2.1122,2.0197,1.9776,1.9361,1.8736,1.8213,5.4745,5.4465,5.4274,5.4969,5.6097,5.7423,5.7819,5.7662,5.7718,5.7662,5.7306,5.7273,5.7063,5.6697,5.6619,5.6619,5.6619,5.6619,5.668,5.6697,5.6697,5.6697,5.6697,5.6697,5.6697,5.6697,5.6697,5.668,5.6603,5.629,5.6006,5.5782,5.5426,5.4998,5.4528,5.4324,5.3565,5.2529,5.1562,5.0588,4.9645,4.8924,4.8258,4.7669,4.6889,4.6083,4.4816,4.38,4.2805,4.1808,4.0896,4.0185,3.8976,3.7845,3.6597,3.5505,3.4556,3.3772,3.3081,3.2443,3.2013,3.15,3.0859,3.081,3.079,3.0422,3.0172,3.0078,2.9994,2.9994,2.9994,2.9994,2.9994,2.9972,2.9908,2.9635,2.9248,2.9036,2.8601,2.8398,2.8301,2.8301,2.8301,2.8301,2.8301,2.8301,2.8301,2.8301,2.8301,2.8301,2.8291,2.8291,2.8077,2.7853,2.7539,2.7215,2.6772,2.6418,2.5845,2.5278,2.4395,2.3883,2.3536,2.3071,2.2474,2.2198,2.1915,2.1618,2.1077,2.0195,1.9465,1.9049,1.8632,1.8003,1.7793,5.4419,5.4134,5.4529,5.5111,5.5854,5.6752,5.7335,5.7554,5.7514,5.7289,5.7063,5.7063,5.6834,5.6541,5.6529,5.6546,5.6529,5.6744,5.6574,5.6685,5.6779,5.6763,5.6697,5.6697,5.6697,5.6697,5.6697,5.6619,5.6463,5.6165,5.5959,5.5815,5.5555,5.5156,5.474,5.4584,5.4063,5.3071,5.2183,5.1316,5.0406,5.0044,4.9611,4.8632,4.7729,4.6476,4.5159,4.3945,4.2591,4.1302,4.0618,3.9393,3.783,3.6765,3.5675,3.4551,3.3654,3.2891,3.2364,3.19,3.162,3.1336,3.1053,3.1071,3.0912,3.0348,3.0109,3.013,3.0046,3.0056,3.013,3.014,3.0067,3.0075,3.0093,2.9652,2.9212,2.8854,2.8514,2.8398,2.8291,2.8301,2.8301,2.8301,2.8301,2.8301,2.8301,2.8301,2.8301,2.8291,2.8291,2.8184,2.8067,2.7745,2.753,2.6989,2.6445,2.578,2.5212,2.4556,2.3913,2.3344,2.2772,2.2441,2.1994,2.1532,2.0898,2.0478,1.9908,1.9012,1.8311,1.7779,1.7147,1.6511,1.6624,5.4127,5.402,5.4822,5.5294,5.5711,5.6689,5.7161,5.7164,5.7046,5.6834,5.6508,5.6603,5.6541,5.6438,5.6524,5.6688,5.677,5.7099,5.7176,5.7153,5.695,5.6867,5.6862,5.668,5.6619,5.6619,5.6463,5.6323,5.6182,5.6399,5.6303,5.6108,5.5825,5.5617,5.5134,5.4798,5.422,5.3055,5.2347,5.1607,5.0807,5.0417,4.9791,4.8838,4.7687,4.6459,4.5166,4.3795,4.2491,4.1025,4.0045,3.8588,3.724,3.6157,3.5043,3.3843,3.2881,3.2026,3.1684,3.1549,3.1336,3.119,3.127,3.1252,3.1262,3.0857,3.0778,3.0789,3.0967,3.0998,3.0916,3.0842,3.0842,3.0756,3.0826,3.0653,2.9947,2.9287,2.8749,2.8291,2.8301,2.8301,2.8301,2.8301,2.8301,2.8301,2.8301,2.8291,2.8291,2.8184,2.8184,2.8077,2.7745,2.7413,2.698,2.6554,2.5898,2.5229,2.4565,2.3664,2.299,2.2328,2.1888,2.145,2.0962,2.0258,1.9778,1.9304,1.8435,1.7364,1.6849,1.6411,1.5773,1.5238,1.5238,5.3832,5.387,5.4889,5.5407,5.5585,5.6713,5.7089,5.6741,5.6603,5.6261,5.5913,5.617,5.6105,5.635,5.676,5.6956,5.7119,5.7217,5.7396,5.7312,5.7146,5.6813,5.6657,5.6525,5.6463,5.6228,5.607,5.599,5.5846,5.6124,5.6231,5.6473,5.644,5.6383,5.5414,5.4643,5.3917,5.3004,5.2245,5.1408,5.0837,5.0354,4.948,4.8524,4.7373,4.6059,4.4779,4.3493,4.2303,4.1015,3.9584,3.8136,3.6772,3.5662,3.4599,3.3515,3.2505,3.2031,3.1652,3.1591,3.1487,3.1409,3.1506,3.1464,3.1495,3.1652,3.1577,3.1685,3.1853,3.1737,3.1657,3.1667,3.1582,3.1443,3.1535,3.1324,3.0529,2.9625,2.9073,2.8457,2.831,2.831,2.8291,2.8291,2.8291,2.8291,2.8291,2.8291,2.8184,2.8067,2.796,2.7638,2.7305,2.698,2.6654,2.5999,2.534,2.4676,2.4008,2.2869,2.2047,2.1617,2.1082,2.0451,1.9836,1.9264,1.8477,1.7895,1.694,1.6041,1.5476,1.5024,1.4702,1.4169,1.3743,5.3651,5.3568,5.3822,5.4462,5.5312,5.561,5.5962,5.6581,5.6149,5.5929,5.5873,5.5649,5.575,5.615,5.6876,5.7119,5.7058,5.7174,5.7051,5.689,5.671,5.6461,5.6198,5.6132,5.6053,5.5814,5.5669,5.5442,5.5553,5.5718,5.5681,5.5825,5.6009,5.5931,5.5595,5.4785,5.3943,5.2963,5.1698,5.0783,5.0522,5.0028,4.9508,4.8424,4.7172,4.5857,4.4476,4.3291,4.2,4.067,3.9415,3.8012,3.6706,3.5537,3.4601,3.3571,3.2646,3.223,3.2036,3.1945,3.1975,3.2117,3.219,3.2166,3.228,3.2611,3.2647,3.2616,3.2637,3.2242,3.218,3.235,3.235,3.22,3.2089,3.1569,3.0806,3.0073,2.9514,2.8906,2.8564,2.8544,2.8398,2.8291,2.8291,2.8291,2.8184,2.8184,2.796,2.7853,2.7628,2.7295,2.6853,2.6763,2.6545,2.5551,2.4787,2.4119,2.3391,2.2286,2.1504,2.1145,2.0504,1.9745,1.8894,1.8229,1.7463,1.6642,1.5819,1.4979,1.4196,1.364,1.3315,1.3093,1.2767]},{"header":{"parameterUnit":"m.s-1","parameterCategory":1,"la1":31.0,"la2":29.5877,"lo1":-88.7671,"lo2":-86.6584,"dy":0.0162,"dx":0.0185,"nx":115,"ny":88,"refTime":"2023-03-28T18:00:00:Z","depth":0,"parameterNumber":3,"parameterNumberName":"V-component_of_WINDS"},"data":[0.0,0.0,0.0,0.0,0.0,0.0,0.0,0.0,0.0,0.0,0.0,0.0,0.0,0.0,0.0,0.0,0.0,0.0,0.0,0.0,0.0,0.0,0.0,0.0,0.0,0.0,0.0,0.0,0.0,0.0,0.0,0.0,0.0,0.0,0.0,0.0,0.0,0.0,0.0,0.0,0.0,0.0,0.0,0.0,0.0,0.0,0.0,0.0,0.0,0.0,0.0,0.0,0.0,0.0,0.0,0.0,0.0,0.0,0.0,0.0,0.0,0.0,0.0,0.0,0.0,0.0,0.0,0.0,0.0,0.0,0.0,0.0,0.0,0.0,0.0,0.0,0.0,0.0,0.0,0.0,0.0,0.0,0.0,0.0,0.0,0.0,0.0,0.0,0.0,0.0,0.0,0.0,0.0,0.0,0.0,0.0,0.0,0.0,0.0,0.0,0.0,0.0,0.0,0.0,0.0,0.0,0.0,0.0,0.0,0.0,0.0,0.0,0.0,0.0,0.0,0.0,0.0,0.0,0.0,0.0,0.0,0.0,0.0,0.0,0.0,0.0,0.0,0.0,0.0,0.0,0.0,0.0,0.0,0.0,0.0,0.0,0.0,0.0,0.0,0.0,0.0,0.0,0.0,0.0,0.0,0.0,0.0,0.0,0.0,0.0,0.0,0.0,0.0,0.0,0.0,0.0,0.0,0.0,0.0,0.0,0.0,0.0,0.0,0.0,0.0,0.0,0.0,0.0,0.0,0.0,0.0,0.0,0.0,0.0,0.0,0.0,0.0,0.0,0.0,0.0,0.0,0.0,0.0,0.0,0.0,0.0,0.0,0.0,0.0,0.0,0.0,0.0,0.0,0.0,0.0,0.0,0.0,0.0,0.0,0.0,0.0,0.0,0.0,0.0,0.0,0.0,0.0,0.0,0.0,0.0,0.0,0.0,0.0,0.0,0.0,0.0,0.0,0.0,0.0,0.0,0.0,0.0,0.0,0.0,0.0,0.0,0.0,0.0,0.0,0.0,0.0,0.0,0.0,0.0,0.0,0.0,0.0,0.0,0.0,0.0,0.0,0.0,0.0,0.0,0.0,0.0,0.0,0.0,0.0,0.0,0.0,0.0,0.0,0.0,0.0,0.0,0.0,0.0,0.0,0.0,0.0,0.0,0.0,0.0,0.0,0.0,0.0,0.0,0.0,0.0,0.0,0.0,0.0,0.0,0.0,0.0,0.0,0.0,0.0,0.0,0.0,0.0,0.0,0.0,0.0,0.0,0.0,0.0,0.0,0.0,0.0,0.0,0.0,0.0,0.0,0.0,0.0,0.0,0.0,0.0,0.0,0.0,0.0,0.0,0.0,0.0,0.0,0.0,0.0,0.0,0.0,0.0,0.0,0.0,0.0,0.0,0.0,0.0,0.0,0.0,0.0,0.0,0.0,0.0,0.0,0.0,0.0,0.0,0.0,0.0,0.0,0.0,0.0,0.0,0.0,0.0,0.0,0.0,0.0,0.0,0.0,0.0,0.0,0.0,0.0,0.0,0.0,0.0,0.0,0.0,0.0,0.0,0.0,0.0,0.0,0.0,0.0,0.0,0.0,0.0,0.0,0.0,0.0,0.0,0.0,0.0,0.0,0.0,0.0,0.0,0.0,0.0,0.0,0.0,0.0,0.0,0.0,0.0,0.0,0.0,0.0,0.0,0.0,0.0,0.0,0.0,0.0,0.0,0.0,0.0,0.0,0.0,0.0,0.0,0.0,0.0,0.0,0.0,0.0,0.0,0.0,0.0,0.0,0.0,0.0,0.0,0.0,0.0,0.0,0.0,0.0,0.0,0.0,0.0,0.0,0.0,0.0,0.0,0.0,0.0,0.0,0.0,0.0,0.0,0.0,0.0,0.0,0.0,0.0,0.0,0.0,0.0,0.0,0.0,0.0,0.0,0.0,0.0,0.0,0.0,0.0,0.0,0.0,0.0,0.0,0.0,0.0,0.0,0.0,0.0,0.0,0.0,0.0,0.0,0.0,0.0,0.0,0.0,0.0,0.0,0.0,0.0,0.0,0.0,0.0,0.0,0.0,0.0,0.0,0.0,0.0,0.0,0.0,0.0,0.0,0.0,0.0,0.0,0.0,0.0,0.0,0.0,0.0,0.0,0.0,0.0,0.0,0.0,0.0,0.0,0.0,0.0,0.0,0.0,0.0,0.0,0.0,0.0,0.0,0.0,0.0,0.0,0.0,0.0,0.0,0.0,0.0,0.0,0.0,0.0,0.0,0.0,0.0,0.0,0.0,0.0,0.0,0.0,0.0,0.0,0.0,0.0,0.0,0.0,0.0,0.0,0.0,0.0,0.0,0.0,0.0,0.0,0.0,0.0,0.0,0.0,0.0,0.0,0.0,0.0,0.0,0.0,0.0,0.0,0.0,0.0,0.0,0.0,0.0,0.0,0.0,0.0,0.0,0.0,0.0,0.0,0.0,0.0,0.0,0.0,0.0,0.0,0.0,0.0,0.0,0.0,0.0,0.0,0.0,0.0,0.0,0.0,0.0,0.0,0.0,0.0,0.0,0.0,0.0,0.0,0.0,0.0,0.0,0.0,0.0,0.0,0.0,0.0,0.0,0.0,0.0,0.0,0.0,0.0,0.0,0.0,0.0,0.0,0.0,0.0,0.0,0.0,0.0,0.0,0.0,0.0,0.0,0.0,0.0,0.0,0.0,0.0,0.0,0.0,0.0,0.0,0.0,0.0,0.0,0.0,0.0,0.0,0.0,0.0,0.0,0.0,0.0,0.0,0.0,0.0,0.0,0.0,0.0,0.0,0.0,0.0,0.0,0.0,0.0,0.0,0.0,0.0,0.0,0.0,0.0,0.0,0.0,0.0,0.0,0.0,0.0,0.0,0.0,0.0,0.0,0.0,0.0,0.0,0.0,0.0,0.0,0.0,0.0,0.0,0.0,0.0,0.0,0.0,0.0,0.0,0.0,0.0,0.0,0.0,0.0,0.0,0.0,0.0,0.0,0.0,0.0,0.0,0.0,0.0,0.0,0.0,0.0,0.0,0.0,0.0,0.0,0.0,0.0,0.0,0.0,0.0,0.0,0.0,0.0,0.0,0.0,0.0,0.0,0.0,0.0,0.0,0.0,0.0,0.0,0.0,0.0,0.0,0.0,0.0,0.0,0.0,0.0,0.0,0.0,0.0,0.0,0.0,0.0,0.0,0.0,0.0,0.0,0.0,0.0,0.0,0.0,0.0,0.0,0.0,0.0,0.0,0.0,0.0,0.0,0.0,0.0,0.0,0.0,0.0,0.0,0.0,0.0,0.0,0.0,0.0,0.0,0.0,0.0,0.0,0.0,0.0,0.0,0.0,0.0,0.0,0.0,0.0,0.0,0.0,0.0,0.0,0.0,0.0,0.0,0.0,0.0,0.0,0.0,0.0,0.0,0.0,0.0,0.0,0.0,0.0,0.0,0.0,0.0,0.0,0.0,0.0,0.0,0.0,0.0,0.0,0.0,0.0,0.0,0.0,0.0,0.0,0.0,0.0,0.0,0.0,0.0,0.0,0.0,0.0,0.0,0.0,0.0,0.0,0.0,0.0,0.0,0.0,0.0,0.0,0.0,0.0,0.0,0.0,0.0,0.0,0.0,0.0,0.0,0.0,0.0,0.0,0.0,0.0,0.0,0.0,0.0,0.0,0.0,0.0,0.0,0.0,0.0,0.0,0.0,0.0,0.0,0.0,0.0,0.0,0.0,0.0,0.0,0.0,0.0,0.0,0.0,0.0,0.0,0.0,0.0,0.0,0.0,0.0,0.0,0.0,0.0,0.0,0.0,0.0,0.0,0.0,0.0,0.0,0.0,0.0,0.0,0.0,0.0,0.0,0.0,0.0,0.0,0.0,0.0,0.0,0.0,0.0,0.0,0.0,0.0,0.0,0.0,0.0,0.0,0.0,0.0,0.0,0.0,0.0,0.0,0.0,0.0,0.0,0.0,0.0,0.0,0.0,0.0,0.0,0.0,0.0,0.0,0.0,0.0,0.0,0.0,0.0,0.0,0.0,0.0,0.0,0.0,0.0,0.0,0.0,0.0,0.0,0.0,0.0,0.0,0.0,0.0,0.0,0.0,0.0,0.0,0.0,0.0,0.0,0.0,0.0,0.0,0.0,0.0,0.0,0.0,0.0,0.0,0.0,0.0,0.0,0.0,0.0,0.0,0.0,0.0,0.0,0.0,0.0,0.0,0.0,0.0,0.0,0.0,0.0,0.0,0.0,0.0,0.0,0.0,0.0,-0.6865,0.0,0.0,0.0,0.0,0.0,0.0,0.0,0.0,0.0,0.0,0.0,0.0,0.0,0.0,0.0,0.0,0.0,0.0,0.0,0.0,0.0,0.0,0.0,0.0,0.0,0.0,0.0,0.0,0.0,0.0,0.0,0.0,0.0,0.0,0.0,0.0,0.0,0.0,0.0,0.0,0.0,0.0,0.0,0.0,0.0,0.0,0.0,0.0,0.0,0.0,0.0,0.0,0.0,0.0,0.0,0.0,0.0,0.0,0.0,0.0,0.0,0.0,0.0,0.0,0.0,0.0,0.0,0.0,0.0,0.0,0.0,0.0,0.0,0.0,0.0,0.0,0.0,0.0,0.0,0.0,0.0,0.0,0.0,0.0,0.0,0.0,0.0,0.0,0.0,0.0,0.0,0.0,0.0,0.0,0.0,0.0,0.0,0.0,0.0,0.0,0.0,0.0,0.0,0.0,0.0,0.0,0.0,0.0,0.0,0.0,-0.7026,-0.6479,-0.6633,-0.6865,-0.7249,0.0,0.0,0.0,0.0,0.0,0.0,0.0,0.0,0.0,0.0,0.0,0.0,0.0,0.0,0.0,0.0,0.0,0.0,0.0,0.0,0.0,0.0,0.0,0.0,0.0,0.0,0.0,0.0,0.0,0.0,0.0,0.0,0.0,0.0,0.0,0.0,0.0,0.0,0.0,0.0,0.0,0.0,0.0,0.0,0.0,0.0,0.0,0.0,0.0,0.0,0.0,0.0,0.0,0.0,0.0,0.0,0.0,0.0,0.0,0.0,0.0,0.0,0.0,0.0,0.0,0.0,0.0,0.0,0.0,0.0,0.0,0.0,0.0,0.0,0.0,0.0,0.0,0.0,0.0,0.0,0.0,0.0,0.0,0.0,0.0,0.0,0.0,0.0,0.0,0.0,0.0,0.0,0.0,0.0,0.0,0.0,0.0,0.0,0.0,0.0,0.0,0.0,0.0,0.0,0.0,0.0,0.0,0.0,0.0,0.0,0.0,0.0,-0.7247,-0.7439,-0.7791,0.0,0.0,0.0,0.0,0.0,0.0,0.0,0.0,0.0,0.0,0.0,0.0,0.0,0.0,0.0,0.0,0.0,0.0,0.0,0.0,0.0,0.0,0.0,0.0,0.0,0.0,0.0,0.0,0.0,0.0,0.0,0.0,0.0,0.0,0.0,0.0,0.0,0.0,0.0,0.0,0.0,0.0,0.0,0.0,0.0,0.0,0.0,0.0,0.0,0.0,0.0,0.0,0.0,0.0,0.0,0.0,0.0,0.0,0.0,0.0,0.0,0.0,0.0,0.0,0.0,0.0,0.0,0.0,0.0,0.0,0.0,0.0,0.0,0.0,0.0,0.0,0.0,0.0,0.0,0.0,0.0,0.0,0.0,0.0,0.0,0.0,0.0,0.0,0.0,0.0,0.0,0.0,0.0,0.0,0.0,0.0,0.0,0.0,0.0,0.0,0.0,0.0,0.0,0.0,0.0,0.0,0.0,0.0,0.0,0.0,-0.8461,-0.8286,-0.828,0.0,-0.8565,0.0,0.0,0.0,0.0,0.0,0.0,0.0,0.0,0.0,0.0,0.0,0.0,0.0,0.0,0.0,0.0,0.0,0.0,0.0,0.0,0.0,0.0,0.0,0.0,0.0,0.0,0.0,0.0,0.0,0.0,0.0,0.0,0.0,0.0,0.0,0.0,0.0,0.0,0.0,0.0,0.0,0.0,0.0,0.0,0.0,0.0,0.0,0.0,0.0,0.0,0.0,0.0,0.0,0.0,0.0,0.0,0.0,0.0,0.0,0.0,0.0,0.0,0.0,0.0,0.0,0.0,0.0,0.0,0.0,0.0,0.0,0.0,0.0,0.0,0.0,0.0,0.0,0.0,0.0,0.0,0.0,0.0,0.0,0.0,0.0,0.0,0.0,0.0,0.0,0.0,0.0,0.0,0.0,0.0,0.0,0.0,0.0,0.0,0.0,0.0,0.0,0.0,0.0,0.0,0.0,0.0,0.0,0.0,0.0,0.0,-0.9192,-0.8595,-0.8729,-0.8843,0.0,0.0,0.0,0.0,0.0,0.0,0.0,0.0,0.0,0.0,0.0,0.0,0.0,0.0,0.0,0.0,0.0,0.0,0.0,0.0,0.0,0.0,0.0,0.0,0.0,0.0,0.0,0.0,0.0,0.0,0.0,0.0,0.0,0.0,0.0,0.0,0.0,0.0,0.0,0.0,0.0,0.0,0.0,0.0,0.0,0.0,0.0,0.0,0.0,0.0,0.0,0.0,0.0,0.0,0.0,0.0,0.0,0.0,0.0,0.0,0.0,0.0,0.0,0.0,0.0,0.0,0.0,0.0,0.0,0.0,0.0,0.0,0.0,0.0,0.0,0.0,0.0,0.0,0.0,0.0,0.0,0.0,0.0,0.0,0.0,0.0,0.0,0.0,0.0,0.0,0.0,0.0,0.0,0.0,0.0,0.0,0.0,0.0,0.0,0.0,0.0,0.0,0.0,0.0,0.0,0.0,0.0,0.0,0.0,0.0,-0.9746,-0.9673,-0.9087,-0.9138,-0.9331,-0.9571,0.0,0.0,0.0,0.0,0.0,0.0,0.0,0.0,0.0,0.0,0.0,0.0,0.0,0.0,0.0,0.0,0.0,0.0,0.0,0.0,0.0,0.0,0.0,0.0,0.0,0.0,0.0,0.0,0.0,0.0,0.0,0.0,0.0,0.0,0.0,0.0,0.0,0.0,0.0,0.0,0.0,0.0,0.0,0.0,0.0,0.0,0.0,0.0,0.0,0.0,0.0,0.0,0.0,0.0,0.0,0.0,0.0,0.0,0.0,0.0,0.0,0.0,0.0,0.0,0.0,0.0,0.0,0.0,0.0,0.0,0.0,0.0,0.0,0.0,0.0,0.0,0.0,0.0,0.0,0.0,0.0,0.0,0.0,0.0,0.0,0.0,0.0,0.0,0.0,0.0,0.0,0.0,0.0,0.0,0.0,0.0,0.0,0.0,0.0,0.0,0.0,0.0,0.0,0.0,0.0,0.0,0.0,0.0,-0.9559,-0.9823,-1.0,-0.9887,-0.9683,-0.9787,0.0,0.0,0.0,0.0,0.0,0.0,0.0,0.0,0.0,0.0,0.0,0.0,0.0,0.0,0.0,0.0,0.0,0.0,0.0,0.0,0.0,0.0,0.0,0.0,0.0,0.0,0.0,0.0,0.0,0.0,0.0,0.0,0.0,0.0,0.0,0.0,0.0,0.0,0.0,0.0,0.0,0.0,0.0,0.0,0.0,0.0,0.0,0.0,0.0,0.0,0.0,0.0,0.0,0.0,0.0,0.0,0.0,0.0,0.0,0.0,0.0,0.0,0.0,0.0,0.0,0.0,0.0,0.0,0.0,0.0,0.0,0.0,0.0,0.0,0.0,0.0,0.0,0.0,0.0,0.0,0.0,0.0,0.0,0.0,0.0,0.0,0.0,0.0,0.0,0.0,0.0,0.0,0.0,0.0,0.0,0.0,0.0,0.0,0.0,0.0,0.0,0.0,0.0,0.0,0.0,0.0,0.0,0.0,0.0,-0.9838,-1.0086,-1.0105,-0.9986,-1.0187,-1.0359,0.0,0.0,0.0,0.0,0.0,0.0,0.0,0.0,0.0,0.0,0.0,0.0,0.0,0.0,0.0,0.0,0.0,0.0,0.0,0.0,0.0,0.0,0.0,0.0,0.0,0.0,0.0,0.0,0.0,0.0,0.0,0.0,0.0,0.0,0.0,0.0,0.0,0.0,0.0,0.0,0.0,0.0,0.0,0.0,0.0,0.0,0.0,0.0,0.0,0.0,0.0,0.0,0.0,0.0,0.0,0.0,0.0,0.0,0.0,0.0,0.0,0.0,0.0,0.0,0.0,0.0,0.0,0.0,0.0,0.0,0.0,0.0,0.0,0.0,0.0,0.0,0.0,0.0,0.0,0.0,0.0,0.0,0.0,0.0,0.0,0.0,0.0,0.0,0.0,0.0,0.0,0.0,0.0,0.0,0.0,0.0,0.0,0.0,0.0,0.0,0.0,0.0,0.0,0.0,0.0,0.0,0.0,0.0,0.0,-1.0024,0.0,-1.0312,-1.0259,-1.0543,-1.0875,0.0,0.0,0.0,0.0,0.0,0.0,0.0,0.0,0.0,0.0,0.0,0.0,0.0,0.0,0.0,0.0,0.0,0.0,0.0,0.0,0.0,0.0,0.0,0.0,0.0,0.0,0.0,0.0,0.0,0.0,0.0,0.0,0.0,0.0,0.0,0.0,0.0,0.0,0.0,0.0,0.0,0.0,0.0,0.0,0.0,0.0,0.0,0.0,0.0,0.0,0.0,0.0,0.0,0.0,0.0,0.0,0.0,0.0,0.0,0.0,0.0,0.0,0.0,0.0,0.0,0.0,0.0,0.0,0.0,0.0,0.0,0.0,0.0,0.0,0.0,0.0,0.0,0.0,0.0,0.0,0.0,0.0,0.0,0.0,0.0,0.0,0.0,0.0,0.0,0.0,0.0,0.0,0.0,0.0,0.0,0.0,0.0,0.0,0.0,0.0,0.0,0.0,0.0,0.0,0.0,0.0,0.0,0.0,-0.9587,-1.0024,-1.0207,-1.0463,-1.0722,-1.0927,-1.1194,0.0,0.0,0.0,0.0,0.0,0.0,0.0,0.0,0.0,0.0,0.0,0.0,0.0,0.0,0.0,0.0,0.0,0.0,0.0,0.0,0.0,0.0,0.0,0.0,0.0,0.0,0.0,0.0,0.0,0.0,0.0,0.0,0.0,0.0,0.0,0.0,0.0,0.0,0.0,0.0,0.0,0.0,0.0,0.0,0.0,0.0,0.0,0.0,0.0,0.0,0.0,0.0,0.0,0.0,0.0,0.0,0.0,0.0,0.0,0.0,0.0,0.0,0.0,0.0,0.0,0.0,0.0,0.0,0.0,0.0,0.0,0.0,0.0,0.0,0.0,0.0,0.0,0.0,0.0,0.0,0.0,0.0,0.0,0.0,0.0,0.0,0.0,0.0,0.0,0.0,0.0,0.0,0.0,0.0,0.0,0.0,0.0,0.0,0.0,0.0,0.0,0.0,0.0,0.0,0.0,0.0,0.0,0.0,0.0,-1.0028,-1.0381,-1.0641,-1.089,-1.127,-1.1611,0.0,0.0,0.0,0.0,0.0,0.0,0.0,0.0,0.0,0.0,0.0,0.0,0.0,0.0,0.0,0.0,0.0,0.0,0.0,0.0,0.0,0.0,0.0,0.0,0.0,0.0,0.0,0.0,0.0,0.0,0.0,0.0,0.0,0.0,0.0,0.0,0.0,0.0,0.0,0.0,0.0,0.0,0.0,0.0,0.0,0.0,0.0,0.0,0.0,0.0,0.0,0.0,0.0,0.0,0.0,0.0,0.0,0.0,0.0,0.0,0.0,0.0,0.0,0.0,0.0,0.0,0.0,0.0,0.0,0.0,0.0,0.0,0.0,0.0,0.0,0.0,0.0,0.0,0.0,0.0,0.0,0.0,0.0,0.0,0.0,0.0,0.0,0.0,0.0,0.0,0.0,0.0,0.0,0.0,0.0,0.0,0.0,0.0,0.0,0.0,0.0,0.0,0.0,0.0,0.0,0.0,0.0,0.0,0.0,-1.1285,-1.1175,-1.1154,-1.142,-1.1802,-1.2236,-1.2631,0.0,0.0,0.0,0.0,0.0,0.0,0.0,0.0,0.0,0.0,0.0,0.0,0.0,0.0,0.0,0.0,0.0,0.0,0.0,0.0,0.0,0.0,0.0,0.0,0.0,0.0,0.0,0.0,0.0,0.0,0.0,0.0,0.0,0.0,0.0,0.0,0.0,0.0,0.0,0.0,0.0,0.0,0.0,0.0,0.0,0.0,0.0,0.0,0.0,0.0,0.0,0.0,0.0,0.0,0.0,0.0,0.0,0.0,0.0,0.0,0.0,0.0,0.0,0.0,0.0,0.0,0.0,0.0,0.0,0.0,0.0,0.0,0.0,0.0,0.0,0.0,0.0,0.0,0.0,0.0,0.0,0.0,0.0,0.0,0.0,0.0,0.0,0.0,0.0,0.0,0.0,0.0,0.0,0.0,0.0,0.0,0.0,0.0,0.0,0.0,0.0,0.0,0.0,0.0,0.0,0.0,0.0,0.0,-1.3448,-1.2352,-1.1923,-1.2156,-1.2569,-1.2925,0.0,0.0,0.0,0.0,0.0,0.0,0.0,0.0,0.0,0.0,0.0,0.0,0.0,0.0,0.0,0.0,0.0,0.0,0.0,0.0,0.0,0.0,0.0,0.0,0.0,0.0,0.0,0.0,0.0,0.0,0.0,0.0,0.0,0.0,0.0,0.0,0.0,0.0,0.0,0.0,0.0,0.0,0.0,0.0,0.0,0.0,0.0,0.0,0.0,0.0,0.0,0.0,0.0,0.0,0.0,0.0,0.0,0.0,0.0,0.0,0.0,0.0,0.0,0.0,0.0,0.0,0.0,0.0,0.0,0.0,0.0,0.0,0.0,0.0,0.0,0.0,0.0,0.0,0.0,0.0,0.0,0.0,0.0,0.0,0.0,0.0,0.0,0.0,0.0,0.0,0.0,0.0,0.0,0.0,0.0,0.0,0.0,0.0,0.0,0.0,0.0,0.0,0.0,0.0,0.0,0.0,0.0,0.0,0.0,-1.3408,-1.3243,-1.2845,-1.2609,-1.3084,-1.3381,0.0,0.0,0.0,0.0,0.0,0.0,0.0,0.0,0.0,0.0,0.0,0.0,0.0,0.0,0.0,0.0,0.0,0.0,0.0,0.0,0.0,0.0,0.0,0.0,0.0,0.0,0.0,0.0,0.0,0.0,0.0,0.0,0.0,0.0,0.0,0.0,0.0,0.0,0.0,0.0,0.0,0.0,0.0,0.0,0.0,0.0,0.0,0.0,0.0,0.0,0.0,0.0,0.0,0.0,0.0,0.0,0.0,0.0,0.0,0.0,0.0,0.0,0.0,0.0,0.0,0.0,0.0,0.0,0.0,0.0,0.0,0.0,0.0,0.0,0.0,0.0,0.0,0.0,0.0,0.0,0.0,0.0,0.0,0.0,0.0,0.0,0.0,0.0,0.0,0.0,0.0,0.0,0.0,0.0,0.0,0.0,0.0,0.0,0.0,0.0,0.0,0.0,0.0,0.0,0.0,0.0,0.0,0.0,-1.3159,-1.4004,-1.4173,-1.4087,-1.3857,-1.3817,-1.3982,0.0,0.0,0.0,0.0,0.0,0.0,0.0,0.0,0.0,0.0,0.0,0.0,0.0,0.0,0.0,0.0,0.0,0.0,0.0,0.0,0.0,0.0,0.0,0.0,0.0,0.0,0.0,0.0,0.0,0.0,0.0,0.0,0.0,0.0,0.0,0.0,0.0,0.0,0.0,0.0,0.0,0.0,0.0,0.0,0.0,0.0,0.0,0.0,0.0,0.0,0.0,0.0,0.0,0.0,0.0,0.0,0.0,0.0,0.0,0.0,0.0,0.0,0.0,0.0,0.0,0.0,0.0,0.0,0.0,0.0,0.0,0.0,0.0,0.0,0.0,0.0,0.0,0.0,0.0,0.0,0.0,0.0,0.0,0.0,0.0,0.0,0.0,0.0,0.0,0.0,0.0,0.0,0.0,0.0,0.0,0.0,0.0,0.0,0.0,0.0,0.0,0.0,0.0,0.0,0.0,0.0,0.0,0.0,-1.3773,-1.48,-1.5065,-1.5296,-1.5487,-1.4743,-1.4727,0.0,0.0,0.0,0.0,0.0,0.0,0.0,0.0,0.0,0.0,0.0,0.0,0.0,0.0,0.0,0.0,0.0,0.0,0.0,0.0,0.0,0.0,0.0,0.0,0.0,0.0,0.0,0.0,0.0,0.0,0.0,0.0,0.0,0.0,0.0,0.0,0.0,0.0,0.0,0.0,0.0,0.0,0.0,0.0,0.0,0.0,0.0,0.0,0.0,0.0,0.0,0.0,0.0,0.0,0.0,0.0,0.0,0.0,0.0,0.0,0.0,0.0,0.0,0.0,0.0,0.0,0.0,0.0,0.0,0.0,0.0,0.0,0.0,0.0,0.0,0.0,0.0,0.0,0.0,0.0,0.0,0.0,0.0,0.0,0.0,0.0,0.0,0.0,0.0,0.0,0.0,0.0,0.0,0.0,0.0,0.0,0.0,0.0,0.0,0.0,0.0,0.0,0.0,0.0,0.0,0.0,0.0,0.0,-1.452,-1.5561,-1.5636,-1.5884,-1.6084,-1.5879,-1.5795,0.0,0.0,0.0,0.0,0.0,0.0,0.0,0.0,0.0,0.0,0.0,0.0,0.0,0.0,0.0,0.0,0.0,0.0,0.0,0.0,0.0,0.0,0.0,0.0,0.0,0.0,0.0,0.0,0.0,0.0,0.0,0.0,0.0,0.0,0.0,0.0,0.0,0.0,0.0,0.0,0.0,0.0,0.0,0.0,0.0,0.0,0.0,0.0,-2.6973,0.0,0.0,0.0,0.0,0.0,0.0,0.0,0.0,0.0,0.0,0.0,0.0,0.0,0.0,0.0,0.0,0.0,0.0,0.0,0.0,0.0,0.0,0.0,0.0,0.0,0.0,0.0,0.0,0.0,0.0,0.0,0.0,0.0,0.0,0.0,0.0,0.0,0.0,0.0,0.0,0.0,0.0,0.0,0.0,0.0,0.0,0.0,0.0,0.0,0.0,0.0,0.0,0.0,0.0,0.0,0.0,0.0,0.0,0.0,-1.4863,-1.5817,-1.6251,-1.6453,-1.6624,-1.6847,-1.6733,0.0,0.0,0.0,0.0,0.0,0.0,0.0,0.0,0.0,0.0,0.0,0.0,0.0,0.0,0.0,0.0,0.0,0.0,0.0,0.0,0.0,0.0,0.0,0.0,0.0,0.0,0.0,0.0,0.0,0.0,0.0,0.0,0.0,0.0,0.0,0.0,0.0,0.0,0.0,0.0,0.0,0.0,0.0,0.0,0.0,0.0,0.0,0.0,0.0,0.0,0.0,0.0,0.0,0.0,0.0,0.0,0.0,0.0,0.0,0.0,0.0,0.0,0.0,0.0,0.0,0.0,0.0,0.0,0.0,0.0,0.0,0.0,0.0,0.0,0.0,0.0,0.0,0.0,0.0,0.0,0.0,0.0,0.0,0.0,0.0,0.0,0.0,0.0,0.0,0.0,0.0,0.0,0.0,0.0,0.0,0.0,0.0,0.0,0.0,0.0,0.0,0.0,0.0,0.0,0.0,0.0,0.0,-1.4532,-1.512,-1.5987,-1.6756,-1.7124,-1.7054,-1.7599,-1.7591,-1.698,0.0,0.0,0.0,0.0,0.0,0.0,0.0,0.0,0.0,0.0,0.0,0.0,0.0,0.0,0.0,0.0,0.0,0.0,0.0,0.0,0.0,0.0,0.0,0.0,0.0,0.0,0.0,0.0,0.0,0.0,0.0,0.0,0.0,0.0,0.0,0.0,0.0,0.0,-2.6453,-2.7499,0.0,0.0,0.0,0.0,0.0,0.0,0.0,0.0,-2.9637,0.0,0.0,0.0,0.0,0.0,0.0,0.0,0.0,0.0,0.0,0.0,0.0,0.0,0.0,0.0,0.0,0.0,0.0,0.0,0.0,0.0,0.0,0.0,0.0,0.0,0.0,0.0,0.0,0.0,0.0,0.0,0.0,0.0,0.0,0.0,0.0,0.0,0.0,0.0,0.0,0.0,0.0,0.0,0.0,0.0,0.0,0.0,0.0,0.0,0.0,0.0,0.0,0.0,0.0,0.0,0.0,-1.4824,-1.4955,-1.5674,-1.6813,-1.7244,-1.7515,-1.7496,-1.8128,-1.8378,-1.7864,0.0,0.0,0.0,0.0,0.0,0.0,0.0,0.0,0.0,0.0,0.0,0.0,0.0,0.0,0.0,0.0,0.0,0.0,0.0,0.0,0.0,0.0,0.0,0.0,0.0,0.0,0.0,0.0,0.0,0.0,0.0,0.0,0.0,0.0,0.0,0.0,0.0,0.0,0.0,-2.8382,-2.9248,0.0,0.0,0.0,0.0,0.0,0.0,0.0,0.0,-3.1115,0.0,0.0,0.0,0.0,0.0,0.0,0.0,0.0,0.0,0.0,0.0,0.0,0.0,0.0,0.0,0.0,0.0,0.0,0.0,0.0,0.0,0.0,0.0,0.0,0.0,0.0,0.0,0.0,0.0,0.0,0.0,0.0,0.0,0.0,0.0,0.0,0.0,0.0,0.0,0.0,0.0,0.0,0.0,0.0,0.0,0.0,0.0,0.0,0.0,0.0,0.0,0.0,0.0,0.0,0.0,-1.5333,-1.5659,-1.6457,-1.7694,-1.8192,-1.8394,-1.8164,-1.8544,-1.8601,0.0,0.0,0.0,0.0,0.0,0.0,0.0,0.0,0.0,0.0,0.0,0.0,0.0,0.0,0.0,0.0,0.0,0.0,0.0,0.0,0.0,0.0,0.0,0.0,0.0,0.0,0.0,0.0,0.0,0.0,0.0,0.0,0.0,0.0,0.0,0.0,0.0,0.0,0.0,0.0,-2.9988,-3.1089,-3.1397,0.0,0.0,0.0,0.0,0.0,0.0,-3.2787,-3.2541,0.0,0.0,0.0,0.0,0.0,0.0,0.0,0.0,0.0,0.0,0.0,0.0,0.0,0.0,0.0,0.0,0.0,0.0,0.0,0.0,0.0,0.0,0.0,0.0,0.0,0.0,0.0,0.0,0.0,0.0,0.0,0.0,0.0,0.0,0.0,0.0,0.0,0.0,0.0,0.0,0.0,0.0,0.0,0.0,0.0,0.0,0.0,0.0,0.0,0.0,0.0,0.0,0.0,0.0,0.0,-1.5824,-1.6271,-1.7127,-1.839,-1.9182,-1.9306,-1.889,-1.8881,-1.8864,0.0,0.0,0.0,0.0,0.0,0.0,0.0,0.0,0.0,0.0,0.0,0.0,0.0,0.0,0.0,0.0,0.0,0.0,0.0,0.0,0.0,0.0,0.0,0.0,0.0,0.0,0.0,0.0,0.0,0.0,0.0,0.0,0.0,0.0,0.0,0.0,0.0,0.0,0.0,0.0,0.0,-3.2819,-3.3282,-3.3345,0.0,0.0,0.0,0.0,-3.4226,-3.4281,0.0,0.0,0.0,0.0,0.0,0.0,0.0,0.0,0.0,0.0,0.0,0.0,0.0,0.0,0.0,0.0,0.0,0.0,0.0,0.0,0.0,0.0,0.0,0.0,0.0,0.0,0.0,0.0,0.0,0.0,0.0,0.0,0.0,0.0,0.0,0.0,0.0,0.0,0.0,0.0,0.0,0.0,0.0,0.0,0.0,0.0,0.0,0.0,0.0,0.0,0.0,0.0,0.0,0.0,0.0,0.0,-1.6012,-1.6656,-1.7613,-1.8988,-1.9983,-2.009,-1.938,-1.9311,-1.9339,0.0,0.0,0.0,0.0,0.0,0.0,0.0,0.0,0.0,0.0,0.0,0.0,0.0,0.0,0.0,0.0,0.0,0.0,0.0,0.0,0.0,0.0,0.0,0.0,0.0,0.0,0.0,0.0,0.0,0.0,0.0,0.0,0.0,0.0,0.0,0.0,0.0,0.0,0.0,0.0,0.0,-3.3594,-3.3933,-3.4906,-3.5678,0.0,0.0,-3.6085,-3.6409,-3.5989,0.0,0.0,0.0,0.0,0.0,0.0,0.0,0.0,0.0,0.0,0.0,0.0,0.0,0.0,0.0,0.0,0.0,0.0,0.0,0.0,0.0,0.0,0.0,0.0,0.0,0.0,0.0,0.0,0.0,0.0,0.0,0.0,0.0,0.0,0.0,0.0,0.0,0.0,0.0,0.0,0.0,0.0,0.0,0.0,0.0,0.0,0.0,0.0,0.0,0.0,0.0,0.0,0.0,0.0,0.0,-1.6096,-1.6836,-1.7286,-1.8379,-2.0168,-2.1057,-2.1163,-2.0539,-2.0012,-1.9789,0.0,0.0,0.0,0.0,0.0,0.0,0.0,0.0,0.0,0.0,0.0,0.0,0.0,0.0,0.0,0.0,0.0,0.0,0.0,0.0,0.0,0.0,0.0,0.0,0.0,0.0,0.0,0.0,0.0,0.0,0.0,0.0,0.0,0.0,0.0,0.0,0.0,0.0,0.0,0.0,0.0,0.0,-3.5413,-3.6064,0.0,0.0,0.0,-3.7496,-3.7288,0.0,0.0,0.0,0.0,0.0,0.0,0.0,0.0,0.0,0.0,0.0,0.0,0.0,0.0,0.0,0.0,0.0,0.0,0.0,0.0,0.0,0.0,0.0,0.0,0.0,0.0,0.0,0.0,0.0,0.0,0.0,0.0,0.0,0.0,0.0,0.0,0.0,0.0,0.0,0.0,0.0,0.0,0.0,0.0,0.0,0.0,0.0,0.0,0.0,0.0,0.0,0.0,0.0,0.0,0.0,0.0,0.0,-1.7554,-1.7834,-1.9047,-2.123,-2.1968,-2.2073,-2.1683,-2.0674,0.0,0.0,0.0,0.0,0.0,0.0,0.0,0.0,0.0,0.0,0.0,0.0,0.0,0.0,0.0,0.0,0.0,0.0,0.0,0.0,0.0,0.0,0.0,0.0,0.0,0.0,0.0,-2.6794,0.0,0.0,0.0,0.0,0.0,0.0,0.0,0.0,0.0,0.0,0.0,0.0,0.0,0.0,-3.5368,-3.6603,-3.7132,-3.7796,0.0,0.0,-3.879,-3.8164,-3.7537,-3.6713,0.0,0.0,0.0,0.0,0.0,0.0,0.0,0.0,0.0,0.0,0.0,0.0,0.0,0.0,0.0,0.0,0.0,0.0,0.0,0.0,0.0,0.0,0.0,0.0,0.0,0.0,0.0,0.0,0.0,0.0,0.0,0.0,0.0,0.0,0.0,0.0,0.0,0.0,0.0,0.0,0.0,0.0,0.0,0.0,0.0,0.0,0.0,0.0,0.0,0.0,0.0,0.0,0.0,0.0,-1.7252,-1.7959,-1.8292,-1.9534,-2.1674,-2.2482,-2.2673,-2.2425,-2.1119,-2.0717,0.0,0.0,0.0,0.0,0.0,0.0,0.0,0.0,0.0,0.0,0.0,0.0,0.0,0.0,0.0,0.0,0.0,0.0,0.0,0.0,0.0,0.0,0.0,0.0,0.0,0.0,0.0,0.0,0.0,0.0,0.0,0.0,0.0,0.0,0.0,0.0,0.0,0.0,0.0,0.0,0.0,-3.5966,-3.7082,-3.8191,-3.9155,0.0,-4.0612,-4.0605,-3.9447,-3.8302,-3.7425,-3.7044,0.0,0.0,0.0,0.0,0.0,0.0,0.0,0.0,0.0,0.0,0.0,0.0,0.0,0.0,0.0,0.0,0.0,0.0,0.0,0.0,0.0,0.0,0.0,0.0,0.0,0.0,0.0,0.0,0.0,0.0,0.0,0.0,0.0,0.0,0.0,0.0,0.0,0.0,0.0,0.0,0.0,0.0,0.0,0.0,0.0,0.0,0.0,0.0,0.0,0.0,0.0,0.0,0.0,-1.8018,-1.8834,-1.9906,-2.1242,-2.2726,-2.3444,-2.3644,-2.3205,-2.2298,-2.1636,0.0,0.0,0.0,0.0,0.0,0.0,0.0,0.0,0.0,0.0,0.0,0.0,0.0,0.0,0.0,0.0,0.0,0.0,0.0,0.0,0.0,0.0,0.0,0.0,0.0,0.0,0.0,0.0,-2.6846,-2.6884,-2.7026,0.0,0.0,0.0,0.0,0.0,0.0,0.0,0.0,0.0,0.0,-3.6431,-3.76,-3.8678,0.0,0.0,-4.1011,-4.1074,-3.9414,-3.854,-3.7827,-3.7094,-3.6123,0.0,0.0,0.0,0.0,0.0,0.0,0.0,0.0,0.0,0.0,0.0,0.0,0.0,0.0,0.0,0.0,0.0,0.0,0.0,0.0,0.0,0.0,0.0,0.0,0.0,0.0,0.0,0.0,0.0,0.0,0.0,0.0,0.0,0.0,0.0,0.0,0.0,0.0,0.0,0.0,0.0,0.0,0.0,0.0,0.0,0.0,0.0,0.0,0.0,0.0,0.0,0.0,-1.8644,-1.945,-2.1053,-2.2354,-2.3383,-2.3919,-2.4032,-2.3765,-2.3057,-2.2467,0.0,0.0,0.0,0.0,0.0,0.0,0.0,0.0,0.0,0.0,0.0,0.0,0.0,0.0,0.0,0.0,0.0,0.0,0.0,0.0,0.0,0.0,0.0,0.0,0.0,0.0,0.0,0.0,-2.6989,-2.7078,-2.7335,0.0,0.0,0.0,0.0,0.0,0.0,0.0,0.0,0.0,0.0,-3.6992,-3.8108,-3.8968,-3.959,-4.0107,-4.0849,-4.0888,-3.9391,-3.8813,-3.8249,-3.7461,0.0,0.0,0.0,0.0,0.0,0.0,0.0,0.0,0.0,0.0,0.0,0.0,0.0,0.0,0.0,0.0,0.0,0.0,0.0,0.0,0.0,0.0,0.0,0.0,0.0,0.0,0.0,0.0,0.0,0.0,-1.2307,0.0,0.0,0.0,0.0,0.0,0.0,0.0,0.0,0.0,0.0,0.0,0.0,0.0,0.0,0.0,0.0,0.0,0.0,0.0,0.0,0.0,0.0,-1.9084,-1.9854,-2.1259,-2.2485,-2.3644,-2.357,-2.3672,-2.4015,-2.3405,-2.3036,-2.2829,0.0,0.0,0.0,0.0,0.0,0.0,0.0,0.0,0.0,0.0,0.0,0.0,0.0,0.0,0.0,0.0,0.0,0.0,0.0,0.0,0.0,0.0,0.0,0.0,0.0,0.0,-2.7003,-2.7248,-2.7488,0.0,0.0,0.0,0.0,0.0,0.0,0.0,0.0,0.0,-3.4038,-3.5875,-3.7488,-3.8503,-3.8867,-3.9373,-4.0312,-4.0236,-3.9958,-3.9592,-3.914,-3.8729,0.0,0.0,0.0,0.0,0.0,0.0,0.0,0.0,0.0,0.0,0.0,0.0,0.0,0.0,0.0,0.0,0.0,0.0,0.0,0.0,0.0,0.0,0.0,0.0,0.0,0.0,0.0,-1.0379,-1.0778,0.0,0.0,0.0,0.0,0.0,0.0,0.0,0.0,0.0,0.0,0.0,-1.7557,-1.7179,0.0,0.0,0.0,0.0,0.0,0.0,0.0,0.0,0.0,0.0,0.0,0.0,-1.9952,-2.0751,-2.2065,-2.326,-2.4394,-2.4781,-2.4893,-2.4526,-2.4524,-2.3787,-2.2433,0.0,0.0,0.0,0.0,0.0,0.0,0.0,0.0,0.0,0.0,0.0,0.0,0.0,0.0,0.0,0.0,0.0,0.0,0.0,0.0,0.0,0.0,0.0,0.0,0.0,-2.7668,0.0,0.0,0.0,0.0,0.0,0.0,0.0,0.0,0.0,0.0,0.0,-3.3326,-3.3736,-3.5934,-3.7488,-3.7468,-3.8576,-3.9361,0.0,0.0,0.0,0.0,0.0,0.0,0.0,0.0,0.0,0.0,0.0,0.0,0.0,0.0,-3.943,-3.8651,-3.8967,-3.9168,-3.8619,0.0,0.0,0.0,0.0,0.0,0.0,0.0,0.0,0.0,0.0,0.0,0.0,0.0,0.0,-1.1277,0.0,-1.202,0.0,0.0,0.0,0.0,0.0,0.0,0.0,0.0,-1.7479,-1.7971,-1.886,-1.8502,-1.8661,0.0,-1.9936,-1.9599,0.0,0.0,0.0,0.0,0.0,0.0,0.0,0.0,-2.0616,-2.1639,-2.2541,-2.3697,-2.5017,-2.5358,-2.5448,-2.5123,-2.5118,-2.4456,-2.3002,-2.2673,-2.2305,0.0,0.0,0.0,0.0,0.0,0.0,0.0,0.0,0.0,0.0,0.0,0.0,0.0,0.0,0.0,0.0,0.0,0.0,0.0,0.0,0.0,0.0,0.0,-2.8053,0.0,0.0,0.0,0.0,0.0,0.0,0.0,0.0,0.0,-3.1304,-3.3052,-3.4283,-3.425,-3.6394,-3.7819,-3.7446,0.0,0.0,0.0,0.0,0.0,0.0,0.0,-3.9388,-3.9593,-3.9183,-3.9295,-4.0654,-4.1334,-4.1855,-4.2433,0.0,0.0,-4.112,-4.1354,-4.163,-4.1391,-4.1145,-4.0818,-4.0399,-3.9714,-3.9239,0.0,0.0,0.0,0.0,0.0,0.0,0.0,0.0,-1.1947,-1.2447,0.0,-1.306,0.0,0.0,0.0,0.0,0.0,-1.7279,0.0,0.0,-1.8641,-1.9247,-1.9938,-1.9809,-2.0316,-2.132,-2.1461,-2.1433,-2.1181,-1.9596,0.0,0.0,0.0,0.0,0.0,0.0,-2.1167,-2.2486,-2.2775,-2.3716,-2.5462,-2.5371,-2.5482,-2.5782,-2.5269,-2.4764,-2.4444,-2.3825,-2.3177,-2.2488,-2.2491,0.0,0.0,0.0,0.0,0.0,0.0,0.0,0.0,0.0,0.0,0.0,0.0,0.0,0.0,0.0,0.0,0.0,0.0,0.0,0.0,-2.8866,0.0,0.0,0.0,0.0,0.0,0.0,0.0,0.0,0.0,0.0,-3.2105,-3.4217,-3.5753,-3.5508,0.0,0.0,0.0,0.0,-3.8822,-3.891,-3.9036,-3.912,-3.9157,-3.933,-3.9717,-4.0512,0.0,0.0,-4.1773,-4.1959,-4.2576,-4.409,-4.4389,-4.4087,-4.3185,-4.3014,-4.3218,-4.3955,-4.3509,-4.2988,-4.2947,-4.2387,-4.1838,-1.3525,0.0,0.0,0.0,0.0,-1.1607,-1.2023,-1.2293,-1.3326,-1.3893,-1.4071,-1.42,0.0,0.0,0.0,0.0,0.0,0.0,-1.8965,-1.9799,-1.9659,-2.0233,-2.1258,-2.1297,-2.1582,-2.2257,-2.3182,-2.3446,-2.3113,-2.2476,-2.1204,-1.9362,0.0,0.0,0.0,0.0,-2.1991,-2.3328,-2.3641,-2.4566,-2.6225,-2.6256,-2.6295,-2.6661,-2.5999,-2.5238,-2.4571,-2.4281,-2.397,-2.3456,-2.2875,0.0,0.0,0.0,0.0,0.0,0.0,0.0,0.0,0.0,0.0,0.0,0.0,0.0,0.0,0.0,0.0,0.0,0.0,0.0,-3.0768,-3.0361,-2.9847,0.0,0.0,0.0,0.0,0.0,0.0,0.0,0.0,0.0,-3.6687,-3.6366,-3.6074,0.0,0.0,-3.8481,-3.7941,-3.8483,-3.8968,-3.895,-3.9166,0.0,-4.0085,-4.0285,-4.069,-4.1451,-4.2575,-4.3465,-4.369,-4.4721,-4.5659,-4.6165,-4.6221,-4.6285,-4.6574,-4.6053,-4.5711,-4.5898,-4.5749,-4.5618,-4.569,-4.5073,-4.4504,-1.5927,-1.4389,-1.3117,-1.2616,-1.2791,-1.32,-1.3487,-1.3785,-1.4618,-1.514,-1.539,-1.5301,-1.5907,-1.7032,-1.7754,0.0,0.0,0.0,-2.027,-2.1249,-2.1176,-2.1876,-2.3115,-2.3221,-2.3533,-2.4229,-2.4844,-2.499,-2.5,-2.4532,-2.3466,-2.1698,0.0,0.0,-2.1251,-2.1721,-2.2737,-2.4189,-2.4414,-2.5354,-2.7084,-2.7054,-2.703,-2.7123,-2.6319,-2.5622,-2.5089,-2.489,-2.4524,-2.394,-2.352,-2.3218,0.0,0.0,0.0,0.0,0.0,0.0,0.0,0.0,0.0,0.0,0.0,-2.721,-2.7654,0.0,0.0,0.0,-3.0078,-3.1441,-3.1207,-3.1228,0.0,0.0,0.0,0.0,0.0,0.0,0.0,-3.2389,-3.6025,-3.8604,-3.8684,-3.7927,-3.7197,-3.6692,-3.7916,-3.8826,-3.8659,0.0,-3.9666,-3.9981,-4.0188,-4.0476,-4.0943,-4.1135,-4.1635,-4.2798,-4.4083,-4.5115,-4.5491,-4.6373,-4.7087,-4.7387,-4.7481,-4.7744,-4.8551,-4.8178,-4.776,-4.776,-4.7529,-4.7323,-4.7402,-4.6765,-4.6165,-1.8107,-1.7577,-1.594,-1.495,-1.4605,-1.5042,-1.5264,-1.5307,-1.5944,-1.6454,-1.6728,-1.6558,-1.7213,-1.8646,-1.9488,0.0,-2.0202,-2.0829,-2.1729,-2.2704,-2.3114,-2.4033,-2.531,-2.531,-2.5875,-2.6761,-2.6312,-2.6296,-2.6704,-2.6051,-2.551,-2.5039,-2.3164,-2.2428,-2.2855,-2.2819,-2.3572,-2.5021,-2.5115,-2.6065,-2.7895,-2.782,-2.7629,-2.7345,-2.6381,-2.5892,-2.5838,-2.5477,-2.4815,-2.4201,-2.4263,-2.4038,-2.3213,0.0,0.0,0.0,0.0,0.0,0.0,0.0,0.0,0.0,0.0,0.0,0.0,0.0,0.0,0.0,-3.1334,0.0,-3.1528,-3.1759,0.0,0.0,0.0,-3.3347,-3.3881,-3.477,-3.5185,-3.4694,0.0,0.0,-3.8866,-3.9068,-3.8859,-3.7982,-3.8607,-3.9415,-4.0211,-4.0381,-4.0754,-4.1386,-4.1574,-4.1659,-4.1781,-4.2081,-4.281,-4.4233,-4.5293,-4.6175,-4.6869,-4.7188,-4.7507,-4.8145,-4.8307,-4.8502,-4.9327,-4.9265,-4.9308,-4.9334,-4.8802,-4.8277,-4.822,-4.7714,-4.7245,-1.9354,-1.8851,-1.8805,-1.788,-1.649,-1.6532,-1.6707,-1.6829,-1.7372,-1.8056,-1.8776,-1.9257,-2.0492,-2.2149,-2.208,-2.2333,-2.2931,-2.3362,-2.3994,-2.4555,-2.5118,-2.5671,-2.6325,-2.6504,-2.6961,-2.7744,-2.7771,-2.7884,-2.8091,-2.7909,-2.7579,-2.7143,-2.5683,-2.4695,-2.4169,-2.4166,-2.4861,-2.6372,-2.6147,-2.6554,-2.7646,-2.7754,-2.7756,-2.749,-2.6737,-2.6163,-2.5806,-2.5341,-2.4892,-2.4566,-2.426,-2.4209,-2.4504,-2.3167,0.0,0.0,0.0,0.0,0.0,0.0,0.0,0.0,0.0,-2.8305,-2.9241,0.0,-2.9418,0.0,-3.2196,-3.3729,-3.3281,-3.3242,0.0,0.0,-3.3583,-3.4148,-3.5798,-3.6422,-3.6761,-3.6819,-3.9229,-4.0808,-4.0559,-4.063,-4.0627,-4.0419,-4.02,-4.0354,-4.1115,-4.1311,-4.1367,-4.1553,-4.1396,-4.1463,-4.2526,-4.3789,-4.4763,-4.5204,-4.6476,-4.7523,-4.7748,-4.829,-4.8739,-4.8926,-4.8945,-4.9038,-4.9225,-4.9244,-4.9211,-4.9262,-4.9094,-4.8963,-4.8963,-4.884,-4.874,-2.0106,-1.9607,-2.0218,-1.9799,-1.8867,-1.8404,-1.8377,-1.8783,-1.8934,-1.9633,-2.0537,-2.1311,-2.2465,-2.3805,-2.3511,-2.3648,-2.4146,-2.4598,-2.5239,-2.5982,-2.6449,-2.7099,-2.7938,-2.8039,-2.8489,-2.9201,-2.9323,-2.9297,-2.9189,-2.902,-2.868,-2.8282,-2.7322,-2.6494,-2.5812,-2.5191,-2.5489,-2.6773,-2.7368,-2.7773,-2.7992,-2.8048,-2.794,-2.7573,-2.6819,-2.6163,-2.5815,-2.5411,-2.4979,-2.4681,-2.461,-2.4471,-2.4357,-2.3733,-2.373,0.0,0.0,0.0,0.0,0.0,0.0,0.0,0.0,0.0,0.0,0.0,-3.0494,-3.1725,-3.3411,-3.4443,-3.4333,-3.4721,-3.5078,-3.5514,-3.5814,-3.653,-3.7837,-3.8227,-3.8496,-3.879,-4.0185,-4.1411,-4.1912,-4.1482,-4.1203,-4.1599,-4.1433,-4.1447,-4.1878,-4.1989,-4.2119,-4.2471,-4.239,-4.2644,-4.3906,-4.5071,-4.6033,-4.6456,-4.7271,-4.8031,-4.8385,-4.8828,-4.9197,-4.9197,-4.9197,-4.9179,-4.9127,-4.9061,-4.9046,-4.9012,-4.8959,-4.8993,-4.9146,-4.9179,-4.9193,-2.0339,-2.0189,-2.0712,-2.1148,-2.1189,-2.0232,-2.0197,-2.0804,-2.0598,-2.1045,-2.2152,-2.2975,-2.3739,-2.4513,-2.4462,-2.4507,-2.4878,-2.5309,-2.6156,-2.7186,-2.7575,-2.8353,-2.9566,-2.9669,-3.0125,-3.0734,-3.0743,-3.0515,-3.0206,-2.9868,-2.9419,-2.8898,-2.8499,-2.8047,-2.7469,-2.6189,-2.594,-2.6872,-2.8519,-2.9056,-2.868,-2.8445,-2.8101,-2.7638,-2.6702,-2.6018,-2.587,-2.5485,-2.5088,-2.472,-2.4946,-2.4742,-2.3807,-2.4501,-2.5315,0.0,-2.681,0.0,0.0,0.0,0.0,0.0,0.0,0.0,0.0,-3.0615,-3.1396,-3.3914,-3.4803,-3.5169,-3.5112,-3.6125,-3.6966,-3.7435,-3.8434,-3.9153,-3.9611,-3.9878,-4.0149,-4.054,-4.0708,-4.1415,-4.274,-4.1935,-4.146,-4.2245,-4.2479,-4.2656,-4.2846,-4.2875,-4.3092,-4.3845,-4.4066,-4.4469,-4.5549,-4.616,-4.6697,-4.7429,-4.7776,-4.8141,-4.8773,-4.9008,-4.9113,-4.9113,-4.9079,-4.9079,-4.8993,-4.889,-4.8839,-4.8787,-4.8642,-4.8714,-4.8993,-4.9027,-4.9023,-2.034,-2.0181,-2.1113,-2.1684,-2.1879,-2.1855,-2.1733,-2.17,-2.183,-2.2351,-2.324,-2.4322,-2.4918,-2.5121,-2.5777,-2.6139,-2.651,-2.716,-2.7868,-2.8522,-2.9098,-2.9681,-3.0125,-3.0668,-3.1128,-3.1472,-3.1629,-3.165,-3.1573,-3.1459,-3.1016,-3.0227,-2.9741,-2.9189,-2.8612,0.0,0.0,0.0,-2.8876,-2.9234,-2.8814,-2.8575,-2.8322,-2.8044,-2.6898,0.0,-2.6182,-2.5331,-2.4938,-2.4938,-2.5026,0.0,0.0,0.0,0.0,0.0,0.0,0.0,0.0,0.0,0.0,0.0,-3.2422,-3.2611,-3.1987,-3.2214,-3.2945,-3.4309,-3.5992,-3.6754,-3.6214,-3.7178,-3.8066,-3.8493,-3.8877,-3.9431,-4.0257,-4.0613,-4.1087,-4.181,-4.216,-4.2407,-4.2627,-4.2575,-4.2812,-4.3464,-4.3737,-4.4066,-4.4611,-4.4401,-4.434,-4.4542,-4.5038,-4.5974,-4.7297,-4.726,-4.715,-4.7426,-4.8032,-4.8456,-4.8623,-4.8695,-4.8695,-4.8731,-4.8714,-4.8695,-4.866,-4.8605,-4.8569,-4.8569,-4.8438,-4.842,-4.866,-4.882,-4.8773,-2.0286,0.0,-2.1011,-2.1632,0.0,-2.2538,-2.2742,-2.2841,-2.2952,-2.3446,-2.4359,-2.5013,-2.5333,-2.5528,-2.6207,-2.6688,-2.6955,-2.7704,-2.8373,-2.8943,-2.9497,-3.0045,-3.0589,-3.096,-3.1407,-3.1849,-3.2113,-3.2093,-3.1928,-3.1975,-3.1718,-3.0997,-3.0721,-3.0319,-2.9754,-2.9438,-2.906,-2.8455,-2.9043,-2.9394,-2.9349,-2.8998,-2.8736,-2.845,-2.7375,0.0,0.0,0.0,0.0,0.0,0.0,0.0,0.0,-2.5654,0.0,-2.9545,-3.0238,-3.0418,-3.0115,-3.095,-3.1842,-3.2657,-3.3622,-3.3747,-3.2645,-3.2874,-3.3757,-3.5438,-3.6753,-3.7402,-3.7175,-3.8146,-3.8917,-3.9316,-3.9896,-4.0473,-4.0981,-4.1326,-4.1689,-4.2169,-4.2405,-4.2396,-4.2311,-4.2879,-4.339,-4.3822,-4.4277,-4.4674,-4.4998,-4.5004,-4.5,-4.5165,-4.5769,-4.6612,-4.7606,-4.7771,-4.7642,-4.7716,-4.8067,-4.8364,-4.8401,-4.842,-4.8439,-4.8439,-4.8458,-4.8439,-4.842,-4.8401,-4.8381,-4.8343,-4.8324,-4.8363,-4.8513,-4.866,-4.8579,-2.0136,-2.0189,-2.0712,-2.1326,-2.2123,-2.2627,-2.3329,-2.4026,0.0,0.0,0.0,-2.5333,-2.5528,-2.5849,-2.6314,-2.6678,-2.7051,-2.7704,-2.8373,-2.9035,-2.9393,-3.0045,-3.0883,-3.1074,-3.1419,-3.195,-3.23,-3.2377,-3.2189,-3.2331,-3.2127,-3.1725,-3.1587,-3.1273,-3.0813,-3.0765,-3.0263,-2.9251,-2.9561,-2.9799,-2.9811,-2.9448,-2.9138,-2.887,-2.7919,-2.7332,-2.7158,-2.6408,-2.611,-2.6392,-2.6519,-2.649,-2.616,-2.6425,-2.8004,-3.1057,-3.197,-3.2212,-3.1971,-3.2593,-3.3225,-3.3734,-3.4529,-3.4585,-3.3501,-3.3599,-3.4617,-3.6633,-3.7382,-3.7869,-3.7978,-3.8928,-3.9705,-4.0032,-4.0815,-4.1363,-4.1498,-4.1771,-4.1902,-4.2119,-4.2072,-4.2132,-4.24,-4.3019,-4.3632,-4.3978,-4.4592,-4.5119,-4.5129,-4.5306,-4.5531,-4.5915,-4.6432,-4.6948,-4.7484,-4.7743,-4.7893,-4.7915,-4.8032,-4.8148,-4.8187,-4.8208,-4.8229,-4.8267,-4.8229,-4.8247,-4.8208,-4.8208,-4.8247,-4.8226,-4.8247,-4.8363,-4.8494,-4.8624,-4.8507,-1.994,-2.0181,-2.0719,-2.1318,-2.2123,-2.2627,-2.3628,-2.4726,-2.472,-2.5032,-2.5635,-2.5645,-2.5956,-2.6383,-2.642,-2.6784,-2.7251,-2.782,-2.8279,-2.885,-2.9508,-2.9966,-3.0318,-3.1217,-3.1673,-3.1749,-3.2363,-3.2835,-3.322,-3.3095,-3.2918,-3.2792,-3.2353,-3.1838,-3.1323,-3.1254,-3.1179,-3.1047,-3.1097,-3.0686,-2.9861,-2.9997,-2.9836,-2.9341,-2.8528,-2.8196,-2.8323,-2.7829,-2.7808,-2.8286,-2.8331,-2.7933,-2.6943,-2.7176,-2.9008,-3.2585,-3.335,-3.3359,-3.2811,-3.3231,-3.4179,-3.5498,-3.6013,-3.5995,-3.5477,-3.5411,-3.5899,-3.7065,-3.8242,-3.8922,-3.8756,-3.9578,-4.028,-4.0698,-4.096,-4.1169,-4.1255,-4.138,-4.155,-4.17,-4.1789,-4.2326,-4.328,-4.3359,-4.3775,-4.4804,-4.524,-4.5549,-4.6003,-4.5962,-4.6149,-4.6811,-4.707,-4.7186,-4.7335,-4.7457,-4.7621,-4.7741,-4.7788,-4.7893,-4.801,-4.8032,-4.805,-4.8032,-4.8032,-4.809,-4.8148,-4.809,-4.8169,-4.8247,-4.8306,-4.8401,-4.8569,-4.8802,-4.8714,-1.9844,-1.9887,-2.03,-2.0806,-2.1522,-2.2426,-2.3529,-2.4627,-2.4805,-2.5216,-2.5635,-2.5732,-2.5839,-2.6063,-2.641,-2.6688,-2.7061,-2.7536,-2.8102,-2.8581,-2.9046,-2.9497,-2.9852,-3.0578,-3.1116,-3.1496,-3.2228,-3.2941,-3.3429,-3.3657,-3.3795,-3.396,-3.3709,-3.3307,-3.278,-3.2751,-3.2613,-3.2303,-3.1743,-3.1474,-3.1597,-3.111,-3.0735,-3.0461,-2.9961,-2.9752,-2.9804,-2.9593,-2.9709,-3.0131,-3.0256,-2.9784,-2.8647,-2.8866,-3.0707,-3.4354,-3.4805,-3.4845,-3.4579,-3.485,-3.5457,-3.6425,-3.6503,-3.6476,-3.646,-3.6632,-3.7054,-3.778,-3.8727,-3.9285,-3.914,-3.9767,-4.0288,-4.0551,-4.0745,-4.0888,-4.0965,-4.1059,-4.1169,-4.1348,-4.1387,-4.2058,-4.3701,-4.3941,-4.4269,-4.524,-4.5647,-4.6106,-4.6424,-4.6307,-4.6287,-4.6809,-4.707,-4.716,-4.7196,-4.7284,-4.745,-4.7572,-4.7621,-4.7705,-4.7806,-4.7866,-4.7866,-4.7847,-4.7925,-4.7947,-4.8065,-4.809,-4.8229,-4.8363,-4.8513,-4.866,-4.889,-4.916,-4.9221,-1.9827,-1.9792,-2.0013,-2.0498,-2.1216,-2.2426,-2.3529,-2.4529,-2.4833,-2.5235,-2.5732,-2.583,-2.583,-2.5936,-2.641,-2.6784,-2.7051,-2.7441,-2.7831,-2.8207,-2.8571,-2.8943,-2.9405,-2.9852,-3.0397,-3.1097,-3.192,-3.2774,-3.3486,-3.4049,-3.4441,-3.4635,-3.4726,-3.4512,-3.4085,-3.4097,-3.387,-3.3295,-3.2461,-3.2386,-3.3032,-3.213,-3.1524,-3.1442,-3.1238,-3.1169,-3.1302,-3.1293,-3.1517,-3.1955,-3.2179,-3.1957,-3.132,-3.1302,-3.2718,-3.5611,-3.6202,-3.6273,-3.6129,-3.6109,-3.6298,-3.6793,-3.656,-3.6476,-3.6862,-3.7203,-3.7642,-3.8286,-3.875,-3.9148,-3.9365,-3.9644,-3.9986,-4.0205,-4.0404,-4.0551,-4.06,-4.0697,-4.084,-4.097,-4.1047,-4.1771,-4.3407,-4.432,-4.4906,-4.547,-4.5998,-4.6315,-4.635,-4.6398,-4.6507,-4.6631,-4.688,-4.7053,-4.7044,-4.7151,-4.732,-4.7468,-4.7511,-4.7554,-4.7693,-4.7826,-4.7989,-4.8104,-4.8369,-4.8598,-4.8589,-4.859,-4.875,-4.8956,-4.899,-4.8978,-4.9276,-4.9525,-4.9702,-1.996,-2.0083,-2.0119,-2.0798,-2.2021,-2.2627,-2.3538,-2.443,-2.4735,-2.5421,-2.612,-2.61,-2.6314,-2.6633,-2.6815,-2.6986,-2.7262,-2.7547,-2.7641,-2.7736,-2.8207,-2.8581,-2.885,-2.9312,-2.984,-3.0478,-3.1592,-3.2767,-3.3717,-3.4181,-3.4466,-3.4635,-3.4726,-3.4726,-3.4638,-3.4613,-3.4422,-3.4118,-3.4043,-3.3709,-3.311,-3.2445,-3.1996,-3.1737,-3.1779,-3.1983,-3.2488,-3.2725,-3.3076,-3.3693,-3.3935,-3.4416,-3.5068,-3.458,-3.4885,-3.6403,-3.7418,-3.759,-3.6672,-3.6123,-3.6141,-3.6387,-3.6094,-3.6022,-3.6507,-3.6845,-3.7354,-3.7985,-3.8319,-3.8727,-3.9218,-3.9362,-3.959,-3.9901,-4.0003,-4.0071,-4.0288,-4.0355,-4.0419,-4.0528,-4.0789,-4.1618,-4.3293,-4.4336,-4.5098,-4.5905,-4.6098,-4.627,-4.627,-4.6447,-4.6607,-4.6673,-4.6813,-4.6888,-4.698,-4.7133,-4.7249,-4.7302,-4.7407,-4.7554,-4.7747,-4.8224,-4.8749,-4.8514,-4.9265,-4.9664,-4.9911,-5.0073,-4.9639,-4.9579,-4.9471,-4.9276,-4.9615,-4.9816,-4.9871,-2.0214,-1.9968,-2.0234,-2.0988,-2.1843,-2.2426,-2.3238,-2.4332,-2.4932,-2.5528,-2.611,-2.64,-2.6623,-2.6749,-2.6815,-2.6996,-2.7081,-2.7357,-2.7452,-2.7452,-2.7736,-2.8008,-2.8218,-2.9063,-2.9724,-3.0351,-3.1844,-3.3031,-3.3917,-3.4878,-3.5413,-3.5692,-3.5692,-3.5529,-3.524,-3.5127,-3.508,-3.4879,-3.4454,-3.4282,-3.4249,-3.3345,-3.2895,-3.3195,-3.3046,-3.3199,-3.3692,-3.4192,-3.466,-3.5148,-3.5604,-3.6123,-3.6694,-3.6467,-3.6693,-3.7486,-3.7914,-3.815,-3.7886,-3.7325,-3.7253,-3.7751,-3.6854,-3.6508,-3.6982,-3.6878,-3.6964,-3.7669,-3.8148,-3.8544,-3.8898,-3.9131,-3.9379,-3.9642,-3.9746,-3.9833,-3.9935,-4.0037,-4.0104,-4.0268,-4.0483,-4.1409,-4.3266,-4.476,-4.5646,-4.6119,-4.6189,-4.6189,-4.6221,-4.6398,-4.6607,-4.669,-4.6813,-4.6934,-4.6998,-4.7088,-4.7205,-4.732,-4.7407,-4.7554,-4.7711,-4.7898,-4.823,-4.8429,-4.8889,-4.9195,-4.9111,-4.9786,-4.9898,-4.9843,-4.9815,-4.9615,-4.9835,-4.9952,-5.0031,-2.0457,-2.0133,-2.0468,-2.1018,-2.1725,-2.2224,-2.3129,-2.4134,-2.4941,-2.5625,-2.6197,-2.6688,-2.6911,-2.6911,-2.6996,-2.6986,-2.6986,-2.7167,-2.7272,-2.7357,-2.7441,-2.761,-2.7851,-2.8732,-2.9543,-3.0337,-3.1752,-3.313,-3.427,-3.5399,-3.6098,-3.6358,-3.637,-3.6169,-3.5805,-3.576,-3.5726,-3.5549,-3.5094,-3.5094,-3.5411,-3.451,-3.4186,-3.4426,-3.4318,-3.4379,-3.4813,-3.5381,-3.5791,-3.6138,-3.6744,-3.7162,-3.7408,-3.7539,-3.7782,-3.8167,-3.8275,-3.8427,-3.8708,-3.8192,-3.8038,-3.8372,-3.7511,-3.7112,-3.7357,-3.6873,-3.6724,-3.7322,-3.7902,-3.8334,-3.8694,-3.8969,-3.9218,-3.9448,-3.9537,-3.9625,-3.9677,-3.9915,-4.0154,-4.0137,-4.0372,-4.1503,-4.3785,-4.5387,-4.6154,-4.6172,-4.6189,-4.6189,-4.6221,-4.6416,-4.6607,-4.6673,-4.686,-4.6998,-4.698,-4.7116,-4.7249,-4.732,-4.7425,-4.7597,-4.7729,-4.7844,-4.8104,-4.8707,-4.8553,-4.8861,-4.9614,-5.0065,-4.9928,-4.9594,-4.9574,-4.9807,-4.9898,-4.9986,-5.0089,-2.0698,-2.0692,-2.0642,-2.1018,-2.1725,-2.2224,-2.3129,-2.4134,-2.4941,-2.5723,-2.6496,-2.6794,-2.6996,-2.7262,-2.7272,-2.7272,-2.7262,-2.7262,-2.7272,-2.7272,-2.7367,-2.7692,-2.8292,-2.8334,-2.9063,-3.0285,-3.1392,-3.2949,-3.5041,-3.5692,-3.6098,-3.637,-3.6358,-3.6345,-3.6282,-3.6257,-3.6389,-3.6288,-3.6182,-3.6245,-3.6314,-3.621,-3.5849,-3.543,-3.5264,-3.5396,-3.5823,-3.6302,-3.6484,-3.6353,-3.6943,-3.738,-3.7534,-3.7601,-3.7814,-3.8202,-3.8366,-3.8516,-3.8517,-3.8309,-3.8184,-3.8136,-3.7724,-3.7579,-3.7901,-3.6944,-3.6561,-3.7013,-3.7916,-3.851,-3.882,-3.8919,-3.9018,-3.9355,-3.9375,-3.9534,-3.9761,-4.0484,-4.0505,-4.0358,-4.0747,-4.2427,-4.554,-4.6116,-4.6204,-4.6221,-4.6239,-4.6239,-4.627,-4.6464,-4.659,-4.6637,-4.6842,-4.6998,-4.7043,-4.716,-4.7276,-4.7363,-4.7468,-4.7657,-4.7989,-4.8242,-4.8641,-4.9034,-4.9245,-4.9687,-5.0485,-5.0564,-5.0064,-4.9778,-4.9679,-4.9825,-4.9898,-4.9959,-5.0038,-2.1203,-2.0918,-2.0681,-2.1018,-2.1733,-2.2325,-2.3138,-2.4134,-2.5118,-2.5907,-2.6496,-2.6976,-2.7167,-2.7272,-2.7272,-2.7272,-2.7272,-2.7272,-2.7272,-2.7293,-2.7552,-2.7769,-2.8063,-2.8802,-2.9568,-3.0392,-3.1628,-3.3151,-3.4799,-3.5512,-3.5908,-3.6086,-3.637,-3.637,-3.637,-3.637,-3.637,-3.637,-3.637,-3.637,-3.6358,-3.6445,-3.6324,-3.6205,-3.5711,-3.5781,-3.6425,-3.6558,-3.6675,-3.6971,-3.731,-3.7534,-3.761,-3.7886,-3.8127,-3.8529,-3.8559,-3.859,-3.8855,-3.8809,-3.8835,-3.8862,-3.8351,-3.8187,-3.844,-3.7834,-3.7486,-3.8116,-3.9629,-4.0401,-3.979,-3.9219,-3.9128,-3.983,-4.0093,-4.035,-4.0892,-4.1426,-4.1608,-4.1648,-4.2975,-4.5089,-4.5862,-4.6464,-4.6447,-4.6464,-4.6447,-4.6429,-4.6447,-4.6542,-4.6584,-4.6666,-4.6795,-4.6888,-4.6998,-4.716,-4.732,-4.7363,-4.7511,-4.7615,-4.788,-4.7916,-4.82,-4.8356,-4.893,-4.9168,-4.9505,-4.975,-4.9467,-5.0065,-5.0,-4.9692,-4.9843,-4.9871,-4.9933,-2.1314,-2.105,-2.0895,-2.1086,-2.1796,-2.2274,-2.3129,-2.4233,-2.5206,-2.6004,-2.6592,-2.7071,-2.7272,-2.7293,-2.7407,-2.7469,-2.7469,-2.7489,-2.7552,-2.7717,-2.8007,-2.8224,-2.8452,-2.9203,-2.9986,-3.0665,-3.1961,-3.3224,-3.4433,-3.5114,-3.5524,-3.6015,-3.6181,-3.6263,-3.637,-3.637,-3.637,-3.637,-3.637,-3.637,-3.637,-3.637,-3.6452,-3.662,-3.6182,-3.6224,-3.6949,-3.7066,-3.7331,-3.7537,-3.7783,-3.7825,-3.7882,-3.8142,-3.85,-3.8722,-3.8737,-3.8811,-3.9031,-3.9192,-3.9265,-3.9337,-3.902,-3.8877,-3.9213,-3.8911,-3.8831,-3.9474,-4.0785,-4.1752,-4.1177,-4.0163,-3.9851,-4.0519,-4.0823,-4.1171,-4.171,-4.2307,-4.2785,-4.3494,-4.5033,-4.6363,-4.6631,-4.6607,-4.659,-4.659,-4.6395,-4.6218,-4.6218,-4.6265,-4.6312,-4.6422,-4.6699,-4.6898,-4.6962,-4.708,-4.7258,-4.7302,-4.745,-4.7572,-4.7675,-4.7657,-4.7699,-4.7842,-4.7966,-4.8108,-4.8363,-4.8678,-4.9291,-5.0025,-4.989,-4.9495,-4.9615,-4.9759,-4.9816,-2.1134,-2.1107,-2.1129,-2.1316,-2.1796,-2.2316,-2.3155,-2.4134,-2.5206,-2.5897,-2.6496,-2.7071,-2.7293,-2.7376,-2.7696,-2.7903,-2.7997,-2.8007,-2.8162,-2.8473,-2.8587,-2.8835,-2.9187,-2.9311,-2.9889,-3.0845,-3.2139,-3.3147,-3.404,-3.4531,-3.5223,-3.5824,-3.6015,-3.6193,-3.637,-3.637,-3.637,-3.637,-3.637,-3.637,-3.637,-3.637,-3.6452,-3.6722,-3.682,-3.7025,-3.7279,-3.7906,-3.8201,-3.82,-3.8418,-3.8408,-3.8196,-3.8439,-3.8692,-3.8811,-3.8959,-3.9119,-3.9104,-3.9265,-3.9352,-3.9409,-3.9379,-3.9448,-3.9773,-3.9813,-3.9956,-4.0386,-4.132,-4.2125,-4.2275,-4.1559,-4.1041,-4.1231,-4.1515,-4.1844,-4.2172,-4.285,-4.4036,-4.5337,-4.6312,-4.661,-4.6666,-4.6673,-4.6684,-4.6531,-4.607,-4.5627,-4.5663,-4.5709,-4.563,-4.58,-4.6315,-4.6842,-4.6916,-4.7017,-4.7107,-4.7258,-4.7363,-4.7511,-4.7572,-4.7615,-4.7615,-4.7699,-4.7759,-4.7907,-4.8208,-4.8532,-4.875,-4.9254,-4.9146,-4.9225,-4.9384,-4.9506,-4.9615,-2.1126,-2.116,-2.138,-2.1441,-2.1675,-2.2361,-2.2996,-2.3637,-2.4716,-2.5509,-2.6197,-2.6794,-2.7236,-2.7686,-2.7872,-2.8266,-2.8845,-2.8866,-2.8794,-2.8711,-2.8949,-2.9166,-2.9342,-2.9632,-3.0265,-3.1105,-3.1823,-3.2645,-3.3457,-3.4237,-3.4835,-3.5416,-3.5812,-3.6098,-3.637,-3.637,-3.637,-3.637,-3.637,-3.637,-3.637,-3.637,-3.6452,-3.6546,-3.6922,-3.7271,-3.7651,-3.81,-3.8515,-3.8808,-3.9039,-3.8889,-3.8419,-3.846,-3.8823,-3.9136,-3.9135,-3.9177,-3.9265,-3.9337,-3.9424,-3.9424,-3.9424,-3.9568,-3.994,-4.0011,-4.017,-4.0535,-4.144,-4.2253,-4.2509,-4.2574,-4.2272,-4.1979,-4.2302,-4.2802,-4.3306,-4.4024,-4.494,-4.5905,-4.653,-4.6855,-4.6891,-4.6849,-4.6842,-4.6771,-4.6148,-4.5668,-4.565,-4.5559,-4.5513,-4.5676,-4.6269,-4.6702,-4.6731,-4.6742,-4.6771,-4.6972,-4.7125,-4.732,-4.7425,-4.7468,-4.7468,-4.7511,-4.7572,-4.7741,-4.8032,-4.8267,-4.8439,-4.8623,-4.8767,-4.8906,-4.9127,-4.9257,-4.9321,-2.1181,-2.1114,-2.1324,-2.1401,-2.1526,-2.2248,-2.2784,-2.3364,-2.443,-2.5314,-2.612,-2.6871,-2.7462,-2.7955,-2.8276,-2.8752,-2.9301,-2.9477,-2.9404,-2.9187,-2.9394,-2.9559,-2.9591,-2.9933,-3.0401,-3.1023,-3.1629,-3.2342,-3.3069,-3.3744,-3.4421,-3.503,-3.562,-3.5991,-3.6275,-3.637,-3.637,-3.637,-3.637,-3.637,-3.637,-3.637,-3.637,-3.6465,-3.6828,-3.7268,-3.7782,-3.8381,-3.891,-3.9446,-3.9869,-3.9794,-3.9015,-3.8779,-3.8865,-3.9254,-3.9268,-3.9265,-3.9409,-3.9424,-3.9424,-3.9424,-3.9424,-3.9568,-3.9925,-4.0011,-4.017,-4.0566,-4.1437,-4.2234,-4.2607,-4.2919,-4.29,-4.2643,-4.3107,-4.3669,-4.4339,-4.479,-4.5356,-4.6023,-4.6658,-4.6915,-4.7013,-4.6987,-4.6998,-4.6873,-4.6302,-4.5802,-4.5757,-4.5605,-4.5559,-4.5691,-4.6183,-4.6484,-4.6525,-4.6459,-4.6424,-4.6631,-4.6852,-4.7053,-4.7205,-4.7205,-4.7187,-4.7232,-4.7294,-4.7407,-4.7669,-4.7788,-4.7933,-4.8132,-4.8383,-4.8569,-4.8748,-4.8872,-4.8974,-2.1227,-2.1181,-2.1212,-2.1342,-2.1534,-2.2095,-2.2722,-2.3471,-2.4452,-2.5379,-2.6221,-2.7138,-2.7713,-2.8115,-2.8856,-2.9249,-2.9425,-2.9746,-2.9911,-2.988,-2.9932,-2.9922,-2.9932,-3.0172,-3.0505,-3.0827,-3.1322,-3.1936,-3.2645,-3.3247,-3.3941,-3.4726,-3.5223,-3.5716,-3.6003,-3.6275,-3.6345,-3.6358,-3.637,-3.637,-3.637,-3.637,-3.6465,-3.6452,-3.6828,-3.7374,-3.79,-3.8854,-3.959,-4.0114,-4.0829,-4.0885,-4.0197,-3.9478,-3.953,-3.9535,-3.943,-3.9442,-3.9454,-3.9424,-3.9424,-3.9424,-3.9424,-3.9568,-3.994,-4.0036,-4.0124,-4.0473,-4.1488,-4.2234,-4.2591,-4.2935,-4.3096,-4.3218,-4.3597,-4.4259,-4.4818,-4.4988,-4.539,-4.607,-4.6654,-4.698,-4.6987,-4.6998,-4.6998,-4.6855,-4.632,-4.5847,-4.5757,-4.5605,-4.5559,-4.5787,-4.6041,-4.6178,-4.6204,-4.6049,-4.5982,-4.6119,-4.6332,-4.6572,-4.6824,-4.687,-4.687,-4.6916,-4.6962,-4.708,-4.724,-4.7345,-4.7578,-4.7811,-4.7995,-4.821,-4.8364,-4.8514,-4.8678,-2.1503,-2.1203,-2.1457,-2.1564,-2.1703,-2.2344,-2.307,-2.3696,-2.4696,-2.5793,-2.6689,-2.7492,-2.8207,-2.8949,-2.9177,-2.9487,-2.9766,-2.9932,-2.9994,-2.9994,-2.9994,-2.9994,-2.9994,-3.0099,-3.0308,-3.062,-3.0931,-3.1333,-3.1936,-3.2645,-3.3446,-3.4237,-3.4835,-3.5332,-3.5908,-3.6106,-3.62,-3.6358,-3.637,-3.6395,-3.6408,-3.6408,-3.6452,-3.6628,-3.6934,-3.7492,-3.8096,-3.9339,-4.0315,-4.0958,-4.1224,-4.1517,-4.1462,-4.174,-4.1196,-3.9935,-3.9876,-3.9888,-3.9544,-3.9424,-3.9424,-3.9424,-3.9568,-3.9696,-3.9996,-3.9984,-4.0163,-4.0562,-4.1459,-4.2381,-4.2846,-4.3059,-4.3267,-4.3628,-4.3923,-4.4327,-4.4725,-4.4952,-4.5304,-4.607,-4.6623,-4.6926,-4.6959,-4.6998,-4.698,-4.6855,-4.6318,-4.5757,-4.5765,-4.5609,-4.5587,-4.547,-4.5593,-4.5795,-4.5837,-4.5681,-4.5562,-4.5563,-4.5735,-4.5938,-4.6186,-4.6381,-4.6381,-4.6429,-4.6542,-4.6666,-4.6806,-4.6944,-4.7214,-4.7432,-4.7663,-4.7829,-4.8032,-4.8247,-4.8401,-2.162,-2.1211,-2.1554,-2.17,-2.1739,-2.249,-2.3253,-2.3823,-2.4814,-2.5975,-2.6939,-2.7831,-2.8543,-2.9301,-2.9508,-2.9725,-2.9973,-2.9994,-2.9994,-2.9994,-2.9994,-2.9994,-2.9994,-2.9994,-3.0203,-3.0412,-3.063,-3.1023,-3.1629,-3.2342,-3.3047,-3.3755,-3.4445,-3.5126,-3.5608,-3.5904,-3.6288,-3.6659,-3.6772,-3.686,-3.7036,-3.7048,-3.7253,-3.7381,-3.7621,-3.795,-3.8782,-3.9954,-4.0845,-4.1283,-4.1435,-4.1594,-4.21,-4.2867,-4.2641,-4.1309,-4.095,-4.0349,-4.0091,-3.982,-3.964,-3.964,-3.9783,-3.991,-4.0021,-4.0078,-4.017,-4.0758,-4.1831,-4.2623,-4.2988,-4.3199,-4.3388,-4.3704,-4.3998,-4.427,-4.4648,-4.4878,-4.5321,-4.5938,-4.6442,-4.682,-4.6831,-4.6842,-4.6824,-4.6771,-4.6447,-4.6198,-4.6081,-4.5776,-4.5567,-4.5527,-4.5349,-4.5527,-4.5477,-4.5285,-4.5216,-4.5213,-4.5283,-4.5424,-4.5684,-4.5938,-4.6005,-4.6055,-4.6105,-4.6204,-4.6332,-4.6525,-4.6713,-4.6944,-4.7249,-4.7486,-4.7723,-4.7929,-4.809,-2.1539,-2.1211,-2.1554,-2.1722,-2.18,-2.2537,-2.3394,-2.3952,-2.5011,-2.6172,-2.7182,-2.8191,-2.8879,-2.9404,-2.9777,-2.9984,-2.9994,-2.9994,-3.0067,-3.0098,-3.0139,-3.017,-3.0294,-3.0191,-3.0307,-3.0559,-3.0559,-3.1155,-3.1864,-3.2303,-3.2836,-3.3669,-3.4421,-3.504,-3.5637,-3.5948,-3.6505,-3.7186,-3.7315,-3.7465,-3.7764,-3.7801,-3.7985,-3.824,-3.8536,-3.8978,-3.9802,-4.0681,-4.1369,-4.151,-4.1506,-4.1763,-4.2151,-4.2847,-4.3401,-4.3334,-4.2032,-4.1051,-4.0849,-4.0364,-4.0087,-3.997,-3.9996,-4.0137,-4.0231,-4.0201,-4.0353,-4.099,-4.2299,-4.2944,-4.316,-4.3305,-4.3465,-4.3645,-4.3923,-4.4196,-4.4429,-4.4732,-4.5198,-4.5735,-4.623,-4.6526,-4.6565,-4.6542,-4.6525,-4.6525,-4.6318,-4.6217,-4.6099,-4.5888,-4.5775,-4.5713,-4.5528,-4.5267,-4.5142,-4.4964,-4.4927,-4.4906,-4.4906,-4.5069,-4.5336,-4.5546,-4.5667,-4.5718,-4.5701,-4.5786,-4.5938,-4.607,-4.6284,-4.6572,-4.687,-4.716,-4.7381,-4.7639,-4.7806,-2.1796,-2.1211,-2.1554,-2.1851,-2.2122,-2.3015,-2.385,-2.4631,-2.5829,-2.6858,-2.7912,-2.873,-2.9296,-2.9829,-2.9942,-2.9994,-3.0005,-3.0036,-3.018,-3.0532,-3.0543,-3.077,-3.0905,-3.0739,-3.0708,-3.0874,-3.1343,-3.1847,-3.2533,-3.27,-3.3271,-3.4073,-3.469,-3.5544,-3.6278,-3.6628,-3.7255,-3.7715,-3.7829,-3.7879,-3.8078,-3.8103,-3.83,-3.8838,-3.9468,-4.0295,-4.1019,-4.1764,-4.216,-4.2138,-4.2187,-4.2266,-4.232,-4.2871,-4.3488,-4.3576,-4.2986,-4.1851,-4.1167,-4.0906,-4.0542,-4.0203,-4.0298,-4.0261,-4.0439,-4.0408,-4.0608,-4.1254,-4.2302,-4.3215,-4.3457,-4.3471,-4.3575,-4.3727,-4.3855,-4.3998,-4.4219,-4.4466,-4.4971,-4.5563,-4.6009,-4.6295,-4.6253,-4.6284,-4.6284,-4.6284,-4.6235,-4.6137,-4.6038,-4.592,-4.5735,-4.5598,-4.5389,-4.5123,-4.4835,-4.4652,-4.4669,-4.4631,-4.4686,-4.4759,-4.5032,-4.5194,-4.53,-4.53,-4.5283,-4.5372,-4.558,-4.5768,-4.597,-4.6284,-4.659,-4.6888,-4.716,-4.7381,-4.7597,-2.1781,-2.1447,-2.1782,-2.2124,-2.2683,-2.3472,-2.4359,-2.5119,-2.6327,-2.7314,-2.8281,-2.8814,-2.9459,-2.9994,-2.9994,-2.9994,-3.0056,-3.0243,-3.0574,-3.0926,-3.1029,-3.1257,-3.1588,-3.1454,-3.1381,-3.1402,-3.16,-3.2131,-3.2587,-3.2857,-3.3123,-3.3922,-3.4773,-3.5509,-3.6398,-3.6983,-3.7518,-3.8129,-3.8316,-3.8529,-3.8768,-3.8793,-3.8992,-3.9615,-4.0529,-4.1314,-4.1636,-4.2424,-4.2619,-4.2582,-4.2785,-4.282,-4.2548,-4.2945,-4.3548,-4.3743,-4.3305,-4.2773,-4.2267,-4.1897,-4.1484,-4.0827,-4.0892,-4.0801,-4.0785,-4.0737,-4.0863,-4.144,-4.2701,-4.4026,-4.424,-4.4014,-4.3993,-4.3922,-4.3886,-4.3973,-4.4155,-4.4401,-4.4773,-4.5319,-4.5632,-4.5838,-4.5955,-4.592,-4.5988,-4.6005,-4.6005,-4.5905,-4.5786,-4.5632,-4.5441,-4.53,-4.514,-4.4869,-4.4575,-4.4406,-4.4406,-4.448,-4.4536,-4.4609,-4.4776,-4.4886,-4.494,-4.4995,-4.5086,-4.5194,-4.5336,-4.5529,-4.5735,-4.6005,-4.6319,-4.6655,-4.698,-4.7232,-4.7425,-2.1735,-2.1675,-2.2002,-2.2456,-2.3127,-2.4041,-2.4744,-2.5555,-2.6637,-2.7621,-2.8467,-2.907,-2.9621,-2.9898,-3.0025,-3.0025,-3.0232,-3.0605,-3.104,-3.1422,-3.1474,-3.1743,-3.2033,-3.2085,-3.1971,-3.1913,-3.1975,-3.2217,-3.2526,-3.2705,-3.3247,-3.3763,-3.4804,-3.5666,-3.63,-3.6982,-3.7836,-3.8512,-3.8893,-3.917,-3.9484,-3.9546,-3.9829,-4.0546,-4.1319,-4.2018,-4.2357,-4.304,-4.3338,-4.2969,-4.3463,-4.3357,-4.302,-4.3085,-4.3419,-4.3864,-4.3395,-4.3259,-4.3118,-4.2898,-4.2463,-4.1888,-4.1866,-4.1705,-4.1339,-4.1153,-4.1325,-4.2335,-4.3586,-4.513,-4.526,-4.4814,-4.4549,-4.4447,-4.418,-4.4038,-4.4206,-4.4444,-4.4631,-4.4947,-4.5144,-4.5338,-4.5477,-4.5546,-4.5632,-4.5667,-4.5667,-4.5649,-4.5546,-4.5389,-4.5194,-4.5032,-4.494,-4.4759,-4.4463,-4.4293,-4.431,-4.4423,-4.448,-4.4609,-4.4682,-4.4776,-4.494,-4.494,-4.5032,-4.5086,-4.5177,-4.5389,-4.5598,-4.577,-4.6122,-4.6542,-4.6824,-4.7098,-4.7276,-2.1735,-2.1668,-2.2002,-2.2456,-2.3127,-2.4041,-2.5104,-2.6131,-2.7142,-2.8252,-2.9258,-2.9629,-2.9793,-3.0064,-3.0044,-3.0222,-3.0667,-3.1081,-3.1505,-3.1878,-3.1981,-3.223,-3.254,-3.2685,-3.2602,-3.2551,-3.2633,-3.2757,-3.3022,-3.3289,-3.3655,-3.4328,-3.5151,-3.6006,-3.685,-3.7709,-3.8356,-3.8869,-3.9343,-3.9572,-3.9647,-3.9788,-4.0147,-4.0937,-4.1826,-4.2548,-4.3283,-4.4003,-4.4447,-4.4251,-4.4411,-4.3759,-4.3145,-4.3144,-4.3374,-4.3446,-4.3635,-4.3609,-4.3501,-4.3436,-4.3152,-4.2834,-4.2705,-4.263,-4.2207,-4.1694,-4.1977,-4.3451,-4.495,-4.616,-4.5342,-4.5178,-4.5177,-4.5044,-4.466,-4.4351,-4.4494,-4.4424,-4.44,-4.4691,-4.4787,-4.4827,-4.5039,-4.5197,-4.5232,-4.5319,-4.5353,-4.53,-4.5194,-4.5086,-4.494,-4.4848,-4.4737,-4.4553,-4.4367,-4.4253,-4.4196,-4.4423,-4.4536,-4.4686,-4.4759,-4.4869,-4.4978,-4.5086,-4.5086,-4.5069,-4.5177,-4.5336,-4.5546,-4.5871,-4.6154,-4.6477,-4.676,-4.7098,-4.7276,-2.158,-2.1896,-2.223,-2.2788,-2.3617,-2.469,-2.5639,-2.661,-2.7707,-2.8697,-2.9453,-2.9778,-3.0018,-3.0414,-3.0488,-3.0838,-3.135,-3.1578,-3.1981,-3.2333,-3.2623,-3.282,-3.311,-3.3275,-3.3399,-3.342,-3.342,-3.3235,-3.3007,-3.3378,-3.3861,-3.4401,-3.5268,-3.6134,-3.6904,-3.7832,-3.8526,-3.9062,-3.9478,-3.9697,-3.9697,-3.9788,-4.0377,-4.1084,-4.1881,-4.2666,-4.3437,-4.4303,-4.4733,-4.4803,-4.4952,-4.4284,-4.3708,-4.3522,-4.3768,-4.3442,-4.3663,-4.3866,-4.3777,-4.3913,-4.3787,-4.3526,-4.3474,-4.3403,-4.2987,-4.251,-4.272,-4.4585,-4.5572,-4.641,-4.5885,-4.5698,-4.5586,-4.5424,-4.4931,-4.4591,-4.4556,-4.4231,-4.4313,-4.4519,-4.4618,-4.4715,-4.4773,-4.4878,-4.4875,-4.4927,-4.4978,-4.494,-4.4886,-4.4831,-4.4793,-4.472,-4.4609,-4.4592,-4.4463,-4.4406,-4.4367,-4.4536,-4.4686,-4.4852,-4.5015,-4.5177,-4.523,-4.5336,-4.5283,-4.5266,-4.5266,-4.5424,-4.5684,-4.5905,-4.6235,-4.6525,-4.6824,-4.7098,-4.7338,-2.1546,-2.2116,-2.2343,-2.3014,-2.397,-2.5206,-2.6204,-2.7127,-2.8277,-2.9211,-2.9814,-2.9931,-3.0338,-3.0792,-3.1175,-3.1449,-3.2064,-3.2157,-3.2551,-3.2861,-3.3275,-3.3503,-3.3627,-3.3824,-3.3979,-3.3896,-3.3938,-3.3648,-3.3173,-3.3496,-3.3855,-3.4209,-3.5157,-3.6036,-3.67,-3.7714,-3.834,-3.8945,-3.9374,-3.9697,-3.9788,-3.9981,-4.0377,-4.0883,-4.1683,-4.2387,-4.3177,-4.4209,-4.4783,-4.4989,-4.5142,-4.4955,-4.4325,-4.4317,-4.4023,-4.3503,-4.3521,-4.3864,-4.4097,-4.4236,-4.4204,-4.4146,-4.4231,-4.4188,-4.399,-4.3558,-4.363,-4.5665,-4.6221,-4.6221,-4.6115,-4.603,-4.5995,-4.5791,-4.5196,-4.4578,-4.4599,-4.4427,-4.4181,-4.435,-4.4485,-4.4618,-4.4678,-4.4695,-4.478,-4.4797,-4.4848,-4.4831,-4.4776,-4.4776,-4.4665,-4.4648,-4.4575,-4.4558,-4.4614,-4.4725,-4.4742,-4.4869,-4.5015,-4.5213,-4.5372,-4.5477,-4.5529,-4.5632,-4.5684,-4.5666,-4.5632,-4.5632,-4.5887,-4.6154,-4.6398,-4.6637,-4.6934,-4.716,-4.7381,-2.1546,-2.2108,-2.2108,-2.2788,-2.3987,-2.4998,-2.6372,-2.7737,-2.8803,-2.9786,-3.0605,-3.0531,-3.0694,-3.1156,-3.1615,-3.189,-3.2282,-3.2768,-3.3151,-3.3358,-3.3762,-3.3989,-3.4,-3.402,-3.4217,-3.4258,-3.4196,-3.3793,-3.3557,-3.3928,-3.4019,-3.4092,-3.4891,-3.573,-3.6495,-3.7536,-3.8343,-3.8865,-3.9374,-3.9697,-3.9697,-3.9981,-4.0377,-4.0883,-4.1484,-4.2177,-4.2984,-4.3926,-4.4712,-4.5278,-4.4967,-4.5491,-4.6169,-4.4488,-4.3673,-4.3314,-4.3397,-4.3524,-4.3957,-4.4205,-4.4496,-4.4688,-4.4927,-4.5038,-4.496,-4.4788,-4.4867,-4.5575,-4.5911,-4.6016,-4.6159,-4.6237,-4.633,-4.6039,-4.5503,-4.513,-4.4995,-4.4421,-4.4147,-4.4212,-4.4423,-4.4536,-4.4631,-4.4592,-4.4626,-4.4626,-4.4626,-4.4626,-4.4665,-4.4665,-4.4686,-4.4597,-4.4725,-4.478,-4.4872,-4.4944,-4.5052,-4.5194,-4.5353,-4.5546,-4.5632,-4.5735,-4.5887,-4.5938,-4.6038,-4.607,-4.607,-4.6137,-4.6253,-4.6398,-4.6637,-4.6795,-4.6934,-4.7205,-4.7468,-2.1546,-2.2116,-2.2351,-2.3133,-2.4364,-2.5409,-2.6814,-2.8122,-2.9226,-3.0102,-3.0723,-3.0819,-3.1067,-3.163,-3.222,-3.2582,-3.283,-3.3234,-3.3544,-3.3834,-3.4207,-3.4455,-3.4527,-3.4703,-3.4828,-3.4766,-3.4786,-3.4652,-3.4414,-3.4223,-3.4199,-3.4165,-3.4889,-3.573,-3.6421,-3.7417,-3.8164,-3.8773,-3.9295,-3.9697,-3.9685,-3.989,-4.0083,-4.0694,-4.1185,-4.198,-4.2873,-4.3846,-4.484,-4.5441,-4.5259,-4.5346,-4.5815,-4.5026,-4.4208,-4.3344,-4.3284,-4.3457,-4.3832,-4.3988,-4.4358,-4.483,-4.5129,-4.54,-4.5706,-4.5945,-4.5747,-4.5799,-4.5833,-4.5905,-4.6032,-4.6136,-4.6278,-4.6089,-4.5497,-4.5342,-4.5027,-4.4417,-4.4064,-4.4212,-4.4344,-4.4514,-4.457,-4.4626,-4.4626,-4.4626,-4.4626,-4.4626,-4.4682,-4.4737,-4.4669,-4.4601,-4.4855,-4.5069,-4.5159,-4.5319,-4.5424,-4.5511,-4.5667,-4.5803,-4.5905,-4.5988,-4.6087,-4.6235,-4.6332,-4.6381,-4.6477,-4.6525,-4.659,-4.6731,-4.6934,-4.707,-4.7205,-4.7294,-4.7511,-2.1546,-2.201,-2.2436,-2.33,-2.4605,-2.5848,-2.7142,-2.8495,-2.9489,-3.0274,-3.0762,-3.1102,-3.146,-3.2109,-3.2621,-3.3037,-3.3358,-3.3606,-3.3906,-3.43,-3.4652,-3.49,-3.4993,-3.5242,-3.5366,-3.5428,-3.5293,-3.5138,-3.4998,-3.4833,-3.4721,-3.4497,-3.531,-3.588,-3.6547,-3.7429,-3.8327,-3.9111,-3.9503,-3.9697,-3.9697,-3.9697,-3.9993,-4.0491,-4.0984,-4.1571,-4.2666,-4.3546,-4.4439,-4.5244,-4.523,-4.5183,-4.5296,-4.482,-4.4469,-4.3918,-4.4028,-4.4073,-4.4142,-4.4164,-4.4188,-4.4587,-4.5204,-4.576,-4.6175,-4.6641,-4.6797,-4.6157,-4.5842,-4.5825,-4.5848,-4.6024,-4.5992,-4.5795,-4.5365,-4.5212,-4.4915,-4.4367,-4.408,-4.4212,-4.4344,-4.4514,-4.457,-4.457,-4.457,-4.457,-4.457,-4.457,-4.4626,-4.4737,-4.4742,-4.4746,-4.5018,-4.5335,-4.558,-4.5719,-4.5788,-4.5821,-4.5922,-4.6023,-4.6023,-4.6154,-4.6284,-4.6429,-4.6542,-4.6637,-4.6637,-4.6778,-4.687,-4.7007,-4.7143,-4.7338,-4.7486,-4.7554,-4.7639,-2.1439,-2.1805,-2.2351,-2.3299,-2.463,-2.5905,-2.7264,-2.8443,-2.9517,-3.0284,-3.0889,-3.148,-3.1742,-3.216,-3.2823,-3.3389,-3.3472,-3.4289,-3.4569,-3.4807,-3.5128,-3.5273,-3.5335,-3.5366,-3.5428,-3.5428,-3.5428,-3.5397,-3.5385,-3.5434,-3.5219,-3.5072,-3.5784,-3.6387,-3.7049,-3.7857,-3.8668,-3.9308,-3.9697,-3.9697,-3.9697,-3.98,-4.0006,-4.0402,-4.0593,-4.1084,-4.2065,-4.3039,-4.394,-4.4882,-4.476,-4.4866,-4.5094,-4.4278,-4.4018,-4.4644,-4.5077,-4.5056,-4.4869,-4.4444,-4.4217,-4.4694,-4.5395,-4.5992,-4.6278,-4.6657,-4.6813,-4.6679,-4.6246,-4.5985,-4.5992,-4.5905,-4.5913,-4.5555,-4.5271,-4.4935,-4.4697,-4.4394,-4.4147,-4.4172,-4.4344,-4.4514,-4.457,-4.457,-4.457,-4.457,-4.457,-4.457,-4.4682,-4.4737,-4.4886,-4.4961,-4.523,-4.5545,-4.5996,-4.6099,-4.5992,-4.5922,-4.6023,-4.6073,-4.6122,-4.6253,-4.6332,-4.6429,-4.6495,-4.6684,-4.6842,-4.6888,-4.7025,-4.7232,-4.7363,-4.7468,-4.7615,-4.7741,-4.7806,-2.1735,-2.2012,-2.2883,-2.3693,-2.4713,-2.5915,-2.7204,-2.8492,-2.9502,-3.0284,-3.0918,-3.1846,-3.22,-3.2555,-3.3361,-3.3979,-3.4238,-3.4527,-3.489,-3.5138,-3.5345,-3.5418,-3.5428,-3.5428,-3.5428,-3.5428,-3.5428,-3.5428,-3.5376,-3.5802,-3.5993,-3.6058,-3.6402,-3.6906,-3.7523,-3.8335,-3.913,-3.949,-3.9697,-3.9697,-3.9697,-3.9697,-4.0006,-4.0402,-4.0694,-4.1298,-4.2289,-4.3039,-4.3968,-4.4627,-4.4803,-4.5091,-4.5132,-4.402,-4.4214,-4.5289,-4.5958,-4.6063,-4.5545,-4.5071,-4.505,-4.531,-4.5766,-4.6064,-4.6294,-4.6663,-4.6867,-4.6797,-4.6641,-4.6365,-4.6191,-4.6175,-4.6023,-4.5633,-4.5192,-4.4804,-4.4414,-4.4155,-4.4114,-4.4162,-4.4367,-4.457,-4.457,-4.457,-4.457,-4.457,-4.457,-4.4677,-4.4885,-4.4924,-4.5141,-4.5323,-4.5593,-4.5961,-4.6361,-4.6306,-4.6125,-4.6125,-4.6093,-4.6023,-4.609,-4.6172,-4.6284,-4.6398,-4.6495,-4.6637,-4.6795,-4.6952,-4.707,-4.7232,-4.7407,-4.7554,-4.7741,-4.7866,-4.797,-2.2104,-2.2591,-2.3488,-2.4196,-2.487,-2.6143,-2.7388,-2.8564,-2.9558,-3.037,-3.1319,-3.2096,-3.267,-3.3089,-3.3834,-3.4393,-3.4672,-3.491,-3.5138,-3.5314,-3.5407,-3.5428,-3.5428,-3.5428,-3.5428,-3.5428,-3.5428,-3.5428,-3.5428,-3.6044,-3.6226,-3.6499,-3.7011,-3.7605,-3.8132,-3.9044,-3.9611,-3.9644,-3.9697,-3.9697,-3.9697,-3.98,-4.0006,-4.0504,-4.0795,-4.1498,-4.2387,-4.3149,-4.3954,-4.4656,-4.5061,-4.5404,-4.5161,-4.4902,-4.4748,-4.5717,-4.6493,-4.6713,-4.6229,-4.574,-4.5768,-4.5727,-4.6037,-4.6222,-4.6429,-4.6668,-4.6876,-4.692,-4.6867,-4.6765,-4.6388,-4.6301,-4.5843,-4.5362,-4.516,-4.4804,-4.4389,-4.4047,-4.4097,-4.4135,-4.439,-4.4621,-4.479,-4.4874,-4.5162,-4.528,-4.5551,-4.5602,-4.5693,-4.5705,-4.5546,-4.5768,-4.6023,-4.6428,-4.676,-4.6673,-4.655,-4.6375,-4.6306,-4.5941,-4.5922,-4.6073,-4.6172,-4.6204,-4.635,-4.659,-4.6684,-4.6749,-4.6962,-4.7276,-4.7425,-4.7615,-4.7847,-4.797,-4.805,-2.2739,-2.3242,-2.4204,-2.4836,-2.534,-2.6523,-2.7521,-2.8681,-2.9671,-3.0818,-3.185,-3.2434,-3.3011,-3.3615,-3.4407,-3.4786,-3.49,-3.519,-3.5387,-3.5407,-3.5428,-3.5428,-3.5428,-3.5428,-3.5428,-3.5428,-3.5428,-3.5428,-3.5428,-3.6044,-3.63,-3.6789,-3.7548,-3.8369,-3.8539,-3.9201,-3.9636,-3.9631,-3.9735,-3.9697,-3.98,-4.0019,-4.0338,-4.0605,-4.101,-4.161,-4.2484,-4.3232,-4.4049,-4.469,-4.5252,-4.5654,-4.61,-4.566,-4.5873,-4.6921,-4.7036,-4.7102,-4.7081,-4.635,-4.6005,-4.5928,-4.6272,-4.6485,-4.6509,-4.6722,-4.6932,-4.701,-4.701,-4.6909,-4.6668,-4.6448,-4.5878,-4.5516,-4.5326,-4.5177,-4.4804,-4.4573,-4.4683,-4.4548,-4.4592,-4.4688,-4.4959,-4.5246,-4.5686,-4.6041,-4.6447,-4.6566,-4.6523,-4.6418,-4.6175,-4.6327,-4.6622,-4.7326,-4.7663,-4.723,-4.6952,-4.6813,-4.6517,-4.6187,-4.5943,-4.6009,-4.6042,-4.6058,-4.6204,-4.6447,-4.6495,-4.6542,-4.6824,-4.7143,-4.7425,-4.7657,-4.7888,-4.805,-4.809,-2.3273,-2.3828,-2.4664,-2.5416,-2.6161,-2.6987,-2.7894,-2.9007,-3.0381,-3.1576,-3.2465,-3.3055,-3.3629,-3.4156,-3.4809,-3.5169,-3.5221,-3.5262,-3.5428,-3.5428,-3.5428,-3.5428,-3.5428,-3.5428,-3.5428,-3.5428,-3.5428,-3.5428,-3.5428,-3.6044,-3.63,-3.6789,-3.7954,-3.8998,-3.9514,-4.0013,-4.0026,-3.9785,-3.9744,-3.9697,-3.9813,-4.0159,-4.0466,-4.0795,-4.111,-4.1809,-4.2693,-4.3328,-4.4035,-4.4854,-4.5324,-4.6079,-4.6562,-4.626,-4.6726,-4.6991,-4.6696,-4.6052,-4.6229,-4.6148,-4.6493,-4.6455,-4.6394,-4.6509,-4.6516,-4.6742,-4.6949,-4.7167,-4.7267,-4.7199,-4.7183,-4.7183,-4.6745,-4.6323,-4.6157,-4.6003,-4.5735,-4.5684,-4.5647,-4.5287,-4.5118,-4.5696,-4.6058,-4.6278,-4.6633,-4.6819,-4.7192,-4.7022,-4.6887,-4.6869,-4.6788,-4.6954,-4.7317,-4.8204,-4.8598,-4.7989,-4.7625,-4.7469,-4.6982,-4.6462,-4.6291,-4.6256,-4.6185,-4.6322,-4.6297,-4.6319,-4.6491,-4.6689,-4.6784,-4.7007,-4.7249,-4.7529,-4.7783,-4.7929,-4.809,-2.4204,-2.502,-2.5497,-2.6288,-2.7114,-2.7487,-2.8428,-2.9895,-3.119,-3.2236,-3.3022,-3.3648,-3.4105,-3.4657,-3.5139,-3.5428,-3.5428,-3.5428,-3.5428,-3.5428,-3.5428,-3.5428,-3.5428,-3.5428,-3.5428,-3.5428,-3.5428,-3.5428,-3.5418,-3.6044,-3.6545,-3.7264,-3.8085,-3.923,-3.999,-4.025,-4.0232,-3.9841,-3.9728,-3.9697,-3.9813,-4.0146,-4.0657,-4.0909,-4.1398,-4.2092,-4.2887,-4.3642,-4.4195,-4.4954,-4.5685,-4.6417,-4.6697,-4.7048,-4.7103,-4.6655,-4.6142,-4.571,-4.6037,-4.6137,-4.6485,-4.6701,-4.6534,-4.6526,-4.6657,-4.6815,-4.7069,-4.7286,-4.7554,-4.757,-4.7554,-4.7537,-4.7308,-4.6799,-4.6599,-4.6444,-4.6374,-4.629,-4.6327,-4.5967,-4.5816,-4.6499,-4.7124,-4.7445,-4.7699,-4.7817,-4.7936,-4.7648,-4.7428,-4.7496,-4.758,-4.7732,-4.7967,-4.8736,-4.8993,-4.8579,-4.8286,-4.8169,-4.7579,-4.6993,-4.7051,-4.7073,-4.683,-4.6689,-4.7086,-4.7237,-4.6882,-4.6888,-4.6991,-4.6955,-4.6962,-4.7294,-4.7615,-4.7847,-4.7992,-2.5383,-2.6554,-2.6952,-2.7522,-2.807,-2.8395,-2.9487,-3.1191,-3.1616,-3.2593,-3.3799,-3.3819,-3.4401,-3.5211,-3.5428,-3.5428,-3.5428,-3.5428,-3.5428,-3.5428,-3.5428,-3.5428,-3.5428,-3.5428,-3.5428,-3.5428,-3.5428,-3.5428,-3.5541,-3.6044,-3.6778,-3.7626,-3.8216,-3.9087,-3.9884,-4.0302,-4.0439,-4.0467,-3.9897,-3.9982,-4.0345,-4.0516,-4.1067,-4.1435,-4.1947,-4.2588,-4.3327,-4.401,-4.4504,-4.5216,-4.6046,-4.6535,-4.6815,-4.7165,-4.6658,-4.6157,-4.5635,-4.59,-4.6124,-4.6113,-4.6354,-4.6681,-4.6897,-4.6949,-4.6931,-4.6936,-4.7172,-4.7488,-4.772,-4.7653,-4.7637,-4.7505,-4.7424,-4.7128,-4.6896,-4.6756,-4.6653,-4.6669,-4.6807,-4.67,-4.6591,-4.6954,-4.7605,-4.8027,-4.8325,-4.8443,-4.8494,-4.8494,-4.8342,-4.8487,-4.8557,-4.854,-4.8813,-4.9231,-4.9213,-4.8936,-4.9005,-4.8912,-4.8307,-4.7772,-4.783,-4.7908,-4.7736,-4.7786,-4.8206,-4.815,-4.7527,-4.7174,-4.7152,-4.7115,-4.697,-4.7143,-4.7529,-4.7788,-4.7974,-2.6217,-2.7272,-2.7659,-2.8241,-2.9261,-3.0556,-3.1513,-3.2018,-3.2661,-3.3404,-3.4242,-3.4232,-3.4665,-3.5418,-3.5428,-3.5428,-3.5428,-3.5428,-3.5428,-3.5428,-3.5428,-3.5428,-3.5428,-3.5428,-3.5428,-3.5428,-3.5428,-3.5428,-3.5552,-3.6044,-3.6778,-3.7495,-3.7976,-3.8693,-3.9498,-4.014,-4.0821,-4.1285,-4.0513,-4.0658,-4.1263,-4.1683,-4.2048,-4.2433,-4.265,-4.3242,-4.3987,-4.4352,-4.4775,-4.5413,-4.6135,-4.6697,-4.6829,-4.7058,-4.6836,-4.5281,-4.5263,-4.5633,-4.5632,-4.5759,-4.6123,-4.663,-4.6898,-4.6942,-4.6945,-4.712,-4.7357,-4.7621,-4.7836,-4.7836,-4.782,-4.7721,-4.7655,-4.749,-4.7341,-4.7353,-4.7321,-4.7508,-4.7648,-4.7781,-4.7673,-4.774,-4.8298,-4.8433,-4.8731,-4.8917,-4.9018,-4.9018,-4.9001,-4.9063,-4.9046,-4.9057,-4.9118,-4.935,-4.9488,-4.9299,-4.955,-4.9545,-4.8981,-4.8643,-4.8831,-4.8854,-4.8714,-4.8817,-4.9235,-4.872,-4.7802,-4.7674,-4.774,-4.7222,-4.707,-4.7205,-4.7425,-4.7747,-4.7974,-2.7312,-2.8122,-2.837,-2.9287,-3.0513,-3.1932,-3.2671,-3.297,-3.332,-3.3796,-3.4298,-3.4413,-3.4787,-3.5294,-3.5428,-3.5428,-3.5428,-3.5428,-3.5428,-3.5428,-3.5428,-3.5428,-3.5428,-3.5428,-3.5428,-3.5428,-3.5428,-3.5428,-3.5552,-3.5921,-3.6524,-3.7154,-3.7506,-3.8216,-3.9049,-3.9779,-4.0779,-4.1418,-4.1656,-4.161,-4.2049,-4.2754,-4.3323,-4.3335,-4.3375,-4.3981,-4.447,-4.4604,-4.516,-4.5561,-4.6225,-4.6756,-4.681,-4.6911,-4.6418,-4.5206,-4.5202,-4.5461,-4.5614,-4.5943,-4.6278,-4.6684,-4.7046,-4.7167,-4.7286,-4.7406,-4.7572,-4.777,-4.7919,-4.8001,-4.8001,-4.8001,-4.8001,-4.7984,-4.8033,-4.8081,-4.8242,-4.8416,-4.8606,-4.8855,-4.8883,-4.8849,-4.8968,-4.9018,-4.9018,-4.9018,-4.9018,-4.9018,-4.9018,-4.9001,-4.9063,-4.9046,-4.909,-4.929,-4.9367,-4.9564,-4.9715,-4.9861,-4.9825,-4.9629,-4.9852,-5.0013,-4.9976,-5.0042,-5.0225,-4.9497,-4.8679,-4.8418,-4.8306,-4.7722,-4.7294,-4.745,-4.7621,-4.787,-4.8072,-2.8498,-2.9112,-2.9468,-3.0313,-3.1738,-3.2488,-3.3214,-3.3796,-3.366,-3.3796,-3.4433,-3.4413,-3.4797,-3.5428,-3.5552,-3.5552,-3.5552,-3.5552,-3.5418,-3.5428,-3.5428,-3.5428,-3.5428,-3.5428,-3.5428,-3.5428,-3.5428,-3.5418,-3.5541,-3.6034,-3.6545,-3.6921,-3.7385,-3.7976,-3.8716,-3.9469,-4.0364,-4.104,-4.1754,-4.2261,-4.2589,-4.3475,-4.4415,-4.3872,-4.4109,-4.4501,-4.4816,-4.5158,-4.5702,-4.5825,-4.6225,-4.6844,-4.7071,-4.6735,-4.6009,-4.565,-4.5444,-4.5641,-4.5952,-4.6333,-4.6797,-4.7144,-4.7519,-4.79,-4.8098,-4.7754,-4.782,-4.7902,-4.8001,-4.8001,-4.8001,-4.8001,-4.8001,-4.8199,-4.833,-4.8361,-4.8436,-4.8564,-4.8798,-4.894,-4.9018,-4.9018,-4.9018,-4.9018,-4.9018,-4.9018,-4.9018,-4.9018,-4.9018,-4.9018,-4.9001,-4.9001,-4.9124,-4.9229,-4.9428,-4.9607,-4.9825,-4.9948,-5.0181,-5.0425,-5.0576,-5.0928,-5.1347,-5.1215,-5.1075,-5.0449,-4.9806,-4.9424,-4.8765,-4.7867,-4.7578,-4.7747,-4.7911,-4.8151,-4.8229,-2.924,-3.0007,-3.0382,-3.118,-3.2085,-3.2601,-3.327,-3.3902,-3.4047,-3.4423,-3.4797,-3.4797,-3.517,-3.5675,-3.584,-3.5851,-3.584,-3.5976,-3.5696,-3.5593,-3.548,-3.5469,-3.5428,-3.5428,-3.5428,-3.5428,-3.5428,-3.5552,-3.5798,-3.63,-3.6688,-3.6943,-3.7472,-3.8263,-3.8687,-3.9476,-4.0187,-4.0723,-4.1322,-4.2302,-4.3051,-4.3888,-4.467,-4.4758,-4.5096,-4.5078,-4.5356,-4.5507,-4.5874,-4.6072,-4.6521,-4.7156,-4.7773,-4.6846,-4.6284,-4.6059,-4.5898,-4.6112,-4.6436,-4.6851,-4.7322,-4.8024,-4.851,-4.9008,-4.8993,-4.8332,-4.7952,-4.7985,-4.8084,-4.81,-4.7985,-4.8001,-4.8117,-4.8365,-4.8629,-4.8625,-4.8617,-4.874,-4.8894,-4.894,-4.9001,-4.9018,-4.9018,-4.9018,-4.9018,-4.9018,-4.9018,-4.9018,-4.9018,-4.9001,-4.9001,-4.9063,-4.9107,-4.929,-4.9411,-4.9708,-4.9999,-5.0324,-5.0567,-5.091,-5.1281,-5.1521,-5.1754,-5.192,-5.1814,-5.1034,-5.0452,-5.0055,-4.9275,-4.8265,-4.8014,-4.8192,-4.8421,-4.8641,-4.8623,-2.9695,-3.0252,-3.1175,-3.1924,-3.2489,-3.306,-3.3838,-3.4518,-3.4787,-3.517,-3.5654,-3.5541,-3.5675,-3.6129,-3.6357,-3.6463,-3.6516,-3.6727,-3.6425,-3.6061,-3.5759,-3.5707,-3.5531,-3.5418,-3.5552,-3.5552,-3.5798,-3.6055,-3.6311,-3.6801,-3.7266,-3.749,-3.8188,-3.8763,-3.9145,-3.9813,-4.0304,-4.0711,-4.1082,-4.1977,-4.3394,-4.441,-4.5227,-4.5542,-4.5651,-4.5655,-4.5761,-4.5949,-4.5967,-4.6371,-4.6887,-4.744,-4.7665,-4.7121,-4.6716,-4.6582,-4.6526,-4.6598,-4.6973,-4.744,-4.8024,-4.8723,-4.9321,-4.9771,-4.9788,-4.9143,-4.8546,-4.8562,-4.8843,-4.8892,-4.8296,-4.8181,-4.8413,-4.8745,-4.9093,-4.9293,-4.9109,-4.8983,-4.9051,-4.9001,-4.9018,-4.9018,-4.9018,-4.9018,-4.9018,-4.9018,-4.9018,-4.9001,-4.9001,-4.9063,-4.9063,-4.9124,-4.929,-4.9453,-4.9691,-4.9942,-5.0285,-5.0602,-5.0928,-5.1331,-5.1637,-5.1969,-5.2198,-5.2105,-5.1882,-5.1427,-5.086,-5.0289,-4.9636,-4.8696,-4.8587,-4.8695,-4.8906,-4.9075,-4.9075,-3.0147,-3.0478,-3.1531,-3.2312,-3.2742,-3.3406,-3.4302,-3.5284,-3.5541,-3.6188,-3.7008,-3.6652,-3.6609,-3.6769,-3.7213,-3.7342,-3.7449,-3.7513,-3.7274,-3.6864,-3.6581,-3.6194,-3.5748,-3.5665,-3.5798,-3.6167,-3.6412,-3.6534,-3.6789,-3.7501,-3.8286,-3.8451,-3.9154,-3.9848,-4.0261,-4.0618,-4.0999,-4.1225,-4.1558,-4.219,-4.3419,-4.4746,-4.5539,-4.5847,-4.5948,-4.6059,-4.6168,-4.6234,-4.6166,-4.6563,-4.7174,-4.7729,-4.7707,-4.7325,-4.6972,-4.677,-4.7075,-4.7044,-4.7371,-4.8184,-4.8718,-4.9302,-4.9934,-5.0353,-5.0402,-5.0165,-4.9566,-4.9497,-4.976,-4.9579,-4.8981,-4.8531,-4.8866,-4.9118,-4.95,-4.9887,-4.9576,-4.9304,-4.911,-4.9041,-4.9035,-4.9035,-4.9001,-4.9001,-4.9001,-4.9001,-4.9001,-4.9001,-4.9063,-4.9107,-4.9168,-4.935,-4.9513,-4.9691,-4.9866,-5.0211,-5.0547,-5.0874,-5.1193,-5.1669,-5.194,-5.1867,-5.1855,-5.1918,-5.1675,-5.1182,-5.0765,-5.0186,-4.9547,-4.9004,-4.9083,-4.9141,-4.9239,-4.9415,-4.9555,-3.0509,-3.0772,-3.1074,-3.1761,-3.2744,-3.3084,-3.4126,-3.5355,-3.629,-3.7195,-3.8221,-3.8785,-3.8675,-3.8231,-3.8726,-3.8891,-3.8667,-3.8565,-3.7941,-3.7477,-3.7004,-3.6491,-3.6321,-3.6279,-3.6401,-3.6767,-3.7021,-3.7396,-3.7824,-3.8653,-3.9352,-3.9453,-4.0506,-4.101,-4.1138,-4.1471,-4.1767,-4.1941,-4.2051,-4.2424,-4.3725,-4.4848,-4.5565,-4.5953,-4.6154,-4.6259,-4.646,-4.6424,-4.6442,-4.6786,-4.7392,-4.8002,-4.8053,-4.759,-4.7189,-4.7282,-4.75,-4.7783,-4.8172,-4.8957,-4.9473,-5.0171,-5.0773,-5.1227,-5.1409,-5.1685,-5.1246,-5.1196,-5.1229,-5.0855,-5.027,-4.9578,-4.9578,-4.9583,-4.9887,-5.0033,-5.0025,-4.9558,-4.912,-4.9072,-4.8979,-4.8945,-4.894,-4.9001,-4.9001,-4.9001,-4.9063,-4.9063,-4.9168,-4.9229,-4.9333,-4.9496,-4.9715,-4.9808,-4.9924,-5.0418,-5.082,-5.114,-5.1327,-5.1562,-5.1597,-5.1365,-5.1393,-5.1438,-5.1216,-5.0772,-5.0359,-5.0101,-4.9793,-4.938,-4.9509,-4.9604,-4.9692,-4.9731,-4.9816]}]]